GFSSGP_500_spd_000.txt.gz
Wind_Speed
14 14 16 14 16 19 23 27 24 20 20 22 25 27 27 23 23 28 28 31 33 35 38 38 37 39 39 38 39 38 37 36 36 35 32 31 30 31 31 31 31 32 30 31 31 29 29 30 29
19 20 19 18 18 20 25 26 20 18 22 24 28 27 28 24 26 28 28 30 32 31 33 35 36 36 37 38 38 40 41 39 38 38 38 35 32 32 32 33 32 34 32 34 34 32 30 30 30
21 20 23 25 21 21 26 26 23 22 25 27 29 33 32 32 31 33 33 30 31 32 33 33 34 35 34 33 37 37 34 35 35 32 32 33 34 34 34 34 34 34 34 36 37 35 33 31 32
23 25 26 22 23 25 27 29 31 28 29 31 31 30 26 28 30 29 31 28 30 32 33 33 34 34 35 36 34 32 31 29 30 29 30 32 33 34 33 35 33 34 35 35 37 38 36 36 36
24 26 27 24 24 27 30 31 32 34 34 32 34 32 33 34 36 36 35 30 29 30 34 35 36 36 35 33 32 33 33 31 29 30 32 33 33 35 35 35 33 34 35 37 38 39 39 39 39
28 30 30 28 26 31 31 34 34 40 38 35 37 38 36 37 37 38 36 27 26 29 34 37 38 39 34 31 31 32 31 32 32 31 32 36 37 36 35 37 36 36 37 38 38 40 40 40 39
31 36 35 33 33 34 35 39 38 38 39 39 41 43 40 38 42 38 31 24 26 31 36 38 39 38 32 30 33 35 35 37 38 39 41 41 42 41 41 42 41 40 39 38 38 39 39 39 38
39 41 38 36 25 35 36 37 36 36 35 40 42 43 44 46 49 38 31 26 29 32 36 37 36 34 34 33 35 37 39 38 40 41 42 42 42 42 43 43 42 41 40 38 35 35 38 37 37
37 42 38 32 31 32 35 36 33 41 41 40 43 42 47 48 49 37 28 31 33 32 34 35 38 37 36 36 39 40 41 40 42 42 41 41 39 38 39 39 39 38 36 33 32 35 39 41 41
41 44 39 34 37 38 36 37 41 41 44 40 41 40 39 42 43 33 30 29 30 30 30 36 36 35 37 39 41 41 42 43 41 40 38 37 37 37 38 37 36 36 36 36 37 37 36 37 39
43 46 40 36 39 42 38 35 43 40 44 46 43 36 39 41 37 34 26 27 31 30 34 35 37 35 37 36 38 41 41 38 36 34 35 33 34 35 35 36 37 37 37 38 38 39 36 36 38
51 48 43 42 42 44 38 41 37 42 45 40 34 30 36 34 32 31 25 28 28 31 33 33 38 35 34 38 41 39 39 34 30 31 32 32 32 33 33 32 32 32 33 35 37 37 38 37 38
52 48 49 49 48 43 38 38 42 28 28 26 25 29 32 33 30 27 25 26 28 29 25 30 33 35 34 35 37 38 34 30 30 29 31 31 33 32 30 31 32 32 33 36 36 35 35 34 36
53 53 53 51 49 42 38 43 33 17 27 24 29 28 28 32 32 23 21 27 29 28 25 25 31 38 37 34 37 36 31 29 30 29 32 32 33 31 30 27 27 30 35 34 33 30 30 31 30
59 59 56 52 45 40 44 44 22 27 31 38 31 30 27 33 27 20 15 19 21 20 22 26 32 36 36 33 36 34 31 31 31 32 34 32 33 31 30 32 29 31 31 31 29 27 28 29 29
65 64 62 51 43 43 46 45 24 32 40 36 28 27 25 27 24 19 12 11 15 17 22 26 31 34 34 31 35 34 32 33 33 35 34 32 32 32 32 34 31 31 29 29 27 27 28 29 30
70 66 61 52 45 47 43 45 28 33 40 31 29 29 27 30 25 17 15 13 17 19 24 28 34 33 31 32 34 33 33 34 34 36 34 35 37 34 33 32 29 30 30 28 27 26 26 28 30
65 62 58 55 49 50 47 40 38 28 39 28 30 30 32 26 17 20 21 19 18 20 28 33 36 33 29 32 31 30 33 33 35 32 32 32 28 26 25 26 29 29 28 25 24 24 23 24 24
61 58 57 52 48 47 43 40 36 31 35 29 30 32 29 19 21 18 20 22 16 22 28 36 38 31 30 29 29 30 31 32 33 30 31 30 27 26 27 29 31 29 23 23 21 17 16 13 19
52 53 50 44 44 46 44 42 36 32 28 31 32 24 19 19 18 18 19 20 18 28 31 33 35 29 29 27 28 28 29 33 31 30 27 29 29 30 30 29 26 20 19 20 15 12 14 16 19
41 42 40 41 41 46 42 41 37 28 29 32 28 22 20 18 17 19 20 19 20 29 32 35 28 27 24 26 27 28 30 32 29 28 29 30 32 28 26 19 16 15 15 11 9 12 12 16 20
32 29 35 38 38 41 34 47 37 29 29 28 20 23 23 20 16 17 19 20 23 25 26 27 25 23 24 23 26 29 31 29 27 26 28 32 29 26 21 14 10 10 7 1 9 12 15 20 22
28 30 34 38 37 40 38 46 28 25 21 17 19 23 16 19 16 14 16 21 21 23 24 23 24 23 22 24 27 28 27 25 26 26 29 29 25 20 15 8 6 3 5 11 16 18 18 20 22
30 31 26 33 39 52 35 36 20 17 14 22 24 14 16 16 15 16 18 18 21 18 18 21 20 21 21 24 25 24 23 25 26 27 29 25 20 15 7 5 3 7 11 17 17 17 16 20 26
39 36 33 37 43 46 24 39 22 12 20 22 17 16 19 10 14 11 14 15 14 12 15 17 19 19 21 22 25 26 24 26 23 28 24 21 13 8 6 5 7 10 12 18 17 16 18 20 24
30 33 36 36 32 32 26 36 6 20 20 19 20 19 13 7 9 12 14 14 15 14 14 17 17 20 21 21 26 24 22 21 24 24 22 12 8 6 7 7 11 14 14 17 19 18 17 19 20
32 41 27 34 36 31 36 24 17 26 22 15 17 10 8 5 10 13 12 11 12 11 13 14 17 20 18 20 23 18 17 19 21 18 11 9 6 7 9 10 11 14 19 20 21 20 20 19 14
44 36 38 38 38 41 33 20 16 21 16 19 10 8 5 5 9 11 8 8 8 11 10 12 18 16 16 19 15 12 15 18 17 12 9 7 8 8 10 11 10 15 19 22 18 17 16 18 15
48 46 46 41 45 38 31 17 14 21 18 12 14 9 5 5 11 11 8 9 9 11 9 12 15 15 13 15 11 12 15 16 13 10 8 9 7 8 10 11 10 16 22 16 16 17 19 20 17
37 39 40 39 39 31 20 16 24 24 19 13 12 11 3 7 9 10 5 8 9 12 8 12 11 10 10 12 10 11 14 15 10 10 10 9 8 8 9 11 14 16 17 14 21 20 21 19 17

GFSSGP_500_spd_003.txt.gz
Wind_Speed
16 18 16 17 15 17 21 20 20 21 16 16 18 19 20 24 29 29 33 33 35 33 38 38 37 38 38 36 34 33 34 34 34 36 38 38 39 37 34 32 33 33 33 33 32 32 35 34 33
16 20 23 23 19 18 24 23 21 23 22 21 24 24 24 27 25 26 28 33 38 36 36 38 37 37 37 34 36 35 36 37 36 32 31 34 35 38 37 35 34 34 35 35 34 33 33 34 33
20 22 24 22 22 25 25 26 26 28 28 27 29 32 28 26 24 26 29 34 33 34 36 39 37 35 35 38 38 40 42 37 31 30 28 27 29 32 35 35 35 35 36 37 37 35 34 34 34
24 26 27 26 28 26 26 29 29 32 33 35 37 34 31 28 30 31 33 36 35 37 37 37 38 36 37 39 42 44 43 36 31 30 29 27 28 30 31 34 34 34 35 37 39 38 37 35 34
29 28 30 27 28 28 28 30 34 38 37 39 36 33 33 33 34 36 36 34 34 35 33 33 37 41 40 41 43 39 35 32 32 30 29 27 25 26 28 30 32 32 33 35 36 36 36 35 35
28 28 32 28 28 30 31 32 38 38 41 39 37 37 37 34 39 40 40 42 40 32 31 32 38 42 42 41 38 35 34 35 34 35 35 35 34 32 30 30 31 31 30 31 34 36 36 36 36
31 33 32 30 30 31 28 36 37 39 38 38 37 41 40 37 40 42 42 43 43 33 34 35 38 41 43 40 37 37 37 37 38 39 40 40 41 40 37 36 35 34 33 33 33 33 35 37 39
37 38 36 34 34 31 29 32 38 39 34 33 36 41 42 40 41 42 42 40 34 31 35 37 38 41 42 40 37 36 38 38 39 41 43 43 41 39 38 36 36 37 36 35 35 35 35 38 38
45 48 42 36 31 31 32 37 37 38 32 28 36 40 46 47 49 43 39 37 33 33 32 35 39 41 40 37 38 38 38 38 40 41 41 38 39 37 35 35 34 35 35 35 35 35 34 32 33
51 51 44 35 32 35 38 40 39 40 34 28 41 46 47 47 45 41 36 34 35 30 32 35 39 41 41 39 39 38 39 40 38 38 38 36 34 33 32 32 33 34 33 34 34 34 34 34 33
50 49 43 40 35 41 41 39 41 39 26 32 41 42 43 41 36 36 32 34 35 30 31 32 37 40 41 40 36 37 38 37 39 36 33 31 30 31 31 32 33 32 32 31 33 34 35 36 35
50 50 53 46 41 47 43 40 36 40 23 35 40 43 41 34 31 30 29 34 34 27 26 31 35 37 42 38 36 35 36 38 36 30 28 29 29 31 31 31 29 29 31 32 31 31 32 33 34
58 53 52 55 49 47 47 38 38 28 24 38 39 39 40 33 31 28 31 37 35 29 25 31 35 38 37 37 39 35 36 37 31 28 28 29 31 33 31 30 28 27 26 27 29 31 33 34 33
54 55 55 58 58 46 47 38 42 23 31 39 38 40 40 38 33 29 32 37 35 26 29 32 36 33 36 38 37 35 36 34 33 29 30 29 33 32 30 28 27 28 28 27 27 30 31 30 30
57 59 60 58 54 50 46 31 38 32 36 38 38 44 41 38 36 32 34 36 32 27 23 22 24 25 29 33 35 34 34 35 32 31 29 32 33 32 31 31 31 31 30 29 31 27 27 27 28
60 61 65 61 55 52 51 39 40 36 37 37 37 44 38 31 31 33 31 30 31 25 20 21 21 25 29 33 34 33 34 32 31 29 32 33 31 32 31 28 30 29 28 27 27 27 26 27 27
67 66 65 60 56 56 56 49 41 40 39 37 34 41 35 31 30 34 34 35 29 26 22 26 22 26 30 33 31 32 32 31 29 29 33 31 32 30 29 27 25 26 24 29 29 29 28 28 28
60 59 58 56 56 63 60 57 54 45 40 41 33 38 33 31 31 35 34 30 25 25 26 25 20 25 29 34 32 33 30 30 27 30 33 31 30 28 29 29 30 31 32 34 32 29 27 27 27
58 58 58 55 53 56 54 54 53 43 36 41 34 33 32 28 29 31 30 24 24 25 25 19 19 24 31 35 33 31 29 28 29 32 32 32 30 32 32 32 30 33 32 32 32 25 26 26 26
52 53 53 49 46 50 47 49 47 41 37 39 31 29 28 26 27 28 25 21 22 25 22 20 21 26 33 34 30 29 28 28 31 32 30 31 32 32 33 30 30 27 28 21 21 23 20 19 19
47 46 42 41 35 42 44 49 45 38 37 34 27 28 22 24 26 29 23 23 22 24 21 24 24 29 32 32 30 27 28 29 31 28 30 32 31 32 30 30 25 21 17 18 17 17 18 16 16
44 27 27 25 31 39 42 52 39 34 34 29 22 26 21 25 27 24 25 23 24 23 23 24 25 32 31 30 28 26 27 29 25 27 31 30 31 29 28 23 15 15 13 10 4 7 10 14 19
25 22 23 26 33 40 38 44 32 26 18 19 23 25 24 26 24 25 23 24 27 21 20 23 27 27 27 27 26 24 27 27 27 30 27 28 27 25 19 12 10 7 3 5 8 10 12 17 21
34 31 31 32 35 38 34 39 26 12 15 17 20 26 23 22 22 18 19 25 18 17 19 20 23 23 24 24 24 24 27 28 27 27 27 25 24 14 8 6 3 7 13 17 15 15 18 19 22
46 41 40 35 35 33 25 35 12 5 9 11 19 20 20 19 15 16 19 17 15 17 18 21 19 22 21 22 23 25 28 25 23 25 24 21 13 8 5 3 6 10 12 13 14 15 18 21 21
45 37 40 32 31 22 23 28 16 10 12 17 15 18 19 17 13 14 15 11 13 14 15 17 18 18 20 19 21 24 21 19 21 22 19 15 7 6 5 6 7 9 11 14 16 18 18 20 19
42 42 27 33 34 20 28 15 9 13 20 17 12 17 14 14 14 14 8 8 9 7 12 14 14 17 16 16 20 16 16 19 19 17 17 8 5 8 5 8 9 11 16 19 17 16 17 15 10
44 40 41 39 35 27 22 11 7 16 16 18 19 16 14 13 10 8 4 6 7 7 12 11 13 15 11 14 14 14 17 19 18 17 11 2 8 7 7 11 10 15 20 20 18 18 16 11 13
50 49 46 40 37 32 18 8 8 15 16 15 19 19 13 8 8 5 5 8 7 8 10 9 12 11 8 13 13 15 18 19 15 11 3 6 7 9 7 10 12 15 18 17 15 14 12 10 12
44 40 41 42 35 26 15 8 11 18 20 16 19 19 10 5 3 6 4 6 5 8 5 8 10 7 9 12 13 14 17 13 12 7 5 8 9 9 11 12 13 18 13 15 16 15 14 14 14

GFSSGP_500_spd_006.txt.gz
Wind_Speed
15 15 15 15 14 14 17 20 21 21 20 23 22 23 23 23 27 27 28 29 31 31 32 36 39 41 39 37 33 31 32 34 35 38 40 39 35 34 35 33 33 34 34 35 34 35 35 35 37
16 19 18 18 19 21 19 21 23 25 25 26 27 30 31 28 28 27 29 31 33 34 33 37 40 41 40 36 33 34 35 36 38 37 37 37 37 32 31 31 33 36 37 36 35 35 35 37 38
21 20 23 21 20 20 14 23 27 27 27 26 29 31 33 31 26 28 29 31 34 34 34 37 39 40 40 37 36 40 41 40 35 32 31 29 33 33 31 30 31 32 35 38 39 38 36 36 39
24 24 25 24 23 22 25 27 28 30 29 30 29 34 34 29 30 31 34 34 35 36 35 37 36 38 38 37 38 42 42 37 32 31 31 28 25 23 22 27 29 30 32 34 37 38 37 37 38
28 28 29 26 24 24 27 28 30 31 32 35 31 32 33 31 35 37 38 36 36 36 37 40 36 36 38 38 38 40 38 36 33 33 34 33 32 30 28 25 23 27 29 31 33 36 37 36 36
29 29 30 29 23 26 29 29 30 33 33 37 33 30 29 32 35 39 42 38 38 39 37 38 34 37 38 38 40 36 34 35 36 35 36 37 38 39 39 35 32 30 27 27 30 32 32 33 34
33 33 29 30 28 28 29 31 31 32 35 36 33 31 32 36 37 42 45 42 43 42 35 33 35 38 38 39 39 35 35 36 37 38 39 41 41 40 40 39 37 34 33 30 28 29 30 31 32
37 41 41 37 29 30 30 30 33 36 37 36 27 32 35 41 43 46 45 41 40 37 34 34 35 37 39 40 38 37 36 38 37 39 39 36 36 36 33 32 31 31 32 32 32 31 30 31 33
45 49 46 40 38 30 31 33 40 38 38 34 30 32 38 42 47 48 47 42 38 32 33 36 36 36 39 39 39 39 38 40 39 39 35 35 37 35 34 32 30 30 31 32 33 33 32 33 33
51 51 44 34 45 39 38 43 41 43 40 33 36 35 40 46 46 43 44 39 31 29 34 37 36 37 39 36 38 38 40 38 39 37 36 35 33 31 30 30 30 31 31 31 32 32 33 34 35
52 50 46 50 41 49 51 48 44 43 41 34 35 35 39 42 44 43 39 33 28 31 35 36 38 40 37 36 38 38 38 37 38 38 33 31 31 29 28 29 30 31 30 30 30 31 32 35 36
62 60 62 55 46 48 55 50 51 41 40 35 37 41 43 41 40 41 37 35 33 33 33 36 40 40 36 35 38 41 38 38 37 37 32 30 30 30 28 31 30 30 30 28 25 29 31 30 33
66 66 62 59 51 53 56 53 54 51 41 38 42 41 41 41 40 38 36 35 38 34 35 38 37 37 35 36 30 34 36 36 36 36 33 31 31 30 29 32 29 29 27 27 27 27 27 29 31
62 64 61 61 54 56 61 60 55 48 43 38 43 39 37 40 42 36 34 35 39 37 36 40 40 35 31 27 28 31 35 36 35 35 32 30 29 32 31 27 29 30 29 28 28 27 28 26 29
70 68 65 59 57 55 56 53 43 38 44 41 41 38 36 37 43 34 31 30 35 35 38 37 36 32 27 24 27 30 34 35 34 32 30 28 30 30 29 27 26 25 25 27 29 29 30 29 27
66 67 64 62 60 55 53 54 39 39 46 47 45 42 38 36 40 33 30 30 32 34 34 36 34 31 27 25 27 29 35 35 35 32 29 28 30 28 28 27 26 24 24 25 23 24 25 27 26
59 57 61 62 61 61 58 53 41 45 50 51 49 44 41 37 35 32 31 30 30 34 34 32 30 29 24 27 28 30 35 35 32 31 29 30 31 29 29 28 27 27 28 28 26 26 24 25 26
56 60 57 55 54 59 59 56 50 49 53 55 50 48 44 42 33 30 29 31 33 34 31 31 29 24 24 25 28 30 34 34 33 30 30 31 31 30 28 31 32 32 29 29 30 29 32 30 27
58 57 55 50 44 56 62 58 45 50 56 48 48 46 43 38 29 28 26 30 36 28 28 29 28 24 23 26 28 31 34 33 32 31 31 31 31 31 32 33 32 29 29 29 30 27 28 29 27
56 54 53 50 47 54 54 56 52 52 51 44 43 41 37 34 26 24 26 31 29 29 28 27 23 24 26 29 31 35 35 33 32 31 29 29 31 32 33 33 31 30 26 25 26 26 28 25 24
44 48 48 46 40 46 50 55 51 47 41 34 34 34 33 27 26 23 28 26 27 28 29 25 25 27 31 31 33 35 33 32 30 30 31 31 34 31 31 30 27 24 20 19 19 20 21 22 24
44 40 40 41 40 43 41 53 42 37 36 34 30 29 27 30 22 25 28 24 27 29 28 25 26 28 29 31 33 32 31 31 29 34 32 32 30 30 26 22 18 17 17 15 14 13 17 19 20
43 36 38 39 40 41 38 44 30 32 29 21 22 24 24 22 23 26 26 25 26 30 25 25 25 27 29 28 29 30 30 28 32 31 27 29 29 22 16 13 13 11 7 3 2 4 8 14 16
39 35 36 39 36 44 28 30 23 21 15 18 19 18 18 20 21 22 24 21 24 24 26 25 25 27 25 25 27 28 25 28 27 23 25 25 17 13 10 8 5 4 8 8 8 7 8 12 17
47 39 40 38 41 34 22 29 6 7 15 13 17 19 21 22 18 19 16 20 21 24 25 22 25 24 22 23 24 21 24 20 20 22 22 17 12 8 6 3 0 5 9 9 7 8 10 11 14
54 48 43 42 39 25 28 23 7 16 7 10 10 14 15 12 14 15 17 19 22 22 18 18 19 17 16 20 17 19 15 18 20 19 16 12 7 6 3 3 3 6 10 10 9 11 13 13 14
58 55 38 39 40 29 25 11 13 18 10 11 9 9 11 11 12 15 20 21 15 14 15 14 15 13 16 13 14 13 15 19 18 16 13 5 5 5 3 6 5 9 12 11 11 10 10 9 13
59 47 47 48 45 35 26 11 10 12 18 14 13 7 8 10 13 18 19 13 11 12 12 14 11 13 11 9 12 12 16 17 15 15 6 3 5 3 6 6 8 12 14 13 11 11 7 4 5
61 56 50 50 45 35 25 8 14 17 20 19 20 13 9 11 16 17 13 13 9 11 12 8 8 9 6 10 11 11 15 11 14 9 5 5 4 3 8 10 10 13 14 13 11 9 7 8 10
54 55 52 50 42 35 21 9 12 17 18 16 17 12 11 12 17 10 11 11 8 10 5 4 6 4 6 9 9 10 10 9 12 7 7 7 5 4 12 14 10 11 12 10 10 8 9 10 8

GFSSGP_500_spd_009.txt.gz
Wind_Speed
14 15 14 12 13 11 11 13 10 16 16 21 22 22 23 21 22 20 30 33 34 36 36 38 39 41 43 43 41 34 29 29 33 37 40 40 37 34 31 32 33 34 35 36 36 35 35 36 38
18 15 16 17 15 12 10 11 21 13 18 23 24 26 30 21 29 29 33 33 33 35 37 39 38 40 41 41 39 32 29 32 36 40 41 39 35 33 32 32 30 29 31 35 36 36 36 36 37
22 20 20 18 18 11 8 23 10 26 24 24 24 31 30 28 34 30 32 35 36 35 37 37 37 40 41 38 37 34 32 35 39 41 38 36 33 31 29 27 26 27 28 31 33 36 38 37 37
25 26 23 22 20 15 18 10 26 24 24 27 26 27 31 40 33 33 35 37 37 35 37 35 38 42 41 36 35 35 36 38 38 36 35 33 33 33 33 31 28 26 24 27 30 34 36 39 38
27 28 27 24 22 21 18 26 24 24 23 22 24 26 28 36 33 32 36 37 41 41 39 38 39 39 38 35 36 35 38 38 34 34 34 33 34 34 36 37 37 34 31 28 27 32 33 35 36
32 32 29 28 22 19 24 26 32 29 23 21 27 22 25 37 35 35 38 43 44 47 41 39 36 35 34 33 35 35 38 33 34 34 35 36 38 39 39 38 39 40 36 34 32 31 33 35 35
37 36 33 27 21 19 23 27 26 24 22 21 29 32 31 29 41 38 42 43 46 45 42 37 32 33 33 33 35 36 35 33 32 34 36 39 40 39 38 35 32 32 32 31 31 32 33 33 33
39 41 41 32 28 27 23 30 31 33 25 26 37 40 28 34 46 39 41 44 43 45 40 32 31 31 32 34 37 39 36 33 33 35 37 40 36 37 35 33 30 30 30 30 29 30 31 33 32
46 47 47 40 34 32 26 26 30 39 44 38 38 43 38 42 40 42 40 39 39 35 35 33 33 30 34 37 36 40 36 34 35 35 35 38 36 37 33 30 29 29 29 29 29 31 31 31 33
53 52 51 45 38 31 28 28 29 29 34 40 41 38 39 38 45 43 41 44 36 38 32 37 36 33 36 37 38 41 37 36 37 38 38 39 37 35 34 31 30 31 30 31 30 30 31 32 33
50 53 46 47 40 40 38 40 36 38 46 44 48 38 42 43 44 41 45 38 35 34 39 35 38 37 37 38 39 40 37 37 36 38 37 38 35 33 32 30 31 32 32 34 31 31 30 30 32
57 55 52 50 48 46 47 42 44 45 51 51 48 43 45 47 46 45 43 38 36 37 36 38 37 38 38 40 43 41 36 34 37 33 35 35 35 33 31 32 33 32 35 31 30 30 30 28 29
65 61 61 55 53 54 56 61 61 58 54 44 52 47 51 47 46 44 41 40 37 37 33 39 35 37 38 43 41 36 32 34 36 35 33 33 34 31 32 32 34 32 29 30 29 29 29 31 29
58 60 62 61 61 61 63 64 57 59 56 46 51 53 56 51 45 43 40 41 34 36 33 33 36 36 38 40 39 31 32 35 33 35 33 32 32 32 32 35 30 28 30 29 28 29 29 30 30
65 71 71 67 64 59 55 61 58 52 49 52 48 52 49 51 44 39 38 45 35 33 30 31 36 34 37 39 31 31 34 32 33 34 33 31 32 31 33 35 31 29 30 28 20 22 26 28 32
69 69 64 51 53 57 52 58 47 50 48 48 45 47 47 47 45 40 38 45 38 31 31 31 33 34 35 31 31 30 33 29 35 33 33 31 32 32 36 35 31 30 30 29 27 26 24 24 27
62 58 51 52 51 53 46 53 45 44 44 48 45 46 54 47 48 48 40 45 39 32 31 32 32 33 32 27 30 29 30 31 35 35 34 33 33 33 35 34 32 32 33 32 32 31 31 28 26
51 58 61 53 46 50 47 47 41 40 47 42 45 46 52 49 50 50 48 45 41 33 33 31 30 35 34 30 33 27 31 33 36 35 34 34 36 36 34 34 35 35 35 33 28 28 28 30 29
56 62 58 50 45 40 43 41 44 49 53 46 43 43 47 46 46 41 40 40 40 32 32 31 31 32 29 35 28 30 33 37 36 36 33 35 36 36 36 37 36 35 33 32 31 30 28 29 31
56 54 51 46 45 40 40 49 48 49 49 43 39 42 46 42 37 34 33 38 32 30 29 27 29 29 28 29 29 33 36 38 37 37 33 35 39 38 38 37 35 34 31 27 27 25 25 26 27
55 53 45 44 46 38 44 54 49 47 37 44 44 43 40 35 31 30 32 32 29 26 26 24 28 26 28 27 32 35 39 38 36 37 36 36 38 35 34 34 32 26 23 21 20 21 21 22 25
52 46 43 49 48 44 38 50 47 40 39 38 33 31 30 31 29 28 29 24 27 22 23 27 27 26 27 28 33 37 36 36 36 36 35 38 31 32 29 26 20 20 20 19 17 18 19 21 21
46 40 42 45 38 40 44 48 43 33 36 26 25 28 24 24 28 26 27 25 21 21 24 28 30 29 28 31 34 33 33 33 33 33 32 27 28 25 18 15 13 14 14 11 9 7 7 9 15
49 44 44 43 38 45 42 45 30 25 21 23 27 23 22 24 24 27 23 20 21 24 26 25 27 29 30 31 30 30 31 29 29 25 26 23 22 14 11 8 6 8 8 8 9 7 2 6 9
55 49 44 41 43 46 38 35 20 16 21 16 15 17 20 18 21 20 19 19 23 23 22 24 26 29 30 28 26 25 24 23 21 23 22 17 11 9 7 5 7 8 5 5 6 7 6 6 10
66 59 52 48 39 35 28 24 13 18 17 11 13 16 17 17 17 17 16 19 20 20 20 24 25 23 23 21 20 20 18 17 20 20 14 9 7 6 5 3 5 4 2 3 4 5 5 6 8
68 59 47 33 26 22 17 22 9 14 16 15 13 12 12 11 12 14 15 16 17 19 22 22 20 20 19 17 17 15 13 17 16 12 6 4 5 4 2 3 3 2 1 3 4 3 4 6 9
62 49 50 50 36 26 19 20 13 18 25 18 10 9 6 10 12 11 14 16 17 19 18 17 18 18 14 12 12 12 14 13 11 6 4 3 4 1 0 2 3 3 3 1 3 3 9 8 7
68 51 55 43 36 29 23 14 20 21 22 11 12 16 6 8 9 12 15 16 18 16 15 16 14 11 9 9 11 11 12 8 6 3 3 2 3 1 3 3 4 5 5 3 3 6 7 9 9
59 52 55 53 43 28 18 15 20 20 19 23 20 17 10 10 10 13 14 18 14 14 13 9 8 9 7 9 9 9 7 4 1 3 1 2 3 3 8 4 5 5 3 1 2 5 4 8 10

GFSSGP_500_spd_012.txt.gz
Wind_Speed
17 18 14 13 14 11 6 10 3 8 20 23 17 19 19 18 13 17 29 31 30 31 36 36 37 38 39 40 39 39 36 29 29 30 30 33 36 34 33 34 33 32 28 31 34 36 37 37 36
18 18 16 18 17 13 4 10 15 22 17 20 16 23 20 10 22 32 33 35 40 36 39 37 36 38 38 40 38 35 30 26 28 31 34 34 34 35 34 31 31 29 28 29 30 32 36 37 38
20 20 20 21 18 9 11 14 15 22 31 15 27 26 27 22 32 28 28 34 38 36 38 37 38 40 39 40 37 33 28 26 29 33 31 32 33 35 34 32 31 30 28 26 27 29 32 36 38
27 26 31 25 21 14 5 22 21 6 9 25 26 33 19 29 33 33 27 33 40 39 38 39 39 39 38 38 34 32 29 29 33 31 31 32 32 32 34 33 33 34 36 32 28 26 30 33 35
36 38 36 32 26 18 17 17 28 18 21 11 18 18 36 32 33 35 32 34 40 39 37 40 41 38 36 33 31 30 29 31 33 32 34 34 33 36 39 39 37 37 36 37 37 32 30 30 32
42 45 40 35 29 17 14 10 21 32 34 25 18 23 20 27 44 45 38 38 43 44 38 36 41 38 34 30 27 27 31 32 32 33 34 35 36 38 39 40 38 36 35 34 33 31 34 35 31
43 48 48 34 30 19 15 17 20 22 20 13 32 21 26 36 46 42 37 44 46 49 51 41 36 32 28 25 25 30 32 33 31 33 34 35 38 39 36 37 35 33 31 30 29 29 30 31 35
40 45 43 37 37 32 29 27 20 21 23 21 31 33 38 40 42 43 47 38 30 40 53 52 27 30 26 27 29 32 32 31 34 34 36 38 38 37 36 34 35 33 29 26 26 26 28 29 29
43 47 47 38 38 36 30 35 32 23 21 28 33 39 39 45 45 43 47 42 41 42 47 51 39 26 31 29 31 32 30 32 35 36 37 39 37 34 33 32 32 31 28 28 27 27 28 29 28
48 49 45 43 41 40 41 31 25 26 26 26 29 29 23 35 39 42 47 48 43 37 40 51 45 28 32 34 31 32 31 35 36 36 36 37 34 34 35 33 32 32 30 29 30 30 31 30 29
52 52 44 45 51 46 41 34 35 33 30 32 34 39 37 51 52 46 47 47 44 37 42 39 50 35 34 32 32 30 33 36 34 34 36 35 34 33 33 33 30 28 28 34 34 34 31 29 29
59 56 56 51 49 45 48 47 51 48 45 42 41 43 44 51 56 47 49 47 45 39 34 38 47 39 32 32 33 29 31 32 33 34 36 36 35 35 33 32 33 33 34 34 34 32 30 29 27
62 56 57 52 50 51 51 52 52 54 48 47 51 51 57 57 55 52 49 54 51 37 39 32 43 39 31 34 34 29 31 31 31 33 35 34 34 34 34 32 32 32 35 33 31 31 30 29 28
60 59 58 60 60 59 57 60 56 51 54 55 59 63 54 52 50 56 53 53 47 36 39 37 40 38 32 31 34 35 31 32 32 33 37 33 31 35 33 34 34 33 36 35 32 32 32 30 28
73 75 70 65 57 57 47 55 55 50 49 50 49 54 52 49 49 48 48 49 43 37 39 38 38 40 35 30 31 35 31 33 33 33 37 33 33 36 34 36 37 37 36 32 33 32 29 24 19
68 69 68 54 51 41 47 58 46 40 41 47 44 41 45 43 43 47 49 48 45 41 39 42 38 42 36 31 27 32 30 30 34 32 35 35 36 38 35 38 40 39 34 32 33 33 31 30 28
66 67 61 39 43 48 48 52 38 36 39 42 35 37 40 41 43 47 50 49 47 47 42 41 40 42 36 31 27 31 33 31 34 32 35 36 36 39 36 37 38 37 35 36 35 34 34 32 32
56 54 41 49 45 45 44 42 42 42 42 38 36 46 35 40 39 44 50 47 39 45 45 41 37 42 31 26 28 31 33 35 31 34 38 41 38 39 38 40 42 42 41 41 37 37 35 33 30
53 50 51 49 44 42 47 41 39 36 42 40 43 43 43 43 44 41 43 34 40 42 41 32 34 37 26 25 29 29 30 31 31 35 42 41 43 43 43 44 45 41 40 40 39 37 34 32 32
56 59 57 49 50 45 40 39 40 39 40 44 44 48 46 41 38 36 37 39 40 39 31 26 33 26 24 26 26 25 28 31 34 40 44 43 42 43 44 42 40 39 38 35 32 29 29 29 28
55 56 50 49 48 47 36 44 44 36 40 42 46 46 34 36 34 34 35 34 35 27 26 29 25 23 24 27 24 26 29 33 36 41 43 41 40 42 39 38 37 33 29 27 28 27 26 24 23
59 52 50 50 50 53 37 49 36 36 37 39 36 34 28 30 28 26 29 29 28 21 27 24 20 21 23 26 27 28 30 36 39 41 40 41 37 32 32 30 26 22 21 21 19 18 19 21 22
50 47 46 45 45 46 48 46 28 33 36 34 26 26 30 30 25 24 25 28 23 24 20 16 18 22 25 28 30 32 33 35 38 38 37 35 34 30 27 20 18 16 17 17 17 14 11 10 15
53 50 47 45 44 46 38 40 35 26 28 19 21 28 30 27 24 24 23 25 15 19 17 18 21 23 27 31 33 31 32 34 33 34 30 31 29 25 17 16 14 16 17 17 17 14 6 0 5
59 50 47 46 49 41 27 38 32 25 18 15 24 27 23 23 20 22 16 12 16 17 18 21 22 25 28 27 26 26 28 29 30 27 27 28 21 14 13 13 13 15 15 14 13 12 11 5 3
62 61 59 56 47 42 36 37 27 17 13 18 19 17 18 12 13 15 15 14 17 17 19 18 21 22 23 24 22 22 25 25 22 27 23 21 13 12 10 10 12 12 11 10 9 10 7 4 3
57 58 52 47 32 35 21 22 28 12 12 17 17 16 15 10 13 11 13 17 17 17 15 18 20 20 21 20 20 21 20 20 21 23 20 13 10 9 8 7 9 8 6 7 13 10 8 3 3
53 53 51 51 40 27 21 14 15 10 17 18 18 17 11 11 13 14 14 14 12 12 16 16 17 19 19 17 17 16 18 19 20 19 13 10 8 8 7 6 7 5 5 8 12 12 10 3 4
63 58 59 43 46 31 20 16 21 21 24 15 24 24 10 8 11 11 11 10 11 14 14 14 18 17 13 13 12 15 17 17 18 11 9 8 6 6 5 4 5 4 4 8 10 10 11 4 6
58 59 58 56 50 45 26 22 22 26 15 13 21 24 11 11 11 8 8 10 13 15 11 14 12 11 11 9 13 14 13 14 11 6 7 8 5 5 4 1 1 3 4 6 6 8 9 3 4

GFSSGP_500_spd_015.txt.gz
Wind_Speed
19 18 18 16 13 9 10 6 12 15 19 28 25 21 21 29 28 28 29 27 32 35 35 35 36 34 33 34 37 34 31 24 24 22 22 25 25 26 27 28 29 28 27 30 27 28 30 34 35
23 20 21 19 14 11 17 14 17 16 20 24 24 17 23 33 32 31 27 27 31 33 34 35 37 37 36 36 33 30 26 22 21 22 25 24 25 27 27 26 27 29 29 26 27 27 28 31 33
23 30 25 19 16 14 19 20 15 22 32 22 37 13 19 27 34 28 32 32 30 33 35 37 38 38 39 37 30 27 23 19 20 23 25 24 26 28 28 27 28 30 31 31 30 27 28 30 32
32 31 28 29 22 19 19 23 11 18 15 21 10 12 16 25 27 35 34 29 34 35 33 36 39 39 42 36 30 25 21 20 24 26 26 27 28 31 32 33 34 32 31 31 32 32 31 30 31
34 35 39 33 28 23 20 16 22 17 26 16 16 24 22 23 34 37 38 39 43 35 33 31 36 41 39 33 28 24 24 26 26 24 26 29 32 35 37 38 38 37 34 30 28 29 29 29 32
44 42 45 43 36 28 22 7 21 28 29 17 17 23 34 35 37 39 45 40 41 38 36 34 37 36 37 31 26 23 27 29 26 25 28 30 31 35 39 39 37 34 31 27 26 26 26 27 29
44 44 43 44 41 37 33 24 21 20 26 17 18 23 34 41 38 45 50 45 43 42 40 41 37 33 35 32 28 26 29 29 26 26 29 30 32 35 36 33 34 31 28 25 25 23 23 23 24
52 50 50 48 45 34 32 33 19 22 26 23 25 27 30 34 41 45 42 44 45 49 48 42 47 35 33 35 31 30 30 29 27 28 29 31 33 34 32 33 34 33 31 28 25 23 23 24 24
58 53 61 50 41 28 34 38 35 24 28 30 30 33 33 32 37 39 45 46 47 52 54 47 48 50 35 34 37 31 31 30 27 30 30 31 33 33 32 33 33 32 31 29 29 26 26 25 25
56 55 49 40 36 36 32 38 40 32 41 34 27 30 36 35 34 33 34 43 47 47 54 51 50 51 39 32 33 31 32 30 27 29 29 32 33 34 35 33 31 30 28 28 28 30 29 29 29
55 55 47 41 38 38 37 37 39 44 45 37 34 31 32 31 35 37 40 44 47 48 48 48 49 51 44 32 30 31 34 32 28 29 30 32 33 35 36 33 31 32 29 28 30 31 32 28 29
60 57 55 48 45 43 42 41 41 46 50 41 39 40 40 37 46 45 49 52 56 56 46 46 48 48 44 33 32 33 34 31 27 29 31 31 32 35 35 34 33 33 31 29 29 31 29 28 27
62 54 53 50 48 48 48 48 48 47 46 49 43 45 50 53 54 55 59 62 62 53 47 45 40 39 41 36 34 37 35 31 27 27 30 31 30 33 33 34 33 35 32 30 32 30 27 26 26
58 58 55 54 56 52 53 51 49 46 47 49 48 49 53 54 57 56 55 54 57 49 46 41 37 37 35 33 35 39 39 32 26 25 28 30 30 30 33 35 35 36 36 34 35 31 28 27 26
69 67 65 60 56 55 52 51 45 47 46 43 44 47 48 42 45 47 45 46 46 42 45 38 32 38 39 37 38 40 40 33 25 26 27 31 29 29 35 37 38 38 37 34 34 32 31 31 28
64 71 66 50 53 51 54 47 46 44 41 44 40 38 37 37 35 34 36 34 41 43 46 38 35 39 38 39 41 41 40 31 25 26 28 32 28 30 37 40 42 43 39 39 38 37 34 35 31
60 63 59 47 46 51 58 48 45 41 39 37 35 34 35 29 28 26 29 32 40 45 47 42 38 38 38 37 37 38 32 27 28 30 32 33 29 34 42 44 43 43 43 43 42 39 38 37 35
52 51 47 45 50 54 52 51 46 40 39 36 36 36 29 35 35 33 33 38 42 43 42 40 40 35 36 32 29 29 25 26 28 30 30 32 32 40 45 46 45 42 42 42 40 40 37 36 37
53 51 49 47 47 45 44 45 42 34 34 35 34 31 36 38 41 36 36 35 36 40 40 37 42 32 34 29 25 20 24 26 27 29 31 32 37 43 47 45 45 44 40 42 40 36 33 30 32
57 52 45 46 47 42 37 42 38 37 28 29 35 34 41 39 39 33 33 38 39 42 39 39 36 29 30 25 24 19 23 24 25 28 34 36 40 45 45 45 42 40 38 33 30 28 29 28 25
55 54 48 47 49 41 43 52 46 32 25 31 33 39 40 29 26 30 34 37 37 39 37 29 23 28 25 24 20 20 24 25 28 30 34 39 41 42 41 39 39 36 28 25 25 25 24 26 24
57 54 54 53 51 48 45 53 39 28 30 29 35 30 32 26 26 31 30 33 35 32 25 18 24 21 22 17 18 22 25 27 29 32 36 38 37 37 35 36 30 24 22 22 24 24 24 17 18
54 55 54 54 53 50 49 48 24 30 24 31 23 24 24 28 28 25 25 26 26 25 17 19 16 19 17 18 19 24 27 28 30 34 33 34 34 32 32 27 21 21 20 21 23 23 23 14 12
56 57 54 51 50 53 39 44 24 22 28 21 21 22 25 25 23 22 19 18 19 15 15 14 18 18 18 19 24 27 28 27 30 28 31 31 29 29 26 21 19 18 18 19 19 19 17 8 5
56 56 55 56 54 45 35 43 33 19 23 17 19 23 22 20 15 18 13 10 11 11 14 18 19 17 19 24 26 26 22 26 26 29 27 27 27 25 18 18 17 16 15 13 16 17 15 9 4
57 59 61 58 54 43 39 48 18 19 16 10 18 16 21 14 13 11 7 6 9 13 15 16 15 17 21 21 20 19 23 24 26 24 23 25 23 17 16 14 13 11 11 11 17 15 12 7 5
51 61 49 55 51 49 43 36 27 22 10 17 14 14 16 14 13 14 11 9 12 15 15 14 15 18 18 15 16 20 21 23 23 21 23 22 18 15 15 12 10 9 7 11 14 15 13 5 3
56 50 55 55 54 52 43 33 18 12 10 16 9 14 11 15 14 15 13 11 12 11 11 13 15 14 15 15 17 18 18 19 20 20 20 16 14 13 14 11 6 6 6 9 13 13 12 5 4
58 52 59 55 53 48 40 21 11 14 19 18 18 18 16 15 13 14 13 11 6 9 10 12 12 13 13 12 16 15 16 17 16 15 15 13 12 11 11 8 4 3 6 10 15 11 11 7 4
64 60 55 59 53 47 33 28 22 31 17 20 21 17 11 12 13 11 11 6 5 7 7 8 11 9 11 13 11 14 14 13 13 12 12 11 9 9 7 4 2 3 7 11 13 8 6 3 4

GFSSGP_500_spd_018.txt.gz
Wind_Speed
21 20 21 20 18 14 15 19 20 18 17 19 20 29 28 27 27 25 23 22 25 28 30 34 34 32 37 34 32 30 26 22 18 17 17 19 21 20 22 24 24 25 26 28 28 27 26 26 27
25 23 22 21 19 17 16 18 18 21 23 25 31 33 34 31 30 24 23 23 26 25 28 33 34 34 37 34 33 29 22 19 16 17 19 20 20 19 21 23 24 26 29 30 32 30 30 29 28
30 26 26 24 21 19 21 23 24 23 27 31 30 32 37 29 25 17 26 27 22 31 31 32 32 34 35 35 33 28 21 17 18 21 24 22 21 21 23 25 25 28 31 30 31 33 32 31 29
32 31 27 25 20 24 18 21 25 31 26 25 17 33 38 29 19 23 25 32 31 31 32 29 32 32 34 34 34 31 26 25 26 27 26 25 25 25 27 30 31 33 31 28 27 29 29 30 30
35 33 31 26 28 26 19 29 28 32 32 21 19 20 18 21 20 23 30 36 32 35 32 28 26 29 34 33 33 31 30 29 31 31 28 28 27 28 31 34 34 29 24 23 22 23 24 24 26
41 39 34 35 31 33 24 31 32 23 13 8 21 17 15 23 25 25 34 42 34 35 25 25 26 28 32 35 33 31 31 32 34 33 30 29 30 31 33 35 32 27 25 23 23 21 22 22 22
44 46 43 42 39 38 29 39 31 27 9 10 14 22 24 23 33 39 42 42 39 34 28 28 29 29 27 37 34 30 31 30 32 32 32 30 30 30 33 33 32 30 28 25 24 24 22 21 20
47 51 49 47 44 43 29 40 34 36 22 14 17 25 28 34 38 41 45 43 40 34 35 39 41 44 36 33 41 30 31 31 31 33 34 31 31 32 32 31 30 30 30 27 27 25 24 25 23
52 59 56 52 51 42 35 43 33 38 33 34 26 28 33 30 35 41 45 43 41 40 44 46 48 50 47 35 37 32 32 31 31 33 32 30 30 32 32 30 30 29 28 27 27 25 26 27 29
58 62 60 47 45 47 45 48 31 45 45 41 38 36 40 33 35 37 43 45 39 39 50 54 51 53 51 43 38 29 32 33 33 34 31 30 29 31 32 30 30 29 29 28 28 28 29 30 29
63 66 58 53 51 43 42 41 37 33 41 44 45 42 38 33 37 31 35 41 45 52 52 53 56 58 53 41 39 30 31 33 34 36 33 29 29 30 32 31 31 29 29 28 28 29 30 31 29
64 64 62 61 55 51 48 42 42 39 37 38 46 44 44 46 40 45 48 51 52 52 53 57 60 54 48 35 36 30 32 34 35 35 30 27 28 29 30 32 32 31 32 31 29 30 32 33 28
66 61 66 65 62 56 51 48 46 43 41 41 42 44 46 44 49 49 49 52 54 55 57 59 54 48 43 33 31 28 33 36 36 35 28 25 26 28 31 32 33 34 36 33 32 32 31 30 27
74 75 71 69 63 59 56 51 47 47 42 37 43 44 43 43 47 49 50 53 55 55 54 53 52 44 32 32 30 31 37 39 38 33 25 24 26 29 31 32 33 37 41 38 36 33 33 31 30
69 70 67 60 59 57 52 54 49 40 38 39 43 42 43 45 45 44 47 49 47 48 50 47 45 36 31 32 33 35 37 39 40 33 25 22 24 29 34 32 36 40 41 42 40 39 36 34 33
63 65 64 50 53 56 55 53 43 41 43 44 44 44 43 41 39 37 38 40 42 35 33 35 40 37 33 37 34 37 39 37 40 31 22 22 24 30 29 35 41 41 42 44 43 40 40 37 33
67 63 59 45 49 54 57 52 44 38 40 42 41 39 37 35 34 34 35 34 31 34 36 38 38 36 40 43 40 38 36 36 36 29 22 24 23 30 32 34 39 41 45 46 44 40 37 37 35
59 57 52 53 50 48 49 47 44 41 42 41 41 40 37 31 34 33 32 27 29 33 34 35 38 39 39 38 36 38 32 37 35 28 25 23 26 30 33 36 38 43 45 43 41 38 34 31 31
55 58 55 51 49 46 45 46 44 42 42 42 40 36 32 36 37 29 30 30 31 34 35 38 40 40 41 36 33 34 31 35 34 26 26 25 28 31 35 38 42 43 41 40 35 29 28 27 29
57 57 52 51 51 48 46 43 48 42 40 33 28 30 33 33 29 28 29 30 33 36 42 42 42 44 37 32 30 30 31 33 29 25 27 27 30 33 38 41 41 39 39 34 29 26 27 28 28
58 56 53 52 49 47 49 48 45 35 35 28 31 33 32 29 28 25 29 33 36 38 42 39 37 39 33 27 23 28 31 30 26 26 25 31 32 35 37 39 36 38 34 28 26 27 27 27 27
60 58 56 54 51 50 47 45 39 34 35 30 30 29 25 25 23 28 33 34 35 36 38 34 26 23 27 22 23 29 25 23 25 25 29 34 34 35 34 34 35 31 26 24 23 24 25 26 20
56 60 60 58 55 55 49 47 25 33 30 25 25 25 20 24 26 25 22 23 25 26 25 25 19 22 20 20 25 23 21 22 26 29 34 32 31 31 29 31 29 22 19 19 19 20 24 23 17
57 61 61 59 58 56 43 42 24 22 17 22 21 17 21 23 20 22 18 17 15 15 16 15 18 19 18 21 21 21 21 24 28 32 31 29 28 26 28 26 19 18 17 16 16 20 20 18 14
58 58 59 60 61 47 43 42 22 14 20 26 19 18 19 17 18 16 11 15 16 14 12 15 15 17 19 21 19 20 22 25 26 27 25 25 25 25 24 18 16 16 14 13 16 16 17 14 13
58 57 56 58 54 50 50 46 34 18 30 20 17 17 17 12 16 7 11 11 13 10 9 9 14 19 19 17 19 19 19 21 22 21 22 24 23 21 17 15 15 15 10 9 12 16 15 8 8
54 59 53 57 57 53 51 48 38 27 26 19 19 12 10 12 12 6 12 12 11 10 10 13 16 15 16 16 17 18 19 19 18 19 23 21 19 14 13 14 12 11 7 6 13 14 13 5 4
52 55 54 56 54 53 51 46 36 30 26 17 8 10 10 9 6 9 11 10 12 11 10 11 14 15 14 15 16 15 16 16 16 20 18 15 13 12 11 10 10 9 6 7 15 10 11 4 0
53 54 53 55 55 52 50 45 27 26 22 21 12 15 11 9 9 12 12 9 11 8 8 12 12 12 13 12 12 15 14 16 16 15 12 10 11 10 9 7 7 6 5 8 10 7 7 3 0
52 58 57 58 56 51 49 34 34 28 24 20 14 10 3 9 14 9 8 8 8 8 7 7 8 9 9 11 12 12 13 11 11 10 7 9 11 9 7 4 5 5 7 8 11 9 4 0 3

GFSSGP_500_spd_021.txt.gz
Wind_Speed
22 23 24 24 22 21 21 19 18 19 18 18 22 22 20 19 20 24 23 24 23 19 20 25 25 23 23 27 28 28 26 23 23 22 22 23 25 25 24 24 25 28 29 30 30 31 31 30 27
25 25 27 26 24 22 24 22 24 28 26 22 24 25 29 27 28 29 28 27 24 21 22 24 24 24 23 25 29 28 25 21 20 22 25 27 26 25 25 25 26 28 30 32 34 33 33 32 31
28 28 27 28 26 22 25 24 23 26 23 25 27 30 35 32 30 35 35 30 23 23 21 26 25 26 27 27 30 28 27 25 23 24 26 27 27 25 27 26 28 29 32 34 31 29 27 28 29
32 31 29 29 27 27 26 24 27 30 34 34 32 35 33 33 30 38 29 33 31 25 24 25 22 23 25 28 29 31 29 27 27 28 29 28 27 26 29 31 31 30 30 30 27 24 23 22 22
38 35 36 35 29 27 29 29 31 34 37 33 34 33 29 23 19 19 33 38 35 29 25 24 22 21 23 28 32 36 35 31 29 30 30 30 31 30 32 34 33 32 28 25 25 23 23 23 23
42 41 43 37 33 32 31 34 38 40 34 35 35 32 35 28 20 29 36 35 36 29 26 24 23 20 24 31 35 39 41 37 33 33 33 31 32 33 33 34 34 34 30 25 24 22 23 23 23
44 45 45 41 36 34 40 47 49 44 37 32 31 26 26 25 25 28 35 37 34 31 26 27 22 27 34 38 36 41 41 35 29 29 31 31 33 36 34 33 33 33 31 26 24 23 22 22 21
47 48 48 45 41 38 38 47 47 43 41 41 40 43 40 34 32 34 36 36 38 36 29 29 30 39 48 41 34 38 42 37 30 30 31 34 35 37 35 32 32 30 30 26 24 24 21 22 23
49 55 53 48 43 40 47 48 39 39 42 41 41 39 38 33 34 37 40 42 42 36 31 33 36 45 48 47 48 44 37 34 28 31 32 34 37 37 37 31 31 30 29 26 25 25 23 24 26
57 60 57 48 46 46 47 45 39 37 42 45 44 44 39 33 33 40 38 40 45 41 42 40 41 49 50 49 53 45 35 32 29 31 33 35 36 38 36 31 31 30 30 28 28 26 25 26 28
62 64 56 52 51 50 51 52 47 49 46 36 42 44 44 41 42 40 39 38 46 45 46 48 50 53 53 50 55 42 35 32 28 32 34 35 36 37 34 31 31 31 32 32 32 29 27 28 29
65 64 62 56 53 55 54 52 52 53 52 39 41 46 50 47 47 43 43 42 50 47 53 52 53 55 56 53 54 38 33 30 27 33 36 39 38 37 32 30 31 32 33 33 37 34 30 30 28
66 64 65 64 60 61 62 59 59 58 52 48 41 44 44 41 45 44 44 50 50 53 56 55 56 56 57 54 50 32 28 27 30 35 37 40 40 37 30 30 30 33 33 36 40 38 33 33 31
65 66 65 66 67 63 61 57 54 53 49 51 45 47 44 40 40 43 44 43 44 50 54 56 58 55 55 50 33 30 28 29 32 35 36 38 41 33 29 28 30 34 36 41 41 38 36 36 35
74 74 76 72 69 69 65 63 55 52 51 45 41 46 42 40 41 47 43 46 46 48 51 53 51 50 41 32 32 33 31 33 35 39 39 37 39 35 32 28 33 32 38 39 40 41 38 36 35
74 74 74 69 73 72 70 59 52 49 49 43 41 42 44 48 48 46 48 46 45 50 50 44 47 39 36 37 36 34 33 36 38 37 34 34 35 35 33 28 36 39 37 42 40 40 39 38 36
72 69 66 64 60 63 61 54 48 42 46 47 47 48 46 48 50 46 46 44 45 44 41 42 42 38 40 38 37 34 35 32 36 36 31 33 34 34 32 35 37 34 40 40 39 39 40 38 33
68 68 68 68 62 59 58 55 50 45 44 48 49 46 46 46 43 42 43 40 37 36 38 39 41 43 42 42 38 33 32 28 33 36 31 33 35 34 35 38 31 35 39 39 38 39 37 34 33
61 62 63 60 59 57 59 59 51 54 47 44 41 42 41 40 40 41 37 34 35 36 39 41 45 43 41 40 37 39 31 30 34 31 32 30 33 34 36 34 31 38 37 37 37 36 33 31 32
64 61 57 55 53 51 49 55 53 49 45 41 39 38 39 40 34 32 32 33 36 33 37 41 41 40 38 33 31 34 32 33 30 29 31 32 32 34 31 31 33 35 35 35 34 30 28 28 31
63 61 57 56 53 52 51 57 51 45 43 40 40 40 37 35 32 30 32 32 31 36 36 37 39 37 34 30 28 27 30 30 25 30 32 31 29 29 33 32 35 31 32 32 28 27 27 26 27
61 60 59 59 55 53 49 54 46 39 38 38 37 34 31 26 29 27 26 30 30 34 35 38 39 37 30 27 26 26 24 25 26 33 31 29 28 32 30 31 29 30 31 26 25 24 24 25 24
58 61 60 60 57 54 50 51 28 35 34 29 26 27 27 28 24 24 25 23 28 31 36 36 32 27 23 19 20 21 22 23 29 30 27 29 30 28 27 26 28 30 24 23 22 21 24 24 21
63 64 58 58 59 59 46 47 22 28 28 26 27 30 29 20 20 21 21 24 27 30 28 27 21 18 18 18 18 19 23 26 27 26 27 27 25 25 24 26 26 22 20 20 18 17 20 22 17
61 62 60 59 60 50 49 49 24 12 26 26 28 25 20 21 18 18 21 23 20 18 21 17 15 15 17 17 19 24 25 24 24 26 28 25 23 22 25 25 20 18 17 16 14 17 18 18 12
55 58 59 61 56 49 50 46 35 16 23 22 26 20 19 18 15 19 19 17 12 11 14 12 12 14 15 18 22 23 22 23 25 24 21 20 20 22 22 18 16 14 15 14 14 18 17 14 10
53 55 50 53 56 55 50 43 40 26 24 25 22 19 16 20 18 18 15 13 11 11 14 12 13 14 17 20 21 20 20 21 19 16 16 19 19 18 15 14 13 11 10 12 14 17 15 11 8
51 53 52 55 54 54 51 48 40 31 30 22 21 15 17 17 14 16 13 8 10 11 13 14 15 16 16 16 16 17 14 13 12 13 17 16 14 11 13 12 9 7 8 11 13 13 10 8 4
46 52 56 53 53 53 51 51 41 28 33 33 26 20 21 20 18 14 9 9 8 9 11 13 14 13 13 13 12 11 11 10 14 12 12 11 7 10 9 7 6 6 7 11 12 11 8 4 2
43 49 56 57 55 53 52 49 34 35 34 22 22 20 21 17 11 10 9 8 7 8 9 12 9 9 10 9 10 10 10 12 12 9 10 6 6 10 7 4 3 6 7 10 10 11 7 3 2

GFSSGP_500_spd_024.txt.gz
Wind_Speed
26 26 25 25 26 24 25 23 21 21 20 17 16 20 17 19 20 21 19 20 21 18 18 22 21 18 18 17 21 23 24 24 26 25 24 24 25 26 26 26 27 28 29 31 33 33 32 33 32
27 28 28 28 27 25 25 24 25 23 22 21 21 26 25 20 24 26 25 25 26 24 22 24 19 20 19 18 20 22 24 25 28 27 25 24 24 24 25 26 28 30 32 34 36 37 34 31 29
29 29 31 31 29 25 28 26 24 24 26 25 25 25 25 24 27 30 31 29 30 27 24 25 20 17 17 18 21 24 26 30 31 31 29 28 25 24 23 24 28 31 32 33 36 37 34 27 23
32 32 31 32 29 29 28 28 29 27 27 25 26 28 28 29 33 27 30 34 32 26 24 26 21 18 17 20 27 34 33 33 35 33 31 30 27 25 25 25 27 29 30 32 33 34 32 28 25
36 33 33 32 31 26 34 34 33 30 30 28 31 32 33 34 34 34 33 28 26 26 28 29 22 22 19 19 29 36 35 36 36 36 34 32 30 27 26 29 30 30 29 30 30 30 29 28 26
42 43 43 35 31 34 38 38 39 36 35 32 34 35 38 36 36 41 39 31 28 28 26 26 24 23 20 21 29 38 37 38 37 36 36 35 32 30 30 30 32 32 30 28 28 28 27 25 24
43 45 43 43 39 37 40 42 42 41 40 39 41 35 36 38 32 31 30 30 33 29 27 23 20 22 24 27 35 37 37 38 38 37 35 36 34 33 32 33 33 34 32 30 26 25 25 24 23
47 47 45 45 38 43 45 44 42 40 45 43 42 41 44 45 37 38 43 44 35 34 31 26 24 29 34 35 34 37 37 37 39 39 35 35 34 33 33 34 34 34 33 31 27 23 24 25 24
51 53 49 44 38 39 46 48 44 44 50 46 45 46 44 46 44 45 44 43 37 40 38 31 30 35 40 43 44 43 46 44 37 33 34 33 32 33 34 35 36 36 33 32 28 26 25 25 27
54 56 51 45 43 40 48 48 41 49 51 53 50 41 33 40 42 43 43 43 41 41 38 37 39 42 44 47 49 46 47 48 38 33 34 32 30 32 35 36 37 37 34 32 29 27 27 27 27
59 62 53 49 48 46 46 50 51 53 54 43 35 38 36 38 41 43 41 45 49 46 44 39 41 49 50 53 53 49 48 48 35 32 33 32 33 34 36 37 39 40 36 32 30 27 29 31 29
64 63 58 51 49 48 50 52 55 55 52 47 45 44 41 45 44 45 48 46 50 46 43 43 48 50 56 56 54 55 51 44 30 29 32 33 35 38 38 37 38 38 36 32 32 29 33 33 32
68 63 63 58 55 55 54 56 57 59 57 52 50 51 52 45 45 46 46 47 46 44 40 44 52 54 55 55 55 52 50 37 29 30 29 35 35 38 37 38 35 35 34 33 31 31 33 34 34
73 70 71 71 64 62 62 60 61 59 54 52 52 50 46 48 47 44 46 45 41 41 43 50 52 53 56 57 55 47 38 31 31 32 31 35 38 38 38 37 33 35 35 35 36 35 38 36 35
81 79 78 75 70 65 63 68 67 56 52 51 49 50 51 45 45 44 48 48 41 41 47 50 49 55 56 52 48 41 38 33 33 34 36 40 31 37 37 36 35 35 37 36 39 36 37 37 35
66 83 82 73 70 67 64 67 60 58 57 52 52 55 52 46 42 42 40 45 45 46 48 49 54 58 52 49 43 41 41 37 35 28 35 35 33 37 34 36 36 38 39 37 36 38 37 36 36
69 68 70 70 76 76 73 60 62 61 61 58 55 51 50 49 45 41 43 46 48 48 50 51 53 52 48 45 42 44 42 39 36 29 28 36 37 38 34 37 37 36 42 43 35 36 36 37 37
66 68 70 71 67 74 77 64 66 58 55 52 49 46 45 46 45 46 50 49 51 52 53 48 47 46 47 43 47 47 45 41 39 30 31 36 35 35 33 36 35 36 39 37 38 36 35 36 34
68 68 67 66 67 65 64 66 60 58 51 49 44 42 42 40 42 45 47 47 46 48 42 41 45 47 47 47 49 47 43 36 33 28 33 34 34 33 35 33 35 33 33 35 34 33 35 33 31
68 68 67 64 62 61 61 65 64 59 54 50 46 44 42 40 39 42 45 41 40 42 43 45 45 45 48 47 42 38 32 31 31 30 32 32 31 35 34 35 33 36 37 32 31 32 33 31 30
72 69 65 64 62 57 56 62 58 53 51 48 46 41 39 39 41 39 41 40 40 40 41 41 42 45 44 40 33 33 30 31 31 27 29 30 30 32 36 31 35 37 31 30 31 31 30 29 29
75 70 66 64 60 58 55 64 53 45 45 42 40 37 35 40 38 33 34 36 33 34 37 38 39 39 37 36 33 28 26 24 26 28 28 26 32 32 29 33 35 30 28 30 29 27 27 26 27
73 70 67 65 60 58 56 58 41 39 42 39 35 33 38 37 33 31 32 30 28 31 34 35 33 33 34 30 23 22 22 21 24 24 23 28 31 28 29 32 27 27 29 29 24 25 24 23 26
67 67 64 63 60 64 49 52 34 31 34 36 34 34 33 30 29 25 23 23 29 29 29 28 29 30 27 23 21 22 20 21 21 22 25 27 27 28 29 25 25 27 27 24 22 23 20 25 23
63 65 61 59 63 53 48 50 27 24 35 31 30 32 33 30 22 20 21 25 26 24 21 22 22 21 20 20 20 20 19 20 23 25 25 24 26 23 23 24 26 24 21 21 20 20 18 21 19
53 60 60 64 59 48 47 44 32 33 12 11 21 30 27 23 19 19 22 22 21 17 17 17 15 19 17 16 18 18 19 22 26 24 23 22 21 19 21 23 20 19 19 18 17 16 18 18 15
46 51 46 50 56 54 50 40 36 34 32 35 22 17 25 22 19 22 18 18 15 17 18 14 11 16 16 17 16 17 20 22 22 20 18 18 16 17 19 18 17 17 17 15 12 13 17 14 12
37 45 47 50 50 53 48 44 43 37 36 27 20 18 17 18 21 19 14 13 16 19 17 14 14 17 15 15 16 18 19 17 15 15 15 16 15 16 14 14 15 15 13 10 10 12 14 11 8
26 42 48 48 49 49 48 51 49 41 38 33 35 15 19 20 18 14 11 15 17 13 13 13 12 13 14 14 15 14 13 13 12 14 14 13 14 11 9 11 11 9 10 8 9 10 10 8 5
35 33 45 51 50 50 52 54 53 43 39 27 28 28 20 18 17 16 17 17 12 10 8 8 10 11 11 9 7 10 11 12 13 14 13 12 12 7 8 9 7 7 7 7 9 10 10 6 4

GFSSGP_500_spd_027.txt.gz
Wind_Speed
26 27 27 26 26 24 25 25 24 22 20 19 18 15 12 13 16 15 16 17 17 15 15 14 17 23 20 16 13 15 20 24 28 28 27 27 28 26 27 26 25 25 26 27 29 30 30 29 28
29 30 30 29 28 28 28 27 25 23 23 23 21 21 17 17 14 20 22 22 19 18 20 17 16 20 21 18 14 15 23 28 30 32 31 30 28 28 27 25 25 26 27 29 31 31 32 31 29
30 32 33 33 30 29 32 30 27 27 26 25 23 22 21 15 17 22 26 31 21 18 25 23 18 23 22 19 16 17 27 32 32 32 31 30 28 27 26 27 26 25 26 27 30 32 34 32 29
32 34 35 34 29 31 32 30 28 28 29 28 24 25 23 20 21 24 28 31 25 27 28 21 20 24 24 21 20 19 28 36 36 35 34 33 30 29 28 27 26 25 24 27 28 32 33 32 30
35 37 35 32 32 33 34 33 30 30 31 29 26 24 26 24 23 27 32 33 33 29 27 21 19 24 22 23 21 25 33 36 37 38 37 37 35 31 29 29 29 29 28 28 28 31 31 30 28
39 41 37 32 34 37 36 35 35 34 32 32 30 28 28 28 28 31 35 37 34 25 29 23 22 23 20 16 17 23 29 35 38 39 38 37 37 37 34 32 31 30 31 30 30 32 30 28 26
40 43 42 38 38 39 37 39 39 37 36 35 34 31 32 33 34 35 37 41 37 31 34 31 24 26 24 27 23 27 32 34 36 40 40 38 35 34 35 31 30 29 29 29 30 30 29 27 26
45 47 46 44 41 43 46 43 40 39 40 39 38 37 37 35 35 35 42 41 40 40 38 30 25 28 29 26 28 32 33 37 37 39 42 36 33 32 33 34 31 31 31 31 32 31 31 27 25
47 51 51 48 48 47 47 45 43 45 47 45 41 40 42 39 41 40 44 40 40 38 38 35 35 36 36 35 37 39 39 38 45 44 43 38 32 31 33 33 33 33 33 33 33 33 31 30 26
50 55 49 44 46 46 43 48 48 50 47 46 43 44 43 47 43 44 35 30 33 38 39 39 41 43 41 37 40 46 45 44 44 45 43 38 31 32 33 34 34 36 37 34 33 34 33 29 26
54 59 49 47 49 48 52 52 53 53 50 47 46 48 48 49 46 37 38 39 39 41 41 43 42 45 44 41 44 46 47 45 45 45 40 34 29 32 33 35 34 36 36 35 35 34 31 27 26
59 57 53 50 54 53 54 55 55 53 49 46 44 50 46 43 39 41 45 45 46 42 39 40 43 44 43 43 44 46 50 48 46 46 39 32 28 30 32 34 36 37 38 32 36 34 33 28 30
67 62 60 57 60 57 55 56 53 54 55 50 49 49 45 41 41 44 48 44 44 44 39 40 44 43 43 47 48 49 50 50 46 42 37 32 32 34 35 34 35 36 44 32 34 37 36 32 34
63 62 69 68 66 65 63 60 61 56 55 57 55 53 48 46 46 48 43 45 46 46 42 41 43 45 46 49 50 50 48 48 43 40 36 33 35 36 39 32 34 37 44 31 35 39 34 34 35
63 71 74 68 73 69 67 70 70 62 58 55 52 50 48 49 49 46 45 48 43 43 46 44 47 49 54 50 51 53 51 48 40 40 40 37 37 33 35 32 38 35 41 39 39 33 34 39 33
64 67 69 66 66 72 74 74 64 67 64 61 57 53 54 53 52 51 48 46 47 44 46 48 51 55 57 49 52 52 52 47 43 41 42 38 34 35 35 35 35 34 37 40 36 36 39 36 35
67 65 66 63 68 70 76 72 70 67 66 62 58 57 56 55 51 51 51 49 47 47 46 46 48 50 53 52 54 54 51 44 45 46 43 39 34 35 34 36 35 35 37 38 35 35 34 36 36
64 68 68 68 66 67 66 65 73 71 68 67 65 60 55 51 48 45 45 45 48 49 47 48 49 51 55 54 54 50 44 45 45 46 43 38 33 35 36 37 36 33 36 37 36 34 34 34 35
70 69 70 69 66 66 63 62 59 67 64 60 59 55 51 46 45 43 42 42 45 47 48 50 52 54 52 51 49 47 45 45 47 48 43 35 38 34 36 36 35 33 35 36 35 37 35 34 36
72 74 71 68 67 66 64 61 59 60 56 53 54 50 46 42 40 40 41 42 43 44 46 48 49 50 48 47 48 44 44 44 42 40 35 35 36 35 35 33 34 33 34 31 38 37 33 34 34
76 76 73 70 67 66 64 65 60 55 56 52 49 45 43 40 39 41 43 44 44 42 40 45 49 48 46 42 41 43 44 37 35 32 31 33 33 32 31 32 32 35 31 36 38 33 33 33 30
78 77 75 73 71 66 62 69 62 51 50 48 45 43 39 38 40 42 43 42 43 43 44 39 40 38 35 37 41 42 34 28 27 28 31 29 27 27 29 29 31 33 36 38 34 31 31 29 29
73 77 76 75 73 68 62 66 51 47 46 42 35 33 36 37 38 41 42 42 41 37 33 28 29 33 34 35 39 29 24 23 24 24 24 22 23 27 29 29 29 32 35 34 31 31 28 27 26
58 71 72 74 73 73 62 62 47 40 37 36 38 37 37 37 41 40 39 35 28 25 25 28 29 30 32 33 26 23 23 23 24 24 21 23 25 24 26 30 33 32 31 30 30 26 26 27 22
46 55 68 69 73 66 62 61 38 32 38 37 39 37 37 39 38 31 24 23 21 25 26 26 27 29 27 26 22 20 23 24 24 22 23 23 24 26 29 30 28 28 28 27 24 25 25 22 23
30 45 56 59 66 62 63 55 38 30 15 30 39 34 42 38 31 23 21 21 23 22 23 25 24 21 23 20 19 20 21 22 22 20 23 25 27 27 25 24 25 25 25 22 22 21 21 19 20
23 37 44 46 59 61 61 46 42 40 30 15 26 32 34 31 24 22 22 23 19 19 22 22 20 20 17 16 19 20 19 20 18 21 25 27 23 21 21 22 23 24 21 20 18 18 16 17 16
21 27 36 44 50 59 52 47 47 45 38 41 38 23 15 22 22 24 23 21 17 17 19 20 21 19 18 17 18 17 17 18 19 21 21 20 21 21 20 19 21 19 17 16 15 13 14 15 13
26 25 34 40 47 52 54 48 49 47 40 39 26 23 20 22 26 23 20 18 16 17 17 20 18 18 15 13 14 16 17 17 17 17 18 19 19 17 16 16 18 14 13 12 13 14 12 11 9
25 22 26 41 43 51 53 50 51 46 41 27 41 25 20 22 22 17 17 16 15 16 17 15 15 12 11 11 12 12 13 16 16 17 17 17 16 15 15 16 12 11 11 12 12 12 10 10 8

GFSSGP_500_spd_030.txt.gz
Wind_Speed
29 29 29 31 30 27 27 27 27 25 23 22 19 16 14 14 10 10 9 9 12 13 14 15 16 15 18 22 23 23 23 20 27 33 32 31 29 26 25 23 23 24 26 26 25 24 23 22 23
31 31 33 33 31 28 27 29 28 28 26 25 22 21 17 13 11 9 10 11 16 16 15 16 23 20 17 23 22 22 23 23 28 34 33 32 33 32 28 25 24 26 28 28 29 28 26 26 25
33 34 36 36 34 31 20 32 33 30 28 28 26 23 18 13 14 14 15 15 18 20 21 25 25 20 19 23 24 23 23 24 29 35 35 33 33 34 33 30 28 26 27 29 29 30 30 30 29
35 37 38 37 33 31 35 35 35 33 31 31 28 23 20 17 19 18 19 17 21 23 27 25 25 20 19 26 27 25 23 24 29 35 36 36 35 34 33 31 30 30 29 29 30 30 31 31 32
37 38 39 38 35 34 37 39 38 35 34 31 26 25 24 22 21 22 23 21 20 22 23 25 22 25 21 27 26 24 23 25 29 35 37 39 39 38 34 32 31 29 27 27 26 26 27 28 30
40 41 41 39 36 34 40 40 41 38 36 34 28 27 29 27 25 27 27 24 24 24 31 23 24 29 29 28 27 24 25 28 34 35 36 39 40 38 36 33 32 31 29 27 25 25 27 26 28
42 42 42 41 40 41 41 41 41 38 37 36 33 28 31 30 30 30 30 28 25 30 28 27 26 24 24 27 27 28 28 30 33 35 35 38 38 39 36 33 32 31 31 30 28 29 28 29 29
42 46 44 44 42 41 46 43 43 43 38 44 33 35 35 34 33 33 32 30 32 36 33 28 27 28 28 32 34 32 31 34 34 35 34 37 38 38 34 30 30 31 32 33 32 32 31 31 30
43 49 49 43 43 42 45 45 46 46 48 42 40 40 40 40 35 37 34 33 34 31 27 29 30 32 33 36 38 36 37 36 36 35 36 39 41 40 37 33 31 31 33 35 35 34 33 31 28
50 52 49 42 47 42 46 48 48 48 49 45 44 40 39 42 39 38 36 36 39 33 34 38 38 36 37 37 38 38 38 39 37 39 39 40 40 40 37 33 33 29 29 33 37 39 35 32 28
60 62 50 47 47 46 47 51 50 50 54 50 44 44 45 44 42 39 36 41 40 33 35 37 39 40 41 37 40 41 40 40 41 40 39 40 39 41 36 31 35 35 40 40 33 43 37 30 31
62 60 59 51 53 51 51 54 57 57 54 50 53 48 48 46 46 42 43 43 36 37 38 39 42 41 39 41 42 41 41 42 43 42 41 41 38 41 35 32 34 38 32 37 40 39 43 35 32
62 61 60 58 60 56 53 58 57 59 58 57 56 57 54 53 50 48 47 44 40 37 38 42 45 43 44 42 44 43 44 44 43 45 43 41 39 37 33 36 36 42 39 41 43 42 39 29 34
51 58 66 67 65 62 59 60 59 59 59 60 61 57 55 51 51 51 47 41 41 41 40 42 45 48 46 46 45 47 47 46 45 45 43 42 39 36 34 38 35 37 36 44 36 39 39 34 31
55 59 60 63 67 66 62 66 69 58 60 65 62 61 60 56 53 50 45 47 41 43 44 46 46 49 49 48 47 50 52 49 48 46 44 43 39 38 37 37 35 37 38 42 42 38 38 33 32
58 61 62 57 59 62 75 73 66 64 64 65 62 62 61 58 55 55 50 46 46 46 47 49 50 51 50 50 50 51 53 50 50 46 43 40 41 39 35 36 38 38 37 42 41 38 35 33 33
63 64 63 58 60 63 73 68 62 66 72 68 67 65 63 62 57 53 51 48 47 49 49 52 54 56 53 54 51 49 52 52 51 46 41 42 43 39 40 41 38 38 40 42 42 36 35 33 33
61 66 66 66 61 67 69 65 60 69 68 76 76 74 69 68 63 57 54 49 49 52 53 53 53 54 54 56 52 51 53 50 46 44 43 44 43 43 44 43 41 40 41 42 38 35 33 37 37
69 71 71 69 67 71 69 63 59 61 62 61 75 73 68 69 66 58 55 51 51 53 54 52 50 51 53 51 51 51 49 45 45 42 42 42 46 48 47 41 38 40 40 41 36 35 35 35 36
73 76 73 72 72 71 69 68 62 59 61 59 62 64 66 69 64 64 60 53 52 52 52 50 49 46 48 51 50 46 44 45 43 43 43 44 42 43 42 40 38 41 40 35 36 29 32 38 36
76 77 75 77 76 73 71 71 66 61 59 57 56 55 49 53 52 50 49 50 49 49 49 48 45 45 45 43 41 42 42 40 41 42 41 40 40 40 38 38 33 34 34 34 31 35 36 37 35
70 74 80 81 80 76 72 73 69 64 61 57 52 47 43 42 40 42 45 46 46 47 46 44 44 42 39 37 33 36 35 37 40 41 37 35 33 30 29 27 29 31 31 31 34 36 39 36 37
45 59 48 74 81 80 74 77 68 64 61 54 47 40 37 38 40 41 41 44 45 45 43 41 37 36 34 28 29 32 35 37 39 37 30 28 28 28 26 26 27 29 30 33 37 39 34 35 33
27 35 43 45 44 66 76 68 64 61 54 48 45 40 38 36 38 39 40 40 41 41 39 33 32 29 28 27 29 33 36 35 34 29 27 26 27 25 26 25 28 29 32 35 36 34 34 32 27
18 23 30 44 49 63 70 52 64 55 51 47 42 41 39 37 36 35 37 37 37 37 36 30 30 25 25 27 30 31 31 29 27 27 26 27 27 25 25 26 28 31 33 33 33 32 29 26 23
23 19 30 34 40 46 47 43 60 53 45 46 43 38 37 36 39 39 38 33 29 30 29 31 24 23 26 28 28 28 26 26 25 24 26 27 26 25 26 29 28 27 29 31 30 27 25 22 21
24 29 20 34 26 38 40 52 55 54 55 27 37 40 37 40 40 35 30 26 27 27 28 24 24 26 26 26 25 24 24 23 23 25 25 25 25 26 27 26 26 27 28 27 25 22 21 19 19
21 25 24 33 27 26 32 39 55 50 43 34 35 37 42 43 35 29 27 27 28 27 23 24 24 23 24 24 24 22 23 22 22 23 24 24 23 24 24 25 26 26 25 24 20 20 19 19 15
24 18 23 24 28 17 24 32 46 51 48 43 26 24 25 24 30 30 28 29 27 23 24 22 20 21 24 24 22 22 19 19 21 21 22 22 22 22 22 21 23 21 22 19 17 16 18 18 13
16 20 27 26 26 26 24 18 45 53 44 51 46 33 30 21 27 33 31 26 24 24 22 18 18 20 20 21 19 17 17 17 19 20 20 21 21 21 20 20 18 20 18 15 16 15 18 19 11

GFSSGP_500_spd_033.txt.gz
Wind_Speed
33 32 31 31 31 29 27 25 20 23 27 20 19 21 22 23 23 20 13 11 6 9 11 12 14 21 20 21 22 24 23 22 22 23 28 29 24 22 23 25 27 27 27 26 25 24 22 22 20
35 34 33 33 32 30 26 23 23 23 22 29 25 23 23 21 24 15 11 7 8 10 11 15 19 21 21 18 21 25 27 25 24 25 28 32 30 29 29 29 29 28 27 29 27 27 27 25 25
36 36 36 35 33 29 17 20 22 21 35 24 25 25 27 26 22 19 13 10 9 13 14 16 19 21 21 21 20 24 26 26 25 26 30 35 33 33 32 32 31 30 29 28 28 29 27 27 25
36 38 39 38 35 30 23 18 21 29 35 30 29 28 27 26 22 26 20 15 15 14 14 18 25 20 18 21 23 27 29 27 28 30 34 38 36 36 36 35 33 31 30 30 28 27 27 25 27
38 37 39 39 36 35 32 25 29 36 25 34 33 29 27 26 25 33 24 15 14 14 18 19 20 17 24 24 25 27 28 29 32 35 36 37 35 36 37 36 35 33 33 31 29 28 28 28 28
40 39 40 40 37 36 35 32 42 33 31 30 31 29 29 29 27 29 23 19 17 19 20 24 28 22 21 23 22 22 25 28 33 36 38 37 36 36 36 36 34 32 32 33 32 30 31 31 30
39 40 40 39 38 36 41 41 43 39 37 28 30 26 31 32 31 30 24 23 22 22 23 25 23 17 18 20 22 25 31 31 34 35 36 35 36 35 36 34 34 32 30 28 30 29 30 30 29
43 46 46 44 42 41 43 40 35 43 38 29 36 26 34 40 35 30 27 28 26 25 26 26 23 20 22 26 27 29 31 33 35 34 35 35 36 35 34 35 33 29 30 27 30 28 30 32 32
44 51 51 48 45 41 42 45 49 45 45 36 43 37 37 49 35 33 32 29 31 30 32 31 27 28 29 30 32 34 35 33 34 32 33 35 37 36 36 36 35 30 31 31 32 37 37 35 35
56 54 53 47 43 45 45 48 44 43 51 43 37 53 50 46 37 36 36 32 35 35 35 33 30 34 33 35 35 38 38 38 37 34 30 34 37 36 37 38 36 33 32 31 36 30 34 38 39
56 67 50 47 44 46 50 43 43 49 47 54 40 50 48 46 44 40 36 32 30 34 35 35 34 34 35 36 39 38 41 39 38 39 35 35 35 37 36 39 38 33 36 33 35 41 38 41 41
53 57 62 51 50 47 55 47 46 49 54 51 44 41 50 55 49 44 39 40 37 39 40 41 33 29 34 39 41 41 41 40 40 40 37 39 38 38 38 38 39 33 35 35 36 38 39 35 38
52 49 52 61 61 58 59 51 51 52 52 52 55 50 55 55 51 47 43 45 43 42 42 42 44 40 36 38 42 43 44 44 43 43 40 40 42 40 40 37 37 36 36 36 39 36 38 39 41
49 54 54 55 64 66 67 60 49 56 55 54 59 60 60 55 52 50 50 50 48 46 45 43 44 41 39 41 42 44 46 48 46 45 45 42 39 41 38 35 33 38 37 36 39 39 41 42 40
52 58 58 57 55 62 67 71 68 59 58 62 61 60 65 59 59 58 56 53 51 50 46 44 41 45 43 45 45 46 50 50 49 47 46 42 41 42 37 35 34 38 38 37 41 39 43 44 40
55 58 60 55 56 55 60 70 68 67 62 62 63 63 65 59 59 59 59 57 58 49 49 47 43 45 46 48 50 51 54 53 50 50 48 45 43 40 36 37 39 39 40 42 43 45 41 42 39
56 58 60 56 57 58 63 66 55 61 68 71 64 65 64 58 60 61 60 59 61 51 51 46 44 46 51 53 54 56 55 53 51 51 47 47 44 37 36 38 41 41 41 44 46 42 43 43 39
56 61 59 60 56 60 63 65 62 56 59 71 72 71 69 65 64 63 63 68 60 53 50 47 47 51 54 57 55 55 53 51 50 47 47 47 42 38 37 39 41 43 43 44 43 42 43 46 44
64 66 65 62 60 57 64 66 63 59 62 64 71 71 73 69 63 69 74 70 58 53 55 52 53 54 57 54 55 53 51 49 47 46 46 45 41 37 38 38 44 46 45 40 41 42 43 42 28
66 69 68 68 67 51 63 70 65 67 66 64 64 65 65 70 71 69 72 67 59 62 65 61 61 58 57 53 51 49 47 41 41 43 43 40 38 37 40 40 41 42 42 41 36 38 39 39 33
60 66 70 73 74 67 73 74 68 70 71 65 61 61 64 63 66 63 63 70 68 69 62 65 64 62 54 51 47 45 42 39 40 39 37 36 36 38 38 36 37 37 36 36 36 36 37 35 34
58 58 65 71 76 79 74 76 75 68 69 68 63 62 61 61 57 52 49 55 62 64 66 64 58 53 51 45 45 41 38 38 38 35 34 34 35 37 33 32 33 32 32 30 31 33 35 36 37
44 49 52 63 68 72 74 69 78 71 70 67 66 63 59 55 50 47 47 50 50 51 54 51 48 48 44 44 39 39 37 38 33 33 31 33 36 34 31 30 30 29 29 28 31 34 36 35 37
30 33 34 36 41 51 73 69 82 77 69 67 67 64 56 49 44 43 44 45 45 43 43 43 43 42 42 39 37 37 33 32 29 31 31 33 33 31 28 27 28 30 28 30 31 33 35 35 34
22 21 24 32 38 49 50 52 57 77 61 45 55 59 58 49 43 42 40 40 41 40 39 40 40 40 38 36 35 31 29 31 30 29 32 31 29 27 26 29 30 29 29 30 32 32 32 32 31
23 25 25 27 31 35 40 52 48 52 41 47 62 60 52 46 42 41 39 35 37 37 38 37 37 34 33 33 30 29 28 30 28 30 28 27 27 27 28 30 31 27 29 29 29 30 30 28 27
18 28 27 30 35 38 38 39 48 39 36 54 55 54 48 46 41 40 37 38 38 37 37 35 31 31 31 30 28 28 26 26 26 26 26 26 27 27 29 30 27 26 27 28 29 26 27 26 25
23 17 24 30 29 33 20 26 32 44 41 33 37 50 48 44 39 40 41 40 37 33 31 29 30 29 28 26 27 25 25 25 25 24 26 25 25 27 27 25 26 27 27 26 24 24 24 23 20
24 21 19 23 21 26 14 27 17 30 38 34 38 42 42 44 44 44 39 31 29 31 31 32 29 27 25 25 25 25 25 25 25 25 24 24 24 23 22 23 25 23 22 20 22 20 20 19 20
16 20 21 29 15 25 27 24 30 30 37 44 53 46 39 39 36 35 34 33 34 31 31 29 26 23 24 25 24 22 23 22 22 22 21 22 22 22 22 23 21 20 17 19 19 19 19 21 19

GFSSGP_500_spd_036.txt.gz
Wind_Speed
33 33 33 33 31 30 24 22 18 13 15 23 28 33 23 22 27 28 24 12 10 5 8 8 9 10 14 14 13 15 17 20 21 20 23 25 26 26 24 23 24 24 22 23 24 24 24 23 21
33 34 34 35 33 29 24 21 20 11 20 33 32 19 24 24 29 20 22 12 8 9 9 9 9 13 13 12 14 14 17 21 24 24 25 28 29 30 30 28 28 27 25 23 23 22 24 24 23
33 35 37 36 35 27 25 8 12 17 28 33 32 26 26 25 32 31 21 12 12 12 12 10 13 15 15 16 17 17 19 23 23 26 27 29 32 32 32 32 31 30 29 26 25 25 26 25 22
36 36 38 37 34 29 22 20 12 31 33 33 24 28 31 36 37 21 21 16 14 19 20 13 14 19 17 17 16 19 20 22 24 28 27 32 34 35 36 35 33 30 28 27 27 27 25 25 26
40 39 39 39 35 30 29 27 8 17 30 30 33 31 31 33 38 27 24 18 20 23 17 14 16 22 18 15 16 17 18 23 28 31 32 33 34 34 36 35 34 31 30 30 29 30 29 29 27
38 40 41 40 35 34 34 27 16 30 17 23 19 29 32 30 36 31 28 24 25 23 18 17 16 18 14 12 14 17 19 24 28 32 34 35 34 32 35 35 34 32 31 30 28 30 27 28 29
40 40 43 39 37 35 35 35 25 30 38 23 15 27 27 42 37 35 31 29 25 23 20 21 20 17 17 15 20 21 23 26 30 31 32 33 33 32 35 35 35 32 29 27 28 27 28 27 31
41 43 47 43 40 39 30 26 27 26 32 35 27 34 29 36 37 31 31 31 29 25 24 25 24 23 24 21 24 26 27 30 32 32 32 31 30 30 34 36 35 33 31 27 28 27 27 29 33
48 48 51 47 44 40 36 32 29 29 25 25 26 34 41 24 36 39 33 35 34 33 27 26 27 26 26 26 29 29 29 32 35 35 33 31 30 29 31 33 36 36 32 28 27 27 30 32 33
57 56 53 43 43 43 44 39 34 35 37 35 27 40 48 49 30 19 29 28 34 36 34 30 27 29 28 29 29 29 32 33 35 37 36 34 32 31 33 33 36 38 32 30 28 29 31 30 32
49 57 54 51 45 41 40 47 37 43 43 35 31 39 38 45 45 44 22 32 38 32 37 35 19 27 31 33 31 32 33 33 35 36 37 38 36 34 32 34 36 39 34 29 30 32 34 31 32
49 43 43 58 54 52 49 44 47 49 42 42 31 41 40 41 50 50 43 41 36 41 26 25 34 37 36 37 34 33 30 34 35 37 38 38 37 34 33 37 37 37 33 31 31 32 35 33 34
45 42 46 49 53 61 60 53 56 55 43 46 43 37 39 50 44 49 45 44 44 42 43 45 46 41 39 43 40 36 33 34 37 39 42 42 40 36 35 40 40 36 31 30 32 33 37 34 35
45 47 48 49 53 55 67 64 57 57 50 49 55 50 41 45 48 51 60 58 51 50 48 43 48 50 40 44 42 38 39 42 42 41 45 46 43 36 36 39 40 36 28 30 31 33 40 43 43
46 50 51 52 51 53 54 61 72 61 55 52 55 55 56 44 50 52 38 41 47 47 48 48 51 53 44 40 40 41 42 45 48 49 50 49 43 36 37 39 39 34 33 32 32 34 38 44 42
49 51 52 44 51 50 54 60 51 52 64 59 58 56 55 66 61 61 66 57 61 53 55 56 57 49 47 44 41 39 45 49 50 50 52 50 43 35 38 39 38 35 35 36 37 37 40 45 48
50 52 53 52 51 52 54 58 55 51 54 66 66 63 62 60 61 62 64 57 58 60 56 58 49 46 50 48 45 40 44 49 50 52 49 48 43 36 37 39 36 35 35 36 39 40 42 42 42
52 55 55 55 48 52 56 59 55 51 56 57 60 70 67 66 68 64 69 63 59 63 62 55 45 46 46 52 48 44 47 49 52 52 46 47 41 36 36 37 35 36 37 37 39 41 41 39 37
56 57 60 58 58 43 37 42 58 56 57 57 57 57 67 77 72 67 69 61 59 68 70 50 46 45 46 54 50 50 52 55 55 51 42 43 40 35 35 34 35 35 36 34 36 38 38 39 39
56 60 60 62 62 59 62 57 61 60 61 58 58 58 60 58 58 68 69 62 66 70 67 50 50 50 50 55 54 55 58 59 56 50 44 42 40 34 33 31 32 33 33 31 33 34 36 37 36
58 60 62 65 66 68 67 69 67 61 62 64 64 62 58 58 59 57 63 70 72 73 65 56 59 59 57 58 59 56 59 60 54 52 43 40 39 35 31 30 31 32 30 30 30 31 33 34 34
54 51 58 63 67 70 66 72 70 66 66 66 62 61 63 59 59 59 60 56 60 62 64 60 61 62 62 62 59 57 57 53 51 49 40 40 36 30 29 29 31 30 29 29 28 29 31 34 32
42 38 44 53 58 62 68 66 71 66 68 69 68 66 64 60 57 56 57 52 53 52 54 55 54 50 50 54 54 55 51 49 48 44 41 32 30 28 30 28 30 29 28 29 28 31 31 32 32
32 41 42 39 39 46 67 52 73 70 71 71 59 41 66 67 60 57 52 50 52 51 51 49 45 45 43 42 44 44 46 46 43 39 32 31 30 29 26 28 28 28 28 30 30 30 30 28 29
18 25 31 32 30 39 48 37 58 67 67 58 52 57 56 64 60 54 54 51 47 45 43 42 40 39 39 40 40 42 42 39 40 33 31 31 29 27 26 26 27 28 29 30 30 28 27 26 28
26 25 30 29 30 34 30 38 46 53 54 60 59 49 53 61 62 55 50 46 44 42 40 40 41 39 39 37 39 38 35 36 34 30 29 28 26 25 25 27 29 28 28 29 28 27 26 27 30
10 22 19 30 37 37 36 40 44 47 52 61 51 35 43 49 63 54 44 48 45 41 36 37 38 38 38 35 36 32 33 32 29 28 26 25 23 23 27 28 26 27 27 25 27 26 26 25 26
20 18 25 29 35 37 33 21 29 26 31 44 46 35 35 59 57 53 48 44 42 40 37 35 36 35 34 34 32 29 29 27 26 25 23 22 23 26 26 24 25 24 23 24 24 20 22 24 23
20 27 30 32 31 29 24 21 17 28 23 34 43 23 46 59 54 47 45 43 42 40 39 38 37 33 32 31 27 26 25 25 24 23 22 24 25 23 23 22 22 22 22 21 21 18 22 21 22
25 22 23 21 19 24 30 24 16 21 34 35 22 36 43 56 54 46 42 39 38 42 40 39 33 31 31 28 24 23 22 24 23 21 21 21 20 20 21 22 21 21 20 20 19 20 20 20 19

GFSSGP_500_spd_039.txt.gz
Wind_Speed
35 36 35 37 34 30 24 17 17 15 12 3 17 20 28 35 37 37 28 12 9 9 7 8 6 6 12 13 10 12 11 11 13 15 16 18 19 22 23 24 24 23 23 22 21 20 20 21 22
36 37 37 38 34 30 24 21 14 13 9 7 20 30 34 37 36 32 16 11 8 9 10 9 9 9 8 12 10 12 12 12 17 17 19 18 23 24 24 25 26 24 23 21 19 19 21 21 20
36 38 37 39 36 28 25 24 27 23 14 16 30 38 39 43 37 28 21 15 9 10 13 14 15 11 11 11 9 10 13 13 15 18 22 23 26 24 26 26 28 26 26 24 21 22 23 21 19
34 37 39 39 35 33 26 28 29 16 13 22 35 36 37 44 31 30 27 19 15 16 18 18 16 13 14 13 9 7 7 10 15 19 23 25 26 27 27 28 29 27 26 25 24 25 25 21 19
39 38 41 40 36 33 27 27 20 24 17 25 39 39 37 41 32 29 20 21 23 19 22 24 19 16 13 12 8 5 7 13 18 23 25 26 28 29 27 28 27 26 26 25 25 24 23 24 23
49 43 41 43 35 32 29 35 34 33 5 17 23 24 33 37 36 32 31 29 30 25 26 28 23 19 15 11 8 8 13 18 21 25 28 28 29 28 27 27 27 26 28 26 23 23 23 22 25
42 56 47 42 41 38 37 36 33 30 21 23 26 19 26 31 34 35 35 33 34 32 31 32 25 22 20 16 15 13 15 20 24 27 29 26 27 27 27 28 29 28 28 26 24 22 22 23 23
46 49 56 49 40 40 35 44 38 29 26 35 22 17 33 34 34 39 38 35 37 36 33 31 26 24 22 20 19 19 23 21 26 28 30 28 27 28 27 28 28 29 29 29 24 22 22 25 22
49 54 59 49 50 38 36 46 47 33 35 37 23 30 31 33 39 42 41 40 39 35 33 29 27 25 24 21 20 21 23 23 28 29 29 29 30 30 29 28 28 30 31 30 26 23 23 24 23
58 57 51 48 44 49 38 42 49 47 39 37 39 30 41 40 49 48 34 30 44 38 34 31 31 29 28 20 20 23 27 27 28 29 28 29 33 33 33 31 29 30 31 32 27 25 24 25 24
45 47 54 51 47 42 37 42 48 55 56 42 40 44 44 48 52 47 34 33 24 39 41 36 31 31 25 18 21 24 26 28 30 29 31 32 34 37 36 32 30 31 33 32 28 28 26 26 29
43 41 42 51 58 55 49 45 51 51 57 54 41 42 43 39 38 39 38 38 50 38 36 31 24 24 14 31 24 27 30 30 31 31 31 33 36 38 39 34 31 31 32 31 28 30 29 27 31
43 41 45 45 49 50 60 55 48 53 51 52 45 45 43 32 45 45 41 45 52 52 47 36 32 24 33 35 31 30 31 29 32 32 33 35 37 39 39 36 31 29 31 29 29 30 28 28 32
43 47 47 46 47 48 51 58 60 56 50 60 50 49 50 48 36 48 43 45 45 43 44 50 49 44 38 38 35 36 36 33 32 32 35 37 39 41 38 37 33 30 30 29 31 30 28 29 32
43 47 48 46 47 46 50 56 57 60 60 61 50 53 58 52 58 45 53 53 46 49 51 53 54 53 41 38 41 42 40 36 35 34 36 38 40 41 37 37 33 32 31 30 31 30 29 30 35
45 47 47 43 44 47 47 52 47 48 50 65 63 49 57 59 61 59 57 50 49 63 59 57 50 48 49 43 43 47 44 41 36 37 38 38 42 43 39 38 34 33 33 32 30 30 30 30 36
47 48 49 46 46 49 48 51 46 45 49 52 52 62 56 59 59 61 59 63 62 39 48 43 50 55 55 49 47 44 44 41 37 42 43 42 44 44 40 38 36 34 33 32 30 29 29 26 28
47 49 51 49 48 49 47 52 48 47 50 52 51 52 64 63 63 57 61 62 61 66 65 58 58 63 58 51 45 43 42 39 41 45 44 46 50 51 42 41 41 38 31 30 31 29 26 25 28
49 51 54 52 56 59 58 59 54 56 55 54 54 55 57 55 69 58 65 65 65 67 69 65 64 64 57 51 46 44 43 42 45 46 47 46 51 53 45 44 43 38 30 29 30 26 26 26 28
50 53 54 55 57 60 59 62 58 58 59 60 59 56 58 58 55 67 70 63 66 66 70 70 68 61 53 47 42 46 47 51 49 48 48 46 49 50 46 44 44 34 31 29 27 26 26 27 29
49 52 56 59 58 61 63 65 61 57 59 59 57 59 58 57 56 55 56 59 70 71 72 72 67 66 57 44 43 46 53 54 54 50 51 50 50 46 46 44 37 32 30 28 25 26 26 27 29
49 45 50 54 57 61 57 68 63 57 60 60 60 61 59 58 59 55 55 54 54 53 55 56 61 59 49 46 49 52 52 54 48 50 52 49 43 43 43 37 33 32 28 26 26 27 28 28 29
50 50 52 57 61 62 62 68 63 61 64 62 62 64 61 59 55 52 52 51 51 50 51 47 44 45 44 42 40 44 46 44 44 46 47 39 38 41 38 34 33 31 26 27 26 28 28 27 28
37 43 49 50 53 60 62 59 67 65 63 62 66 66 64 61 58 56 54 48 44 45 48 46 44 43 41 38 36 38 41 39 38 39 37 34 36 37 33 33 32 28 26 27 27 27 27 28 26
31 27 29 36 43 55 47 43 62 62 61 61 63 66 66 63 63 60 58 53 47 49 50 43 41 40 39 38 37 37 37 38 38 36 33 32 34 31 32 31 28 26 28 26 26 25 25 26 26
25 28 28 20 26 29 31 40 52 54 59 66 63 63 60 64 61 60 56 53 49 45 47 46 41 34 33 37 37 37 38 38 38 31 30 33 30 30 30 27 25 26 25 24 24 23 25 26 26
13 16 16 23 24 28 24 26 32 26 39 46 57 61 55 54 61 62 59 50 48 41 42 42 40 37 37 39 40 38 39 38 32 28 30 28 28 29 25 24 24 25 23 23 20 22 24 21 23
26 21 22 24 30 36 32 25 23 26 34 40 49 47 50 55 59 59 56 52 44 40 38 40 40 35 36 36 35 37 36 34 28 28 27 27 26 24 22 24 22 22 21 20 21 23 21 21 21
27 23 31 31 34 34 37 29 27 27 33 33 44 47 42 48 55 53 54 53 41 38 39 35 34 38 38 37 34 33 33 27 26 26 26 25 23 20 20 20 20 21 21 21 22 20 20 20 20
24 30 29 34 33 28 31 29 23 31 33 30 30 41 50 55 55 57 50 43 38 39 40 38 39 42 40 36 32 29 25 24 25 24 23 20 19 16 17 19 20 20 20 20 20 19 20 19 19

GFSSGP_500_spd_042.txt.gz
Wind_Speed
43 41 39 38 35 30 22 19 21 17 22 26 25 25 20 17 19 25 27 14 11 10 8 4 4 6 7 9 11 13 11 10 9 12 13 12 12 15 16 18 19 20 18 17 17 16 16 17 17
42 42 42 39 36 30 26 24 19 24 23 26 22 24 18 19 24 30 35 19 17 11 7 8 8 9 12 10 12 12 12 12 9 9 12 14 15 16 17 18 19 19 19 18 16 17 17 19 18
36 38 43 44 38 31 27 26 32 27 22 16 20 15 21 26 26 31 36 33 17 8 9 11 10 13 12 14 13 11 9 10 9 12 15 17 17 17 17 18 20 21 19 20 18 16 16 18 18
29 32 42 43 36 34 30 33 34 33 31 24 21 17 25 29 33 35 35 32 28 15 14 15 15 14 16 15 12 7 5 6 11 15 19 21 21 20 19 17 19 19 20 20 19 19 19 19 19
41 32 37 40 35 33 32 33 37 37 32 25 21 20 27 32 37 39 37 35 25 23 20 18 18 19 18 15 12 9 5 9 13 16 20 23 23 22 22 19 20 20 20 21 20 18 19 20 21
43 50 43 32 33 35 32 39 46 36 38 27 27 26 34 37 39 40 37 31 26 23 22 22 23 23 23 19 14 9 12 13 14 18 22 23 22 23 24 23 23 22 22 22 21 19 18 19 19
54 43 50 45 33 38 29 42 44 37 38 34 36 29 36 41 40 41 34 33 32 27 29 27 27 26 26 23 17 15 13 16 17 18 21 22 22 26 27 28 28 25 25 24 23 21 21 21 19
37 50 51 49 45 33 31 40 42 41 36 32 34 29 29 35 31 32 36 36 40 36 30 31 31 30 27 24 21 19 15 16 18 19 20 24 24 26 28 30 29 27 26 28 26 22 22 22 20
48 46 37 42 47 44 32 41 45 47 43 36 36 32 38 39 36 30 36 37 36 35 34 33 31 34 29 26 23 19 18 18 18 18 20 24 26 28 30 30 30 29 28 28 27 25 24 24 22
47 50 41 44 48 48 44 41 49 52 50 41 39 42 38 33 26 28 35 36 33 37 42 37 33 32 31 29 22 19 19 18 19 20 21 25 25 29 32 32 31 29 28 28 28 27 26 26 25
43 45 45 49 50 49 50 52 48 58 55 47 44 41 41 38 33 30 35 40 37 43 51 42 37 34 33 26 17 18 21 20 20 22 24 26 26 27 31 34 32 30 29 27 28 29 27 29 27
42 40 41 41 52 55 51 55 52 50 56 56 49 48 47 44 33 38 45 45 38 32 37 46 40 39 32 30 12 19 23 25 22 25 26 27 27 27 30 34 33 32 30 28 29 27 27 29 29
43 44 46 44 45 50 60 54 54 60 49 61 56 50 51 56 40 46 50 52 46 49 46 38 35 39 36 36 16 19 25 29 26 27 27 29 29 27 29 34 35 34 32 29 30 28 29 30 29
42 43 45 45 43 44 50 57 61 55 57 58 60 65 65 64 68 63 59 56 54 52 43 37 45 46 40 30 20 27 29 30 31 30 30 31 31 29 30 34 38 37 34 31 31 30 30 30 29
42 44 45 45 45 47 49 51 51 54 54 61 59 58 60 56 63 64 59 56 50 51 46 40 42 43 44 46 29 32 34 35 33 31 31 32 34 30 31 35 39 40 38 35 33 32 30 30 30
43 45 46 45 48 47 48 52 44 48 49 64 61 57 61 59 54 60 60 60 58 50 53 45 45 46 42 36 31 37 40 41 35 32 33 32 35 34 33 37 39 42 41 39 36 32 31 30 30
44 45 47 46 46 49 52 52 46 49 52 52 58 68 58 65 61 61 58 59 59 57 57 56 54 48 43 46 52 47 44 42 40 32 33 35 38 37 36 38 38 43 43 42 38 32 31 31 29
44 47 48 51 51 53 53 53 54 54 58 58 56 58 63 67 64 63 63 63 59 58 57 57 55 47 48 55 54 47 46 49 45 34 36 40 41 41 38 38 38 46 44 42 37 33 31 31 28
46 48 50 52 55 58 58 57 55 55 57 59 58 58 62 62 66 67 64 57 62 63 61 62 59 57 58 48 52 53 52 51 46 44 42 47 48 46 43 41 40 45 46 41 36 32 32 30 28
45 48 51 52 55 59 60 59 56 58 56 56 58 59 60 60 59 61 71 63 62 67 68 68 63 62 61 65 66 56 54 49 45 45 44 50 52 49 45 46 43 42 45 38 33 33 32 28 28
45 48 51 55 55 57 61 60 56 55 57 57 57 57 58 59 59 58 69 73 67 70 70 68 69 66 65 64 61 54 48 46 44 43 50 53 50 44 45 44 40 42 40 34 33 35 32 28 28
47 48 52 54 56 59 58 64 61 58 60 60 59 59 59 57 57 57 60 69 72 73 68 66 66 65 65 59 56 49 45 50 48 54 50 46 42 42 40 40 37 40 36 31 35 36 30 29 30
39 47 51 54 56 61 59 65 59 61 63 61 62 62 60 59 58 58 58 59 66 69 65 69 70 60 52 44 34 32 37 41 39 42 43 39 41 33 34 34 38 35 31 34 35 33 29 28 28
35 39 44 52 57 60 59 58 62 59 59 61 62 65 65 62 62 61 59 55 55 57 58 58 58 52 49 43 37 34 34 34 38 37 38 39 34 31 33 33 35 30 32 34 34 28 26 28 28
39 35 40 42 42 49 53 58 60 59 59 64 65 65 67 65 63 63 60 58 55 56 55 55 53 50 47 43 40 36 33 35 36 35 35 34 30 34 32 34 29 29 32 33 29 26 26 28 27
31 25 25 27 27 26 22 41 49 48 53 60 63 64 62 65 64 63 61 58 56 53 53 50 49 47 41 39 37 36 34 35 36 33 33 32 32 32 32 29 28 29 32 28 26 24 26 26 27
29 24 17 26 26 25 20 18 17 29 31 43 54 63 63 62 60 63 62 59 55 51 48 45 44 43 42 40 35 34 34 35 35 36 35 32 31 31 30 28 28 29 27 26 24 24 25 24 24
30 30 31 27 28 31 30 28 27 31 32 35 43 53 61 56 60 58 60 60 57 52 46 44 40 39 39 39 37 38 37 37 37 34 31 29 31 29 26 27 29 27 25 23 21 23 23 23 23
26 32 32 35 39 33 37 33 34 30 33 36 40 46 53 55 54 57 58 58 56 54 49 40 38 39 37 42 39 39 39 37 33 29 28 28 29 26 27 29 28 24 22 21 23 22 21 22 22
27 28 33 36 36 41 39 37 35 26 24 28 34 42 48 49 53 53 57 58 55 50 43 47 46 45 42 39 40 39 35 31 29 27 27 27 26 26 28 27 23 20 20 20 21 22 22 23 22

GFSSGP_500_spd_045.txt.gz
Wind_Speed
45 43 40 39 37 32 24 20 25 24 25 34 33 30 30 22 21 11 9 9 4 8 13 12 4 4 7 11 12 14 14 11 8 10 11 12 14 15 17 16 16 17 17 16 15 16 16 17 17
45 46 44 42 40 32 25 25 26 27 31 41 38 35 30 23 25 14 12 14 13 16 16 15 10 3 7 9 13 16 15 12 10 8 10 13 16 17 19 18 18 18 17 17 18 17 17 18 20
40 45 46 46 41 32 30 30 33 33 38 42 39 40 35 30 22 12 16 20 15 16 12 18 13 7 7 8 11 10 10 8 10 12 14 16 18 17 17 17 18 18 18 19 20 20 19 20 20
37 38 47 46 39 34 33 36 39 40 41 44 46 40 36 27 21 16 22 27 25 23 24 19 18 12 10 6 8 7 6 7 10 14 16 18 19 19 18 17 18 19 20 20 20 21 20 19 21
49 42 42 42 38 34 34 38 41 44 40 40 44 40 38 25 16 19 26 31 34 31 28 30 24 17 13 10 9 8 9 9 12 15 17 19 18 18 19 18 18 19 18 19 20 21 21 20 22
51 61 52 31 31 33 35 39 45 45 42 38 39 38 35 31 27 29 32 33 33 34 31 28 27 21 18 16 12 13 11 13 16 17 18 19 20 21 23 23 21 21 21 21 22 23 24 21 21
47 56 63 48 28 30 29 37 46 47 43 43 41 40 38 34 34 34 34 36 36 32 27 26 28 23 20 19 14 14 13 14 15 16 19 17 20 23 26 26 26 25 23 23 25 25 24 22 21
56 44 54 58 44 33 35 37 44 49 42 44 45 43 38 34 32 36 38 39 38 38 33 27 29 26 25 24 18 15 15 16 18 18 18 16 19 23 25 27 28 27 27 27 26 27 28 23 22
37 45 42 39 53 38 36 37 45 51 38 42 47 48 43 37 31 34 42 41 38 36 37 39 34 32 30 28 23 18 13 14 15 16 17 17 20 23 25 28 30 29 27 27 26 27 28 26 23
37 38 36 37 46 48 46 42 44 53 42 44 48 48 46 43 34 35 32 35 34 34 34 33 35 35 33 32 27 20 13 12 14 14 16 17 20 23 23 25 30 32 31 30 28 28 29 29 28
43 38 43 41 47 44 47 51 41 51 50 45 52 48 47 46 39 32 32 41 37 32 32 33 38 33 35 37 31 25 17 14 15 17 17 19 21 22 23 23 27 31 33 32 32 31 30 30 30
48 48 47 47 45 48 47 49 56 45 51 48 51 55 52 48 45 40 39 43 36 34 34 36 37 37 38 41 39 27 19 12 16 17 18 21 23 23 24 22 25 30 33 35 36 36 34 33 32
44 47 48 47 46 48 52 53 52 62 48 55 51 56 60 56 52 47 45 43 38 37 36 36 31 37 29 40 40 31 21 15 13 16 20 25 26 24 25 26 26 31 35 36 37 40 39 36 33
39 40 44 46 45 43 45 47 58 44 54 53 56 55 57 60 60 57 47 40 32 38 36 34 32 39 40 34 40 44 39 25 20 17 18 23 27 27 27 28 30 34 36 37 38 41 43 38 35
39 42 44 46 47 49 49 48 44 50 57 54 54 55 54 60 61 60 62 55 50 50 51 46 43 41 36 37 41 43 46 28 21 25 21 26 28 29 30 30 31 35 37 37 40 44 45 40 37
40 42 43 46 48 48 49 44 43 46 60 70 59 58 55 56 60 64 67 63 60 59 57 47 44 49 47 44 43 38 37 34 29 31 27 30 30 32 34 33 34 37 39 39 43 46 46 42 38
42 43 45 45 48 49 47 47 48 50 55 60 72 66 62 62 61 62 61 64 67 66 63 56 53 54 49 45 43 41 27 29 40 43 33 34 34 36 39 38 37 39 40 41 43 47 47 42 39
42 45 48 49 49 50 50 51 51 52 54 57 57 71 77 74 65 61 61 63 64 66 63 61 58 56 56 51 49 47 43 36 41 37 37 39 39 39 43 43 40 42 42 44 45 46 47 42 40
37 40 44 47 50 54 55 53 53 54 56 58 58 60 67 72 71 68 66 63 66 67 68 68 62 59 57 56 51 47 47 43 35 34 41 45 43 44 47 46 44 44 43 43 42 43 43 41 38
35 39 43 45 49 53 55 54 55 56 56 58 59 60 60 61 75 68 67 73 68 62 60 52 55 61 57 55 53 54 52 51 46 48 48 49 50 48 45 49 49 44 43 38 40 39 40 38 36
35 38 40 44 48 52 57 56 55 55 59 59 60 61 62 63 63 76 77 74 74 80 76 63 63 61 63 59 57 56 53 52 46 48 52 54 49 51 54 51 51 44 43 38 38 36 39 36 36
39 40 43 46 49 51 52 61 57 57 59 60 60 63 64 63 65 64 69 75 81 75 75 76 71 69 66 66 65 58 54 48 50 53 50 52 53 52 54 51 45 42 38 34 36 34 38 37 36
35 39 40 43 49 55 53 60 58 58 62 62 62 62 65 66 65 64 62 62 65 64 67 78 77 73 70 65 64 64 58 50 49 42 44 45 44 44 40 40 39 39 35 35 34 35 37 38 33
29 32 34 37 41 53 54 58 61 58 60 62 63 67 68 67 66 67 66 62 59 61 64 65 69 77 74 70 65 54 40 39 36 38 41 40 40 39 35 35 38 36 35 34 31 36 36 35 30
33 35 39 42 40 41 45 53 58 61 63 65 65 66 69 70 69 67 66 65 62 61 62 62 59 65 64 62 64 55 42 39 40 43 44 43 39 36 35 36 37 34 33 30 32 35 33 32 29
31 33 37 42 41 39 31 44 47 53 62 66 67 68 67 69 71 69 67 65 64 63 62 61 60 61 62 61 60 54 43 41 43 45 45 44 39 36 34 36 33 32 31 29 35 31 31 31 31
31 35 35 38 40 44 35 27 27 30 38 45 52 61 68 67 67 71 68 67 66 63 60 59 61 61 59 58 57 53 46 44 42 40 44 41 36 34 33 30 32 32 28 31 30 31 32 29 30
33 34 37 39 41 43 39 35 30 30 30 30 29 37 54 66 67 66 70 69 67 64 61 57 57 56 55 53 53 51 49 47 40 41 38 35 32 33 29 32 32 28 28 30 30 32 28 28 28
27 34 39 41 43 46 47 44 32 37 35 35 39 38 42 52 64 63 65 66 67 65 63 57 53 52 52 51 51 50 48 45 42 37 34 32 32 30 31 32 29 29 29 30 30 27 27 27 27
26 29 31 43 45 45 47 45 31 34 37 42 38 29 38 46 53 57 58 64 64 64 62 58 51 48 48 52 53 51 45 42 39 35 31 30 29 30 32 28 28 30 29 30 27 25 27 27 26

GFSSGP_500_spd_051.txt.gz
Wind_Speed
39 37 38 39 40 38 33 30 29 30 34 33 33 31 29 26 14 11 15 9 8 9 4 3 0 1 2 5 9 9 7 7 9 11 12 13 15 16 17 17 16 15 16 16 16 16 15 16 16
44 43 40 42 43 38 32 33 33 35 34 35 38 37 33 26 20 18 13 15 12 11 5 4 3 4 3 5 8 8 6 6 8 11 13 14 14 14 13 14 16 18 17 17 15 16 14 15 17
40 34 45 46 44 39 34 37 38 36 36 40 41 39 35 28 24 23 18 18 17 9 7 5 7 7 5 3 6 8 7 7 7 10 12 14 13 12 15 17 17 15 17 19 19 20 20 20 20
40 41 40 50 44 35 38 38 42 39 40 41 42 43 39 37 29 25 27 23 19 11 7 9 13 13 9 3 3 5 5 7 8 11 12 13 14 15 16 17 16 17 17 17 16 18 19 20 22
40 41 43 40 47 34 41 44 44 43 43 43 43 47 47 42 33 30 29 27 23 14 9 12 15 17 13 11 7 6 8 8 8 9 11 12 14 15 15 15 16 18 18 18 17 16 18 19 22
50 49 47 44 39 44 50 47 50 45 42 46 45 46 48 45 38 36 33 29 27 16 13 13 15 18 18 13 10 7 9 9 9 10 11 12 12 12 12 14 16 18 20 21 20 19 20 21 23
51 50 52 48 44 38 48 50 47 48 43 47 49 48 47 47 42 40 39 35 33 19 21 17 19 19 19 17 16 11 9 10 11 11 12 14 12 11 11 14 17 19 21 22 23 23 23 24 26
50 51 53 50 49 46 42 55 48 45 45 49 49 50 46 47 43 42 42 38 41 25 25 23 23 22 23 18 20 17 13 11 11 12 11 14 14 13 12 13 16 19 21 23 24 25 26 27 30
51 53 52 54 50 48 51 59 61 45 44 50 51 48 47 43 40 44 45 42 39 25 31 21 23 21 21 23 22 20 16 14 14 14 12 11 12 15 14 14 15 17 20 21 24 26 28 31 32
50 53 49 46 52 51 52 52 68 51 45 46 53 49 47 48 43 43 44 45 45 32 29 27 25 24 25 27 24 23 20 18 16 17 16 13 12 13 15 14 15 17 18 21 23 26 29 31 34
46 53 49 44 39 49 55 55 64 68 46 47 49 48 48 51 50 45 44 46 39 37 34 28 26 28 29 27 28 25 22 20 19 19 20 18 15 15 16 15 16 18 19 21 24 26 28 31 33
40 42 53 49 39 46 41 53 58 74 49 47 50 47 46 52 51 47 46 49 47 40 37 36 31 31 32 31 28 23 22 23 22 23 23 21 16 12 15 14 15 18 20 22 23 27 28 31 35
37 36 39 47 45 43 41 37 57 57 61 49 53 47 44 49 55 53 47 51 56 50 44 43 36 34 36 35 29 24 23 26 27 33 21 23 16 11 15 14 15 17 22 24 26 28 30 32 37
37 34 35 41 48 47 46 38 44 46 68 55 58 48 48 48 56 55 55 51 46 49 45 41 44 46 43 33 33 35 38 29 28 21 25 28 22 23 19 15 15 19 23 28 30 31 33 35 38
38 37 37 38 45 49 48 45 46 44 56 65 62 60 50 52 53 56 59 54 53 48 50 49 45 37 43 42 33 34 26 26 28 24 31 36 32 35 29 19 17 21 25 29 34 35 36 37 40
35 36 37 37 40 44 43 44 45 47 44 49 66 65 55 53 55 54 58 59 57 50 45 47 51 43 42 44 41 38 41 32 30 35 36 38 44 46 25 25 22 22 23 29 38 39 40 41 42
35 36 35 37 39 40 38 40 41 45 45 43 41 67 63 56 55 55 56 60 60 58 54 52 58 51 45 47 39 43 36 29 38 41 49 36 40 32 25 28 29 25 27 30 37 41 45 46 46
37 37 37 37 39 39 40 39 38 40 44 48 45 47 67 65 57 56 57 58 62 61 60 59 56 49 50 50 46 45 38 40 38 43 37 33 34 38 41 32 36 26 33 34 39 42 49 50 50
39 40 40 40 40 40 41 41 39 39 42 44 47 48 51 65 65 62 62 67 59 59 60 63 62 60 59 55 56 56 51 45 39 39 38 33 40 38 41 37 34 34 38 37 41 44 51 52 48
33 35 36 38 38 39 40 40 42 42 43 44 45 48 50 52 53 75 68 62 61 60 57 60 63 63 61 55 58 58 58 45 46 42 38 36 35 37 43 40 40 41 36 41 44 48 53 51 44
29 31 34 35 36 36 37 37 36 38 41 45 47 47 49 53 56 57 62 77 68 65 65 62 63 63 61 56 60 55 51 56 51 49 44 45 41 43 46 42 44 40 41 42 40 46 52 47 40
27 28 29 30 31 31 33 38 34 35 36 43 46 48 51 55 58 60 60 58 83 71 73 68 67 65 65 61 59 59 56 54 53 52 50 51 50 43 46 48 51 42 46 39 38 44 48 41 38
28 30 30 32 34 36 36 42 40 37 38 41 44 47 51 53 57 61 64 63 64 65 75 74 69 69 68 64 68 63 63 63 60 58 54 48 47 50 47 51 50 45 42 37 39 43 44 39 38
29 31 33 34 35 37 37 41 41 42 46 47 48 49 51 54 58 62 66 69 67 67 66 66 78 74 72 71 72 72 69 67 63 60 55 53 52 53 50 47 45 46 43 37 39 41 41 38 38
29 28 31 32 32 31 33 41 41 37 45 49 53 56 58 58 61 64 67 68 71 69 68 68 65 71 78 75 75 77 73 70 68 60 56 50 51 53 55 51 50 40 37 37 39 40 37 38 36
25 26 28 33 29 24 25 31 25 26 35 37 43 48 58 64 65 66 69 70 71 71 72 70 68 65 66 67 67 74 73 65 61 58 55 49 47 53 55 50 45 38 36 39 39 38 36 36 34
25 26 27 27 27 27 26 23 21 28 35 37 42 46 48 48 58 69 70 71 72 73 72 73 71 68 68 66 63 63 60 57 58 58 56 49 47 52 52 49 41 37 37 40 38 35 37 34 33
27 23 23 23 27 29 26 26 28 34 39 38 40 44 46 49 49 49 62 72 74 74 74 73 72 71 68 66 63 62 60 59 57 53 54 50 49 48 47 43 38 37 38 38 36 37 35 33 33
25 23 22 24 26 30 30 30 36 36 29 31 35 45 50 50 54 55 49 56 72 76 76 75 73 70 70 68 63 59 57 57 56 53 52 51 51 46 43 39 36 37 37 37 35 36 33 34 32
24 23 24 26 30 31 32 29 33 33 33 38 43 48 54 50 51 54 55 49 49 69 77 77 75 71 68 67 65 60 57 54 51 52 54 53 50 44 39 36 35 35 36 36 36 34 33 33 30

GFSSGP_500_spd_054.txt.gz
Wind_Speed
38 37 36 37 36 37 34 36 35 37 39 40 31 30 30 28 24 19 20 14 12 12 12 9 5 2 1 1 6 6 5 4 6 9 10 12 14 14 15 15 15 16 17 18 19 17 16 15 15
39 36 38 40 39 37 32 37 38 41 44 39 38 34 29 25 27 21 23 19 19 17 12 10 6 5 4 2 4 5 5 5 6 8 10 12 14 15 17 17 16 16 18 18 16 14 14 14 15
42 41 40 41 41 38 38 40 44 45 43 42 43 39 36 35 27 24 22 22 20 20 16 11 5 6 6 5 2 3 3 5 6 9 10 11 11 13 15 16 16 17 15 13 13 13 14 14 14
46 46 44 46 44 39 44 43 45 46 47 43 41 41 41 37 31 26 26 21 22 21 20 13 7 9 6 8 5 2 1 3 5 7 9 10 11 11 14 14 15 15 15 13 13 13 15 17 18
42 45 45 44 42 45 45 49 49 49 47 44 43 44 45 41 33 28 30 26 24 21 22 14 10 11 10 10 11 6 4 5 3 5 7 9 11 11 12 12 12 12 12 12 13 14 16 18 21
49 45 45 41 44 44 47 52 51 50 49 44 42 41 47 46 38 31 31 31 31 26 22 21 16 13 13 13 13 12 7 6 6 6 7 9 11 12 12 13 12 11 12 13 15 16 17 19 22
54 51 50 44 44 45 44 57 46 47 47 46 43 41 46 50 44 36 34 33 32 32 27 22 15 17 16 15 14 15 12 9 7 8 8 10 11 12 12 13 13 13 13 14 16 18 20 22 23
53 56 54 54 50 45 45 52 58 47 47 49 44 45 45 51 48 44 40 38 35 34 33 28 22 21 20 19 17 17 16 14 10 10 10 9 10 11 12 13 14 14 14 15 17 19 22 24 26
45 55 58 58 55 52 50 46 61 58 46 45 46 43 44 46 46 47 45 43 41 41 38 35 30 27 23 21 18 18 19 18 13 12 11 9 10 11 12 12 14 16 16 17 17 19 22 24 27
39 45 51 52 52 50 50 50 52 66 49 44 46 47 45 44 44 46 50 48 44 39 44 39 34 31 27 24 23 21 20 21 16 13 13 13 14 14 14 14 13 16 17 17 18 20 21 24 26
38 41 39 50 52 52 50 55 55 49 66 42 49 49 47 49 45 48 51 51 48 42 43 45 42 46 33 27 28 25 23 25 21 17 16 17 18 17 16 13 13 14 17 15 18 21 22 25 29
36 38 42 39 45 50 49 48 56 57 60 59 49 51 49 51 51 51 51 51 50 52 46 43 42 35 25 30 33 29 31 27 26 21 20 20 20 18 16 13 12 14 16 17 19 21 24 26 29
36 38 38 41 41 43 51 46 45 57 59 64 54 55 52 52 56 56 54 51 49 52 52 47 41 38 39 39 37 33 34 35 28 25 24 25 25 21 20 17 14 16 16 18 21 24 27 28 31
38 37 35 39 40 40 50 48 48 45 56 54 70 59 57 55 57 59 60 56 51 54 56 54 45 47 42 43 45 40 41 31 38 30 31 22 28 23 24 23 21 20 20 18 22 24 30 35 35
36 36 36 35 39 39 41 46 47 50 48 42 64 77 70 59 59 60 61 62 58 58 60 56 53 51 50 40 38 38 46 40 32 32 37 24 23 27 32 34 36 35 23 22 23 24 28 35 38
35 34 35 39 39 40 37 38 47 51 51 45 54 74 69 66 63 63 63 63 61 57 58 64 63 55 54 48 48 49 39 34 39 41 39 33 29 32 36 38 48 25 29 26 27 24 30 36 41
34 34 35 40 35 39 37 37 44 44 48 46 45 51 61 69 65 64 65 65 64 64 62 57 54 63 56 59 52 50 46 46 44 45 35 33 33 35 37 38 37 35 43 31 28 28 36 37 42
40 35 37 36 38 37 38 37 39 38 41 44 43 49 38 72 69 65 64 66 67 66 66 64 63 64 66 66 53 52 54 56 39 37 40 38 34 33 31 29 40 35 34 32 38 36 35 39 44
39 38 39 39 40 39 39 38 37 37 40 40 40 44 46 63 70 67 67 59 66 68 67 65 60 60 61 53 43 51 52 50 45 43 40 38 29 33 28 38 35 34 34 35 36 34 37 41 44
32 35 37 40 41 42 42 40 37 37 39 40 40 40 43 45 48 71 70 60 59 68 68 68 64 58 59 47 56 56 47 53 49 46 49 43 38 35 32 36 35 36 41 42 41 38 41 41 44
29 31 34 33 36 36 38 37 38 38 40 41 41 41 43 45 47 52 71 70 67 70 71 67 66 67 63 64 58 51 55 58 50 50 50 46 36 36 33 39 40 43 47 45 39 39 39 40 42
27 31 30 30 30 31 33 33 33 33 35 38 40 42 45 48 48 52 54 59 73 79 69 72 74 80 77 69 67 61 58 57 52 49 53 49 36 30 39 40 42 46 43 46 44 41 40 37 43
28 29 29 29 29 28 28 31 29 28 31 35 38 40 43 46 51 54 55 57 55 79 77 80 76 76 78 77 66 66 64 65 49 52 52 51 42 42 45 42 38 41 44 47 43 38 32 37 40
32 31 31 31 31 32 32 33 34 35 34 37 39 41 43 46 49 52 55 59 59 61 64 67 75 78 73 60 68 71 64 63 64 57 56 50 44 48 46 43 43 50 48 45 46 41 32 36 39
31 32 29 27 29 23 36 33 34 34 32 37 42 46 49 49 50 52 53 56 61 62 63 64 64 65 78 76 73 74 74 72 68 62 59 52 50 54 52 50 50 48 43 47 48 33 32 36 37
30 33 31 27 17 18 33 33 32 28 31 32 35 39 46 50 53 54 56 57 57 63 66 66 68 68 67 82 81 71 68 74 72 67 63 58 56 58 56 53 49 47 45 46 41 32 33 36 35
31 32 34 35 32 32 30 26 26 28 28 33 36 39 41 45 50 53 56 59 62 64 64 69 69 69 69 69 72 75 73 77 72 68 63 63 65 66 61 52 48 46 46 44 39 35 36 35 35
35 32 31 29 30 25 23 21 21 26 29 33 38 41 44 46 48 51 55 55 56 64 70 70 72 73 72 72 71 69 68 65 69 74 65 63 61 58 54 48 46 44 45 40 36 38 34 33 36
31 35 29 31 30 28 26 21 26 26 30 31 33 37 38 41 46 51 51 48 48 49 55 72 74 74 75 74 72 70 67 64 59 57 60 54 52 49 48 45 43 44 39 35 36 36 33 34 36
29 28 29 29 28 29 31 22 25 23 30 31 31 32 34 37 40 45 49 52 53 60 62 58 73 78 76 76 74 71 67 64 61 58 56 54 50 47 46 44 43 37 34 33 35 35 34 35 36

GFSSGP_500_spd_057.txt.gz
Wind_Speed
39 39 36 34 34 33 31 28 26 39 41 37 47 37 24 23 16 29 31 22 19 17 18 16 12 7 3 1 1 1 1 2 3 4 6 7 7 9 12 14 15 15 15 16 15 13 11 11 12
39 41 39 38 36 33 30 21 40 29 39 48 43 33 27 26 40 38 36 26 24 21 19 19 14 7 4 3 2 2 2 1 2 2 4 6 7 9 12 14 15 15 16 17 16 14 13 12 13
42 40 40 44 40 38 26 37 41 36 48 40 39 43 35 40 46 36 24 27 26 23 20 20 15 10 9 8 6 4 2 1 1 2 5 7 8 9 12 14 14 16 17 18 15 14 13 13 14
44 44 43 44 45 38 43 52 55 48 46 42 44 42 45 48 31 28 27 27 26 24 23 20 17 12 10 10 9 7 5 3 2 3 5 7 8 9 11 12 13 13 16 17 15 14 14 16 17
48 47 48 47 43 46 47 47 48 47 46 45 43 40 48 51 40 31 30 30 28 27 26 23 23 17 12 11 13 12 9 6 5 4 5 6 8 10 11 12 12 12 12 13 13 14 17 19 19
52 50 51 52 48 46 49 45 45 47 45 46 48 41 44 58 42 33 32 32 29 30 29 26 25 21 17 13 14 14 15 11 7 5 4 6 7 8 9 10 11 10 10 11 11 13 15 18 19
49 52 52 51 42 32 50 51 48 53 44 44 44 51 42 56 42 37 35 35 33 31 28 31 27 24 21 17 16 15 15 15 12 9 7 8 8 9 9 8 10 11 11 13 13 13 15 17 19
39 50 54 42 43 35 33 47 54 58 44 44 53 39 47 57 39 41 40 37 39 37 35 33 28 26 25 20 18 17 16 18 16 13 10 10 8 8 8 8 9 10 12 13 13 14 15 16 19
29 40 51 54 40 39 34 36 51 52 57 47 43 43 53 38 41 49 43 41 39 40 38 39 35 32 30 27 22 21 20 19 19 17 14 12 12 10 10 10 11 13 13 16 19 19 16 16 19
34 35 34 43 39 39 39 40 54 51 53 58 47 42 41 42 44 48 52 47 45 44 41 43 38 39 36 31 29 25 22 19 19 19 16 15 15 14 14 13 14 14 13 13 14 17 18 19 21
34 34 31 31 35 38 41 37 44 52 59 48 44 41 50 41 41 48 56 55 52 48 46 46 40 43 43 39 31 31 26 24 21 22 21 19 19 19 17 16 17 17 14 13 14 17 20 21 25
38 35 36 36 32 39 55 56 56 39 46 57 57 53 51 45 44 48 56 59 55 56 52 50 46 44 43 41 37 34 32 28 27 26 25 24 23 23 21 19 19 19 15 15 16 17 20 21 25
40 38 37 42 42 46 45 43 53 57 62 58 54 52 59 47 48 48 54 56 58 56 58 53 48 53 50 45 40 39 37 32 32 33 28 28 28 27 25 23 24 24 24 23 21 19 20 19 23
37 40 42 42 38 41 44 43 46 53 59 59 63 55 52 63 51 51 56 57 58 61 56 58 56 56 50 57 43 45 41 37 38 35 32 32 30 30 31 27 27 28 30 28 25 25 26 22 23
37 35 39 42 39 41 41 44 45 45 51 55 64 47 60 48 58 54 58 63 63 63 60 59 60 59 55 50 40 46 46 40 45 39 36 35 34 36 29 30 27 28 33 29 21 31 34 24 27
34 35 37 37 40 43 43 39 37 43 49 60 54 43 55 53 59 59 60 62 67 66 62 64 69 66 62 57 51 52 50 43 50 50 47 40 41 38 35 31 32 29 27 35 38 45 31 27 38
35 34 32 30 44 40 41 38 37 48 45 48 50 53 47 47 47 66 64 63 69 70 67 66 62 58 65 63 61 59 45 55 59 49 46 40 41 42 40 33 31 31 36 40 34 33 33 31 36
21 28 33 30 31 38 39 36 36 48 42 42 48 49 52 52 48 56 69 70 70 74 72 70 70 72 71 68 63 67 58 54 55 56 47 47 42 45 40 41 29 32 22 32 32 32 28 34 37
43 40 33 24 35 44 38 37 38 41 41 40 40 43 47 53 54 48 73 71 73 76 77 75 74 79 77 75 75 62 64 52 62 53 55 44 30 35 35 31 27 31 28 30 28 29 33 39 36
33 38 41 41 44 48 44 41 39 40 38 39 39 39 42 47 49 52 57 67 77 78 79 79 79 78 70 69 66 65 58 56 59 55 56 52 31 31 37 30 30 34 25 31 29 35 33 36 38
29 31 33 35 41 44 38 42 40 40 43 41 40 39 41 44 47 50 55 46 78 79 82 81 79 79 79 70 69 61 60 68 73 62 73 38 36 40 39 32 40 46 23 30 34 33 31 40 37
29 29 34 36 35 32 33 35 29 34 37 40 42 44 43 44 44 47 47 49 62 85 73 87 80 85 70 72 64 69 70 59 69 69 62 41 42 45 44 39 40 23 27 34 36 35 34 37 37
33 34 35 30 31 31 29 34 25 29 30 33 36 39 41 43 45 46 46 46 45 53 83 83 76 77 70 68 70 70 81 52 61 64 55 51 41 55 52 42 29 33 28 35 38 39 41 41 37
37 35 34 32 30 33 28 27 20 19 27 32 35 33 35 38 41 42 43 47 49 50 51 69 81 80 68 71 70 77 76 66 67 70 62 39 53 59 58 30 32 32 33 43 45 44 40 40 37
37 34 31 23 24 29 21 28 24 28 35 31 35 38 38 39 39 41 41 43 47 52 55 55 57 66 59 71 77 72 65 67 68 61 60 59 58 65 63 35 33 38 42 44 47 41 42 36 35
30 23 27 23 24 21 16 26 19 28 39 33 35 37 39 40 41 43 45 46 45 47 52 56 59 60 62 59 78 75 77 75 66 76 60 61 60 62 68 62 43 50 49 52 49 43 43 37 31
27 31 25 35 35 37 34 32 25 34 31 31 32 36 38 40 42 45 47 47 48 50 52 53 56 59 63 65 63 62 65 72 79 69 76 66 63 62 63 60 52 51 54 52 52 44 42 35 31
34 31 28 27 28 29 24 23 23 31 26 35 36 37 38 39 40 43 46 49 51 50 50 56 58 61 61 61 66 65 65 64 63 71 71 71 64 61 62 61 60 59 57 56 45 44 40 34 35
26 30 35 31 28 21 21 19 27 25 19 34 33 33 35 37 40 41 43 48 51 53 53 51 58 63 65 65 64 65 65 65 65 64 68 74 66 70 64 64 64 60 53 47 41 40 35 34 38
27 30 28 27 27 30 28 33 25 30 38 41 30 33 34 34 37 39 40 44 46 51 52 51 50 55 66 70 71 69 66 66 64 64 61 60 62 61 54 62 69 54 45 39 37 33 34 34 37

GFSSGP_500_spd_060.txt.gz
Wind_Speed
39 36 34 33 33 33 26 26 22 18 31 35 41 33 25 27 39 38 31 28 21 19 18 19 19 15 11 9 6 4 4 5 6 6 4 3 3 3 6 9 10 13 15 15 15 15 13 12 12
39 37 37 38 36 33 26 24 13 28 42 46 46 47 34 33 40 39 29 25 18 21 21 20 19 18 13 11 6 5 5 5 6 4 3 3 2 3 6 9 10 12 14 16 16 14 12 11 12
43 40 39 41 39 36 26 14 21 36 46 51 48 39 42 41 43 42 32 30 17 25 24 21 22 21 17 13 8 7 7 7 6 6 3 1 2 4 7 9 10 11 13 14 13 12 11 11 12
37 41 43 42 43 37 32 29 37 30 39 50 48 53 42 56 51 43 31 27 25 28 27 23 23 23 20 17 13 11 11 10 9 7 4 1 3 6 8 8 9 10 11 12 12 12 13 14 14
39 40 43 47 45 38 41 46 52 42 39 40 42 39 49 59 57 40 30 32 30 29 28 26 23 23 20 20 16 15 14 12 11 9 5 1 3 6 8 8 9 10 11 11 11 12 14 15 16
36 40 45 46 46 41 38 48 51 50 48 43 36 37 41 55 56 43 34 31 33 31 31 29 27 25 25 21 18 16 17 15 13 11 7 4 5 5 6 7 8 9 10 10 11 13 14 15 16
34 36 41 46 48 41 29 45 51 45 43 42 41 39 41 59 51 44 40 35 37 35 33 33 30 28 27 24 21 19 19 18 16 14 12 10 9 8 8 7 7 9 11 12 12 13 15 16 16
35 34 35 42 49 50 22 34 40 39 47 41 43 42 42 59 56 42 45 39 41 40 36 38 35 33 31 28 25 26 22 18 18 18 16 14 12 11 10 10 9 9 12 13 13 13 15 14 16
34 36 34 34 42 36 31 26 31 42 34 49 50 49 46 60 53 44 45 45 45 44 39 40 38 34 34 29 30 28 26 22 19 20 20 18 16 14 13 13 13 14 15 16 16 16 15 15 16
37 38 33 28 32 39 29 30 25 45 56 54 42 64 52 46 44 39 43 50 49 49 47 42 39 37 35 35 34 32 31 26 22 20 20 20 19 18 17 17 18 17 18 15 17 17 20 16 17
37 36 32 30 27 32 41 35 30 41 44 53 51 50 58 51 62 41 44 51 54 53 51 48 46 43 43 40 37 36 32 29 26 23 22 23 22 22 21 21 22 21 20 16 18 19 23 19 20
40 38 36 34 33 28 42 39 36 38 45 29 33 46 55 61 68 39 45 52 55 56 55 53 49 48 46 45 43 40 35 31 30 28 27 26 25 25 24 24 24 25 24 21 18 20 23 20 20
41 40 40 39 38 37 36 46 50 42 51 31 39 42 48 56 50 55 44 50 49 59 57 56 51 52 50 47 50 48 40 39 34 32 32 30 29 28 28 26 26 28 26 24 23 21 22 20 25
41 43 43 44 45 45 45 47 45 49 59 54 42 56 53 43 45 49 56 51 51 57 61 63 53 54 53 54 50 47 48 41 36 36 35 34 33 33 31 29 27 28 25 23 24 25 23 30 35
38 42 44 41 42 45 45 45 44 40 47 51 58 59 63 59 50 50 52 59 52 54 62 62 64 56 57 58 60 55 60 42 52 43 40 38 37 36 32 34 32 28 28 28 23 25 28 27 30
38 38 40 38 41 42 47 46 44 41 42 43 49 51 52 62 50 47 54 55 60 56 61 66 69 62 62 68 68 64 60 48 54 44 44 43 46 40 37 37 37 33 32 29 26 32 35 30 26
37 38 38 35 35 37 44 49 43 41 41 43 49 50 47 49 49 43 53 58 55 58 66 69 68 70 63 77 62 58 60 52 51 47 51 49 49 48 43 44 42 38 32 22 22 20 22 22 26
35 29 29 32 27 36 38 46 41 39 42 48 43 44 44 49 47 51 52 58 59 50 65 69 70 71 72 70 64 64 58 57 51 50 56 54 50 51 44 47 45 41 36 27 20 18 18 17 28
33 30 35 22 19 33 45 41 40 40 42 46 43 44 43 48 47 50 56 58 53 48 63 71 72 73 73 69 73 71 77 76 56 55 58 60 49 54 51 50 51 34 31 25 22 17 16 21 25
38 40 41 40 32 41 40 47 40 39 42 42 42 42 40 43 45 49 53 56 56 48 57 68 71 74 76 75 76 75 78 70 67 61 64 56 44 55 63 48 47 39 33 30 29 20 16 22 24
30 30 31 39 39 35 49 52 46 40 42 43 43 43 41 40 42 46 50 53 54 50 42 71 70 75 79 81 79 81 78 71 70 70 72 66 54 64 61 50 43 40 37 27 37 29 26 24 22
31 23 22 28 34 42 38 43 34 31 37 44 46 45 44 42 43 46 48 47 49 45 48 50 71 76 84 85 73 74 75 73 66 72 76 68 70 54 63 56 45 35 43 33 37 29 19 24 26
24 23 27 36 39 38 38 38 34 28 31 32 35 36 42 46 47 47 46 45 47 49 45 48 47 61 92 86 86 86 82 79 76 65 75 64 67 61 62 64 64 59 34 35 47 27 20 24 26
21 35 37 32 34 36 30 31 31 23 19 21 32 34 36 37 41 45 47 46 47 48 45 48 49 44 68 89 77 88 89 84 78 75 73 80 62 58 59 65 68 58 44 40 40 35 24 19 27
30 35 31 27 24 33 20 26 27 17 28 23 38 39 35 34 34 36 39 40 43 45 46 48 48 51 47 56 72 72 69 81 88 76 77 69 61 76 68 59 58 49 41 36 45 50 35 27 30
30 31 28 29 29 29 28 31 19 29 23 37 44 43 35 35 35 37 39 40 40 41 41 41 45 48 51 51 48 50 66 73 60 63 72 72 66 60 50 59 50 53 51 42 46 46 28 34 33
30 36 27 35 34 38 35 20 26 21 37 43 36 38 42 41 40 40 41 42 43 44 44 41 41 43 47 49 52 54 54 50 51 51 56 54 60 64 56 57 48 44 28 43 43 44 39 38 39
38 29 28 34 36 35 42 33 24 29 32 37 36 39 36 40 41 42 44 45 45 47 47 47 45 46 48 49 50 52 54 54 50 49 49 58 63 61 60 54 60 50 36 40 42 42 42 44 41
30 28 29 35 37 31 23 25 45 39 38 37 37 30 36 32 37 44 45 47 47 47 48 49 51 49 48 53 54 55 55 55 54 55 54 50 49 51 55 73 58 45 40 40 42 46 46 38 38
26 27 30 35 32 37 39 30 20 18 22 26 31 22 28 34 39 43 47 47 47 45 48 50 51 53 53 53 53 57 58 59 56 55 55 54 52 52 49 49 50 55 49 46 47 51 41 35 37

GFSSGP_500_spd_063.txt.gz
Wind_Speed
42 41 38 37 35 33 27 17 19 19 18 20 26 32 31 36 40 37 28 27 20 22 17 15 15 16 15 11 10 7 6 6 7 8 7 8 6 3 1 2 3 6 9 11 12 12 12 13 12
43 43 40 40 38 33 26 15 25 29 31 27 30 39 37 40 36 36 24 30 18 17 16 16 15 17 18 15 11 8 6 6 6 7 6 6 5 4 2 3 4 6 9 12 12 12 12 10 10
46 46 43 44 41 35 22 29 34 36 32 34 35 39 47 49 40 40 35 34 25 15 17 16 17 19 20 20 14 10 7 7 7 7 6 6 5 5 3 2 4 6 10 12 11 11 12 13 13
41 47 49 48 45 33 28 39 41 36 37 38 38 43 54 53 48 42 29 29 28 22 20 19 20 21 23 24 21 15 11 9 8 8 9 7 6 5 3 3 5 8 11 10 9 10 12 13 14
38 41 46 51 49 39 32 41 47 38 39 40 45 46 56 59 51 52 44 35 31 25 21 23 23 23 24 24 25 22 18 13 11 10 11 10 8 7 5 4 5 7 10 10 11 13 14 16 15
39 40 44 45 46 44 34 40 43 44 33 40 42 47 59 62 58 58 49 41 34 27 28 28 27 27 26 25 24 24 23 19 16 14 11 10 10 10 8 6 6 7 9 12 13 14 15 16 15
39 39 40 41 43 42 43 37 38 43 44 33 36 37 64 63 62 60 54 47 38 33 32 32 30 30 29 29 27 24 22 21 19 19 17 14 15 14 13 9 9 7 9 12 14 15 15 15 14
41 42 40 38 38 42 40 41 40 33 33 45 37 44 47 53 60 56 52 50 53 35 36 37 35 33 32 31 28 27 26 23 24 22 20 19 18 16 15 13 12 11 12 13 13 13 18 15 15
41 43 41 36 33 33 40 37 26 28 25 23 30 46 54 57 61 56 48 46 52 47 40 41 39 38 36 33 31 29 26 24 24 23 20 19 20 18 17 16 16 14 15 15 12 12 15 17 16
40 42 38 34 32 32 38 38 30 28 32 33 29 27 40 52 60 55 44 48 48 55 46 43 41 41 40 37 34 32 29 25 23 21 23 21 21 20 19 19 17 18 17 17 13 12 12 17 15
39 38 37 35 34 31 31 48 37 25 31 30 29 32 35 46 50 48 46 46 47 57 50 48 48 44 44 41 39 40 29 30 29 26 23 24 22 20 21 20 20 20 21 19 15 12 11 13 12
40 39 39 37 35 34 34 42 51 36 36 34 38 36 41 49 54 55 40 49 49 51 54 48 51 49 45 43 41 38 35 34 33 30 27 27 26 24 24 22 23 23 25 22 21 17 16 16 16
41 40 41 40 39 38 36 38 52 51 52 38 42 47 39 45 43 44 45 39 54 50 58 54 48 54 51 46 47 45 43 40 37 37 34 31 31 28 28 26 26 25 26 23 21 20 20 19 19
40 42 43 43 42 42 42 40 52 52 49 46 42 55 46 49 44 38 37 41 46 56 53 60 55 52 55 53 51 49 47 45 44 42 39 37 35 33 32 30 30 31 29 25 22 19 21 23 24
39 43 43 44 44 46 48 49 43 51 60 57 59 60 54 51 38 34 35 36 43 48 59 57 59 60 55 57 53 53 53 51 51 47 50 43 39 37 38 33 34 34 32 30 28 24 20 21 16
40 42 42 38 41 41 39 46 41 41 48 57 60 59 60 60 60 64 59 60 61 46 54 58 59 59 62 56 60 63 61 58 53 55 51 46 46 42 43 38 39 37 35 35 28 21 20 18 18
40 42 41 37 35 36 39 45 41 40 45 46 47 51 52 57 59 60 52 48 55 56 49 57 63 61 60 64 63 64 67 64 59 58 63 50 51 45 48 44 43 41 40 41 39 28 20 16 17
34 38 38 34 32 24 29 45 42 43 45 46 47 48 52 52 54 54 52 45 46 50 50 47 62 63 63 65 67 66 63 66 68 58 57 59 53 46 49 47 46 47 43 45 40 30 22 16 15
32 34 34 38 33 23 24 31 38 43 43 46 46 48 51 46 46 48 44 46 46 46 42 48 52 65 66 67 67 68 71 69 67 66 64 66 53 61 46 48 49 52 46 50 49 30 20 17 17
31 28 37 43 35 26 30 37 46 50 47 44 42 46 45 44 45 47 44 40 44 42 43 45 49 55 70 74 72 73 72 66 69 65 67 55 59 61 50 52 56 55 45 52 45 43 30 26 21
30 36 41 38 35 40 40 41 44 48 43 36 39 41 43 45 44 43 42 42 43 45 42 46 51 41 65 70 75 75 77 75 73 74 69 62 77 63 57 54 60 60 54 45 47 35 35 34 35
37 35 33 28 28 40 46 54 52 51 47 48 44 46 46 46 46 44 44 43 45 46 44 41 48 49 49 65 72 77 79 78 79 68 68 64 66 73 64 65 62 57 49 44 51 50 41 34 31
38 32 22 30 34 40 44 59 45 45 42 37 34 34 42 46 49 49 48 46 45 43 41 39 43 50 49 49 71 72 83 81 85 82 68 77 69 62 77 62 60 62 61 57 60 42 40 48 44
33 29 33 38 39 47 37 37 37 29 26 26 30 31 35 36 42 48 51 49 47 44 40 41 41 45 51 52 50 75 71 78 77 80 86 65 69 73 72 68 61 61 74 59 56 56 51 53 47
31 36 32 34 38 35 32 25 28 20 16 21 26 32 34 33 34 40 39 42 43 44 47 44 42 43 45 43 49 53 72 64 75 81 86 88 80 76 75 71 68 62 62 61 57 52 49 46 45
38 42 40 38 34 25 29 29 17 22 20 20 22 34 40 41 31 28 33 36 38 39 43 44 42 41 44 46 47 48 52 50 44 49 77 87 77 81 73 68 66 62 56 54 59 63 52 50 41
33 35 26 37 28 29 29 28 23 23 23 22 27 35 41 42 42 40 38 37 39 38 39 39 38 36 39 44 48 51 52 55 48 45 45 62 82 82 89 69 56 65 53 52 45 47 33 40 24
37 38 31 33 34 37 27 25 34 33 31 24 28 34 40 44 46 43 42 43 44 42 40 40 40 40 39 40 42 45 47 50 49 47 46 43 61 54 47 57 66 71 69 55 33 44 46 28 19
35 34 34 36 32 38 37 30 25 40 39 30 29 38 41 46 48 46 45 43 44 44 43 43 43 43 43 42 44 45 47 47 46 44 43 44 40 39 47 54 67 60 51 40 43 49 45 42 26
39 30 32 33 45 40 31 28 33 32 35 43 32 39 43 40 46 31 34 38 42 44 43 43 45 48 48 48 46 46 47 49 49 48 46 43 42 41 38 40 41 46 49 42 46 42 39 36 26

GFSSGP_500_spd_069.txt.gz
Wind_Speed
44 41 38 38 36 32 23 23 27 33 35 38 37 30 32 26 20 14 15 14 17 13 11 7 15 13 11 9 6 4 4 2 4 6 8 9 9 10 8 9 7 7 8 9 8 9 9 9 10
47 46 43 41 40 36 25 30 30 32 37 42 42 34 31 28 24 22 21 23 23 22 20 18 16 12 10 8 9 7 5 4 2 4 6 8 9 9 9 9 9 8 7 8 8 8 9 11 11
49 49 48 47 45 38 30 33 34 35 38 40 45 39 32 27 24 23 25 26 25 24 22 16 16 10 9 10 12 11 7 5 6 4 4 4 6 9 10 11 10 10 7 8 9 10 11 12 12
49 49 51 52 46 39 33 36 34 35 40 41 44 45 39 33 27 27 27 27 29 27 23 24 19 18 12 11 13 14 10 8 8 7 5 5 6 7 8 9 10 9 8 9 10 11 11 12 12
52 51 54 53 50 42 36 39 38 35 42 44 44 47 47 36 31 29 30 33 34 32 28 24 24 23 17 15 15 16 14 10 10 10 9 7 8 7 8 9 10 10 9 9 10 9 9 10 11
47 53 57 55 49 43 40 42 41 40 48 48 46 46 48 45 40 35 35 36 36 35 32 29 29 26 23 20 18 17 17 14 11 12 12 11 10 10 10 10 11 10 9 9 10 9 10 10 9
44 46 50 53 51 47 43 43 44 43 44 53 51 49 51 48 46 43 37 38 38 37 36 33 33 31 26 23 19 20 19 16 13 12 13 12 13 13 14 12 11 11 10 10 12 9 10 13 13
41 45 47 48 46 43 39 46 47 44 45 47 53 55 52 54 51 46 44 43 41 36 36 40 33 31 28 27 25 23 21 18 17 15 13 14 13 13 15 14 12 11 10 11 12 13 13 15 17
39 44 45 43 41 33 31 40 50 52 51 50 52 58 62 61 60 56 54 46 45 41 39 39 41 40 35 34 32 30 27 24 21 18 17 16 13 14 14 14 13 13 13 14 13 13 14 14 16
39 41 40 39 39 36 34 42 51 55 55 55 57 55 56 64 65 62 61 58 51 45 42 41 39 41 43 46 40 37 32 29 25 23 20 18 17 15 14 14 16 16 17 18 16 14 16 16 16
40 41 41 39 39 41 40 44 50 55 58 59 62 59 56 57 62 65 65 61 59 55 53 47 45 46 45 45 46 43 38 33 31 27 25 23 20 18 19 19 18 18 18 20 20 18 17 16 18
43 43 43 40 41 42 42 44 46 57 55 58 62 64 65 64 59 57 58 56 56 58 58 48 54 48 50 47 47 42 40 38 35 33 30 28 26 24 23 23 22 21 22 23 22 20 20 19 18
46 47 47 44 43 43 43 46 46 48 52 61 61 64 67 65 65 61 53 52 43 39 42 45 54 48 46 47 48 45 41 41 40 38 35 36 33 30 28 28 27 26 25 26 26 25 25 25 23
44 45 46 46 42 43 47 46 49 45 52 60 63 63 65 65 63 64 63 57 45 37 38 42 46 50 61 46 49 50 47 44 41 41 41 39 40 34 33 33 32 32 30 29 29 27 29 29 30
40 44 45 45 45 44 46 47 43 42 54 59 60 64 66 66 66 64 63 62 57 50 45 40 44 48 51 61 47 47 51 51 50 44 44 42 45 44 36 39 37 37 39 31 33 32 32 35 33
36 41 44 43 44 42 41 46 40 39 44 62 64 61 61 64 66 65 60 54 54 47 43 44 46 46 50 54 57 47 47 52 50 49 50 45 49 46 43 40 42 44 45 35 35 37 37 37 39
32 35 38 39 40 43 44 50 46 42 46 48 63 67 63 64 64 64 60 56 55 54 49 38 38 41 48 49 53 57 54 54 59 53 56 60 57 55 44 46 50 49 49 41 40 40 41 42 42
31 35 36 40 37 43 47 52 52 49 47 52 56 66 72 69 64 63 67 64 60 55 52 42 31 39 35 40 44 42 49 61 59 63 63 60 58 54 43 48 50 54 58 53 45 44 43 43 44
33 35 38 40 42 46 50 54 55 54 50 49 51 57 66 71 70 69 67 68 64 60 54 41 45 50 41 48 49 51 49 51 62 66 62 66 56 61 54 62 56 58 58 53 50 47 49 47 44
39 40 42 43 44 48 48 52 54 55 52 52 49 51 59 64 70 77 75 70 67 62 60 57 49 48 48 51 56 56 52 59 63 63 66 56 62 72 64 63 64 62 69 59 57 58 53 51 49
38 42 44 47 46 50 51 53 52 54 53 54 51 50 52 55 61 66 68 70 67 63 59 53 47 46 46 48 51 53 50 56 68 65 59 57 62 68 53 49 61 66 65 67 60 67 64 59 49
37 36 43 45 49 51 49 55 50 50 53 56 56 53 53 55 58 61 63 60 57 55 59 58 51 51 51 49 51 53 51 49 57 66 72 67 56 53 58 63 62 42 56 55 62 71 67 55 59
37 33 35 39 45 47 48 52 49 47 47 52 57 57 56 57 59 62 58 54 50 50 55 57 54 53 52 51 50 48 50 50 53 53 58 71 72 68 57 60 54 67 54 52 50 57 68 57 56
35 38 36 36 40 50 41 48 43 41 42 45 58 57 59 58 53 43 43 46 50 50 51 50 52 52 50 48 48 47 47 51 52 54 53 56 59 70 77 74 64 70 65 63 63 59 64 50 62
38 42 45 43 41 42 41 44 27 26 32 40 50 66 63 59 55 44 46 48 50 49 51 50 48 48 48 46 48 49 49 51 53 55 57 55 53 51 52 62 66 55 57 62 62 63 63 65 59
43 46 45 50 49 46 45 46 28 28 30 30 37 54 56 57 51 50 50 49 48 45 46 48 52 53 53 50 50 51 51 51 50 51 55 58 53 53 52 47 53 58 60 59 57 58 69 74 67
54 52 56 59 45 42 46 38 18 29 36 31 36 33 50 44 43 45 46 50 47 44 37 36 40 41 43 47 51 54 52 47 49 49 51 51 54 55 53 51 51 52 55 57 53 54 58 55 60
46 43 44 42 43 52 44 41 35 24 25 29 29 35 39 40 43 46 46 44 42 38 36 36 35 37 37 37 43 52 54 50 49 50 50 49 50 48 49 49 43 43 42 42 47 46 45 52 49
33 30 31 35 32 37 35 26 29 31 34 36 33 41 39 42 41 48 51 50 53 46 45 44 43 41 40 39 39 41 46 49 51 52 52 50 48 49 47 48 48 46 42 43 37 41 40 41 41
27 25 25 27 36 26 25 24 28 25 29 34 34 34 30 33 47 47 50 49 49 50 49 47 45 44 43 42 41 41 41 43 44 45 47 49 51 51 49 47 46 45 46 44 44 41 36 36 45

GFSSGP_500_spd_072.txt.gz
Wind_Speed
39 37 37 36 34 30 26 25 28 35 36 37 37 32 28 27 24 22 17 16 13 9 7 2 5 10 9 8 2 3 2 2 3 4 5 6 7 7 7 8 10 11 11 10 9 8 9 10 11
43 42 41 41 38 33 28 28 28 32 38 34 38 34 33 31 29 26 23 14 15 13 14 11 7 9 8 6 3 3 3 1 1 4 3 5 7 7 8 8 9 9 9 9 9 9 9 9 11
49 47 45 45 43 35 29 28 33 34 37 39 35 40 36 36 35 32 26 20 18 17 18 15 9 8 6 7 6 6 5 2 1 2 3 4 5 6 8 8 9 10 10 10 10 10 10 9 10
49 48 51 48 43 39 33 32 32 40 40 35 39 41 41 39 38 37 29 24 22 21 22 19 15 11 10 9 7 7 7 6 3 2 3 2 3 5 6 9 10 9 8 8 10 11 11 11 11
51 50 52 51 47 40 35 36 34 38 39 40 39 40 43 43 41 40 34 27 26 26 25 24 19 18 16 14 12 10 8 7 5 4 4 4 2 3 5 6 8 9 8 9 11 13 15 14 14
51 53 57 57 51 42 39 38 36 39 40 41 41 43 44 48 42 41 41 29 26 26 27 28 24 23 19 19 16 14 12 8 8 8 7 6 4 5 6 7 8 9 8 10 12 13 13 15 15
49 49 53 54 52 49 41 41 43 43 42 42 40 44 45 48 50 44 40 32 31 29 30 30 30 25 26 23 22 18 14 15 13 10 10 9 8 8 8 9 9 8 8 9 12 13 13 15 17
46 48 50 52 49 49 46 43 42 43 47 45 44 45 49 50 52 53 48 44 36 34 33 31 30 28 30 27 23 21 19 19 18 15 14 11 11 11 12 10 9 10 10 11 13 14 15 14 15
42 47 46 45 44 37 36 44 49 48 52 52 48 45 51 53 56 54 52 51 45 38 35 32 30 29 28 30 31 29 25 24 22 20 17 17 16 13 12 9 10 11 13 14 17 17 16 16 15
37 41 40 39 38 35 35 41 46 52 52 57 56 54 52 54 60 56 55 50 49 46 39 36 32 30 30 30 29 31 33 33 29 26 21 20 18 16 13 11 10 12 13 14 17 18 18 19 16
35 36 37 36 38 39 38 44 46 49 52 55 58 58 59 57 54 59 61 58 51 49 46 44 37 35 34 34 32 29 30 31 33 31 27 23 21 19 18 17 16 16 16 17 18 20 20 20 18
38 40 41 40 42 41 37 43 48 50 47 54 60 61 61 63 59 58 55 55 58 56 50 48 46 43 42 41 42 42 39 35 33 33 32 27 25 23 23 24 23 20 20 20 20 23 23 24 23
42 42 42 42 41 41 40 43 46 45 50 56 58 62 63 63 64 65 62 59 57 53 54 58 57 51 44 45 51 46 43 40 35 34 36 34 33 30 30 33 28 25 23 22 24 27 27 27 26
43 44 44 44 41 43 43 41 45 44 52 54 58 60 63 65 64 65 65 62 60 57 53 50 50 48 55 57 57 47 41 43 41 38 38 39 39 41 31 40 34 31 28 26 26 30 32 30 31
41 43 44 43 41 41 43 42 39 44 47 54 53 58 63 65 66 64 65 65 64 61 57 48 46 47 49 49 53 55 53 45 46 44 44 40 40 41 45 38 40 36 37 34 29 33 34 36 33
37 42 43 42 45 42 43 43 41 46 48 50 53 55 59 63 65 65 64 65 64 63 56 51 49 45 48 51 50 44 42 43 47 50 47 47 43 45 49 46 44 40 42 43 36 30 41 41 35
31 36 40 41 42 45 47 48 44 48 52 53 54 55 58 61 65 67 66 66 64 64 61 57 49 47 42 43 46 48 50 51 47 49 53 48 53 54 54 52 47 48 44 44 42 34 44 47 34
31 34 36 39 39 44 47 49 48 49 51 51 55 58 59 61 65 68 70 69 69 67 66 58 50 48 42 41 43 47 50 47 53 49 49 58 55 57 61 60 55 51 43 34 43 45 50 43 46
31 33 35 37 39 41 42 46 48 50 50 51 52 56 62 63 61 71 71 70 70 70 70 63 54 46 42 40 42 46 42 39 47 46 52 65 61 59 65 59 55 59 54 50 51 53 42 49 52
36 39 39 41 41 45 46 43 46 50 52 51 51 53 56 61 63 64 69 75 74 70 69 67 59 51 44 43 41 47 46 45 47 50 51 59 59 60 64 59 60 73 65 54 56 47 54 54 55
32 34 37 40 41 46 50 45 49 50 52 52 53 51 55 56 57 64 65 68 72 75 74 71 65 59 53 53 54 55 55 56 55 55 54 57 58 62 60 61 61 68 68 55 57 54 60 58 58
32 35 39 42 44 46 44 55 48 50 51 52 50 51 52 54 55 61 65 65 67 68 71 74 72 70 68 62 57 55 53 51 54 58 58 57 56 60 65 61 62 67 60 64 68 70 52 73 58
34 36 38 41 45 51 49 52 52 48 51 47 51 48 54 55 55 57 61 60 60 62 64 64 63 62 60 60 57 54 55 54 52 53 57 56 56 56 57 54 60 58 60 61 68 56 43 37 35
35 37 39 43 44 55 46 44 57 39 39 42 44 49 52 60 59 58 58 60 59 58 57 57 58 58 58 57 55 56 58 55 53 52 53 55 54 57 52 53 53 57 61 41 59 51 41 46 48
36 40 47 51 50 57 48 48 52 30 40 34 32 38 48 54 62 58 57 56 57 55 52 55 53 49 49 50 52 55 56 55 55 55 53 53 53 52 52 48 48 53 53 61 44 57 55 64 60
42 44 46 53 56 57 51 60 41 41 48 41 38 37 41 48 56 57 55 55 53 50 45 45 45 48 49 51 49 52 54 54 55 55 56 54 52 51 52 52 48 48 48 49 46 53 51 52 58
45 45 43 45 47 49 46 41 43 46 39 38 37 36 32 42 39 54 57 56 50 47 48 49 45 48 47 49 54 57 54 55 55 55 55 54 52 51 50 52 52 52 50 48 46 45 41 42 42
43 43 42 42 43 43 38 35 25 25 38 32 26 30 35 37 42 40 51 56 55 55 56 56 55 48 43 43 45 51 59 58 57 55 54 52 51 51 49 49 49 50 49 48 46 43 42 41 36
36 36 37 37 33 30 36 33 30 32 32 34 28 30 32 33 35 35 32 41 47 46 53 60 59 50 48 42 43 46 48 53 57 59 55 52 50 52 51 50 47 48 47 45 44 39 33 29 31
30 32 33 34 30 30 34 34 23 20 34 31 28 32 36 35 36 42 35 35 38 43 47 52 54 56 52 51 52 50 44 45 46 49 53 54 53 51 51 51 50 46 47 45 41 41 35 34 33

GFSSGP_500_spd_075.txt.gz
Wind_Speed
43 40 35 33 33 31 28 28 30 31 31 34 34 32 30 27 22 21 17 15 16 11 7 6 4 2 3 4 2 2 2 2 4 6 8 10 9 9 8 8 10 10 11 10 10 11 11 11 11
41 44 38 36 36 32 29 29 30 31 32 34 35 35 33 29 24 25 23 20 21 17 11 9 5 3 2 1 1 2 2 1 2 4 6 6 7 7 8 8 8 9 10 10 11 11 12 13 13
47 45 46 41 38 33 32 33 32 32 31 34 35 38 36 33 30 30 28 27 22 17 15 12 9 5 4 3 0 1 2 1 2 4 4 4 5 6 6 7 7 6 8 9 11 12 12 14 15
52 49 48 48 39 35 34 38 36 35 33 33 33 34 37 38 36 34 33 30 30 24 20 16 12 9 6 6 4 2 2 2 1 3 2 2 3 4 5 5 6 7 7 8 10 12 13 14 15
52 50 50 47 43 36 35 39 37 38 38 38 35 34 35 41 40 39 37 35 35 32 27 21 16 12 13 10 7 6 5 4 2 2 1 0 1 0 2 4 6 7 7 8 10 12 13 14 15
55 56 52 50 47 41 36 40 39 39 38 39 39 38 33 36 43 42 41 40 39 38 34 28 23 20 15 15 14 10 8 7 5 6 5 5 4 4 4 5 6 7 8 8 10 12 12 14 16
53 53 55 51 49 44 40 41 42 40 38 40 38 37 41 39 41 47 47 44 41 40 36 33 28 25 20 18 18 17 12 8 8 6 8 8 10 10 9 7 9 8 8 10 11 14 14 13 15
48 53 53 56 53 45 44 43 43 42 41 40 39 39 42 43 43 44 48 49 43 35 33 31 27 26 25 22 21 18 18 15 11 10 11 10 10 11 13 14 11 9 9 10 12 14 15 14 15
45 47 51 46 48 44 42 48 45 41 42 45 44 43 42 43 44 45 45 47 48 42 33 33 32 29 28 25 25 23 22 21 17 16 16 14 14 15 14 12 10 9 9 11 14 15 16 17 17
37 43 42 40 42 41 39 42 45 52 50 47 46 47 46 46 44 49 46 47 48 47 41 37 34 33 32 27 26 25 25 24 24 21 23 20 18 18 16 14 14 11 11 11 14 15 17 17 18
32 34 38 39 43 40 42 42 43 47 51 50 55 55 53 50 51 49 47 47 50 50 49 41 36 34 33 30 29 30 28 26 26 24 22 24 23 22 19 19 18 17 16 16 15 16 19 20 19
33 35 37 36 39 41 39 39 40 41 43 51 53 57 57 56 54 53 52 49 49 49 51 49 48 42 37 34 33 33 32 30 28 28 25 25 25 23 24 24 24 23 22 21 20 18 19 21 22
36 37 37 37 37 38 37 37 39 41 45 48 51 56 58 56 56 55 55 53 49 54 54 54 49 47 45 42 40 38 37 38 37 35 32 30 29 30 30 28 34 27 29 27 25 23 21 23 24
39 39 40 41 40 40 39 39 40 41 46 47 50 52 58 59 58 58 59 58 55 53 55 58 54 52 47 44 42 39 40 44 45 41 36 37 36 36 37 34 38 33 35 33 29 30 29 27 28
33 36 40 43 44 44 45 41 43 44 46 48 50 54 56 59 61 61 61 62 59 56 55 55 56 55 50 49 51 60 59 57 46 41 45 43 41 41 36 36 36 43 37 46 34 34 32 33 34
28 31 34 39 41 43 46 41 45 48 48 50 50 54 56 58 61 63 63 63 61 59 58 59 56 51 48 49 48 50 52 54 52 53 51 53 50 43 37 43 43 49 45 44 33 35 38 38 38
30 35 35 36 36 37 41 43 42 46 47 50 53 53 57 59 61 62 64 65 64 63 61 61 59 54 48 44 46 48 53 53 54 54 54 59 54 50 47 44 45 46 49 50 48 46 43 45 43
30 32 34 37 38 40 40 44 39 41 46 46 51 55 56 59 60 63 63 64 65 66 66 65 62 57 49 48 48 51 48 51 49 49 56 55 44 51 54 53 50 53 52 51 49 51 48 43 41
30 31 33 34 36 38 38 42 41 41 41 44 48 54 56 58 60 62 65 66 67 68 68 67 64 59 54 47 48 51 50 47 44 44 43 41 56 50 51 57 60 56 59 56 55 56 51 48 49
31 35 38 38 40 44 43 41 43 43 43 43 43 47 53 58 59 61 64 66 69 70 69 67 65 63 59 57 50 52 50 48 48 46 42 47 48 59 52 52 62 61 61 63 61 55 53 54 55
25 28 29 30 34 37 39 38 41 43 47 50 49 46 45 48 55 60 62 64 65 68 70 71 71 71 63 57 55 54 50 50 52 50 42 39 45 49 54 60 56 57 68 63 61 61 56 59 58
26 31 32 33 35 36 39 44 37 42 41 44 46 49 51 52 53 55 60 63 63 65 67 69 70 73 73 68 66 55 53 49 53 54 53 51 49 52 56 55 58 57 56 60 61 60 61 64 62
27 31 34 36 39 43 41 47 42 44 44 43 46 50 54 57 59 59 57 59 61 63 65 68 68 69 71 69 69 69 58 55 62 65 63 61 55 51 55 55 54 55 56 54 60 64 60 62 61
31 33 36 39 41 48 45 50 54 49 50 49 47 49 52 51 56 58 60 59 58 61 63 61 64 64 65 65 65 64 64 65 66 67 62 62 57 54 55 57 59 60 58 58 55 59 62 63 59
32 35 39 43 43 46 47 52 50 49 50 52 46 46 47 41 48 58 61 61 60 60 61 60 58 57 56 54 55 55 56 56 56 58 60 61 57 53 52 53 53 53 51 52 56 62 59 53 53
34 35 37 45 45 50 47 52 49 50 50 44 40 44 45 41 38 40 50 59 58 59 59 59 57 57 53 51 53 52 52 54 55 56 58 58 57 55 54 53 52 52 49 51 53 53 49 54 47
36 37 39 42 44 48 49 49 42 41 41 37 35 38 36 37 41 41 41 44 57 57 59 59 56 54 54 51 49 47 48 48 51 55 58 59 57 57 56 55 53 52 52 51 54 55 48 46 40
36 38 38 38 41 44 43 43 37 33 29 34 30 31 32 29 32 37 37 44 47 54 59 60 60 55 54 54 48 47 46 46 52 56 56 58 59 59 57 53 53 53 51 50 51 52 50 44 36
35 35 36 36 35 38 39 34 29 29 29 26 29 35 39 40 32 36 39 38 42 47 48 59 60 58 57 55 54 52 47 47 50 55 58 57 57 57 55 51 50 51 49 46 46 47 48 46 43
34 33 32 32 35 37 34 26 25 27 29 41 29 25 27 35 38 36 39 38 35 33 35 44 55 62 61 58 56 55 51 52 53 54 55 58 60 57 53 51 50 50 49 46 43 41 41 40 40

GFSSGP_500_spd_078.txt.gz
Wind_Speed
42 41 38 34 33 32 33 34 35 32 33 34 32 32 29 26 24 21 16 17 15 13 12 12 9 6 4 2 2 2 2 2 2 3 7 8 10 11 10 9 8 9 8 8 9 11 13 13 13
45 41 41 40 37 33 31 36 34 33 33 32 34 35 32 32 28 25 21 22 18 16 14 12 10 6 6 8 5 4 3 2 2 3 5 6 8 8 8 6 5 6 7 7 8 9 10 11 12
49 45 45 46 41 36 34 36 35 34 32 33 35 35 36 36 33 29 27 24 22 20 20 17 13 10 6 7 8 7 5 3 1 2 3 4 5 5 4 4 4 5 6 8 9 9 10 11 11
53 50 47 48 44 37 40 38 36 37 34 32 32 37 37 39 37 34 30 29 27 25 22 19 16 11 8 8 7 6 4 3 1 1 3 4 4 2 2 2 4 5 6 8 10 11 11 11 12
59 56 51 50 48 44 39 41 40 40 38 34 33 35 39 40 40 39 35 33 33 30 27 24 22 17 12 11 10 8 4 2 2 2 4 5 5 5 3 1 2 4 7 9 11 11 11 12 13
60 58 54 51 47 48 45 44 43 42 41 39 38 37 37 39 41 41 41 39 36 33 30 29 27 24 20 17 15 14 10 5 4 4 5 6 6 6 5 5 5 7 9 10 10 11 12 13 14
59 59 56 53 51 54 50 47 42 44 41 40 39 43 39 38 41 41 42 43 41 39 36 33 32 29 25 20 17 17 16 13 9 7 6 8 9 9 8 8 8 9 10 10 10 10 12 13 14
51 55 57 53 54 54 52 46 43 43 45 42 38 42 40 41 40 40 41 45 45 43 41 38 35 31 27 24 20 20 16 16 15 11 7 8 10 11 11 10 11 12 11 11 11 12 13 13 13
46 48 54 49 53 52 52 49 45 43 42 45 42 40 40 40 40 42 43 42 47 44 43 40 37 30 26 25 24 22 22 19 18 16 13 15 13 13 15 14 13 12 12 13 13 14 14 13 13
42 45 43 48 50 44 45 48 47 48 43 45 44 43 42 40 40 36 37 41 44 42 44 39 35 34 30 30 28 24 25 24 24 22 21 21 22 20 17 17 17 15 15 14 15 15 15 15 15
33 39 41 43 43 44 47 48 44 49 47 47 47 40 40 41 40 40 40 39 38 45 44 43 36 34 34 35 31 29 27 27 28 27 24 24 23 22 21 20 20 19 20 19 19 20 19 17 16
29 32 35 38 42 44 41 45 44 46 46 45 46 47 48 48 49 46 42 41 41 42 42 44 43 40 37 36 36 34 33 33 32 30 28 27 26 25 25 24 24 25 24 24 24 25 25 22 20
31 32 33 34 34 34 37 37 38 42 44 43 46 47 49 48 50 51 51 50 49 47 48 47 46 47 44 41 39 38 39 39 39 36 33 32 31 31 30 30 29 29 29 29 28 28 29 28 25
35 35 36 35 35 35 35 35 38 41 44 44 44 46 48 51 50 53 55 54 52 52 51 52 50 48 48 48 44 44 41 39 36 37 38 38 40 41 40 37 37 35 35 33 34 32 33 32 31
36 38 40 41 40 38 38 38 38 40 43 44 49 48 49 50 52 52 53 55 54 52 51 54 55 52 52 55 50 46 47 50 47 46 46 43 44 49 48 50 43 39 43 39 35 36 37 38 35
29 32 35 40 40 41 41 40 43 42 43 45 47 49 49 51 54 55 53 55 55 56 56 52 53 54 56 53 52 52 51 50 48 47 47 50 50 48 46 50 49 42 46 41 39 40 38 40 41
27 29 31 34 32 34 36 38 43 43 45 46 47 49 51 53 54 54 55 56 57 59 58 58 56 54 54 56 55 51 47 47 48 48 49 57 54 53 51 53 54 54 50 44 45 44 43 43 42
26 25 27 29 31 33 35 37 36 39 42 45 47 49 52 54 55 56 57 59 60 61 61 61 60 59 58 55 53 50 48 49 50 47 51 53 52 59 59 61 59 61 47 56 54 53 47 47 47
26 27 29 31 32 34 33 36 37 37 41 43 44 48 51 54 57 60 60 60 61 62 63 63 63 61 61 59 56 53 46 47 51 48 47 49 54 54 54 62 51 63 60 55 52 50 49 49 47
31 34 34 36 38 40 38 40 40 36 35 37 39 44 48 53 57 58 60 62 62 62 63 64 65 65 65 64 60 55 49 46 52 51 54 51 50 49 55 57 50 53 65 65 56 53 54 56 52
21 23 25 27 31 30 33 33 30 34 34 35 39 43 46 48 52 59 62 63 63 64 65 66 67 68 67 65 64 61 56 50 49 53 50 51 53 49 47 48 48 58 58 62 59 61 58 60 58
24 27 28 29 33 32 38 37 33 36 36 38 38 42 42 45 49 55 58 63 67 66 66 66 66 66 68 70 70 67 60 55 59 49 53 56 47 47 49 46 48 58 56 47 50 54 58 55 56
27 28 31 33 35 39 33 43 41 39 40 41 44 46 48 51 52 52 55 58 63 65 69 66 66 66 65 66 68 67 67 67 62 53 56 57 54 55 52 51 49 47 46 49 51 50 48 46 52
29 30 33 34 36 40 36 43 44 40 43 49 47 48 49 50 55 60 60 60 61 64 67 69 71 68 67 67 67 66 62 61 62 63 66 67 66 61 53 55 55 55 53 48 53 51 51 55 54
29 32 33 34 29 31 29 47 43 47 50 48 52 52 51 54 52 57 65 68 67 66 69 70 71 72 69 68 67 65 64 64 61 57 62 67 65 55 54 58 61 60 57 54 54 55 54 55 55
34 29 33 39 39 41 40 47 38 47 53 50 55 56 54 44 42 50 63 67 67 66 63 68 71 69 69 66 62 59 59 61 60 61 62 60 61 58 59 61 64 61 59 57 54 52 50 51 51
35 29 32 38 40 45 42 44 47 45 46 47 48 48 44 43 40 46 57 62 54 52 50 54 62 65 62 61 56 54 54 54 53 54 58 59 59 60 60 58 57 57 56 55 54 51 49 51 49
28 33 33 37 40 42 39 42 34 32 29 40 33 30 38 38 36 37 46 51 54 50 49 50 56 59 61 59 57 56 54 52 53 55 58 61 60 61 57 57 56 55 56 56 54 52 49 48 48
31 28 33 36 38 40 43 39 34 31 30 35 32 34 36 38 40 38 42 45 52 52 49 46 46 54 61 62 61 60 59 60 60 55 55 57 59 59 56 55 58 58 55 53 52 52 51 49 46
25 29 33 36 34 34 31 27 29 26 31 36 32 33 37 45 51 47 43 45 44 50 50 46 46 49 53 62 61 60 60 61 59 57 57 53 57 59 59 58 55 55 56 53 52 52 52 50 46

GFSSGP_500_spd_081.txt.gz
Wind_Speed
40 37 35 33 35 35 32 28 23 31 40 36 36 29 29 25 22 28 27 20 16 15 13 15 13 11 10 7 4 6 8 8 8 6 5 6 5 6 7 8 8 8 8 8 9 9 10 11 11
45 42 38 38 38 35 28 21 25 31 40 41 32 32 32 28 39 27 27 23 20 18 18 15 16 14 11 11 8 8 7 7 8 7 6 5 4 3 4 4 4 5 6 7 8 8 9 9 10
49 45 43 42 40 38 18 22 25 38 41 36 34 35 40 45 34 30 27 26 24 22 18 16 15 15 13 10 11 10 8 8 7 6 6 6 5 4 3 2 2 2 4 5 7 8 8 8 9
56 52 47 49 45 39 27 22 30 42 37 38 40 31 44 42 39 34 31 31 25 26 23 19 17 17 14 11 9 9 8 6 6 5 5 5 5 4 2 2 1 1 3 5 7 7 8 7 8
59 57 53 52 47 34 36 31 45 34 40 39 38 38 46 42 40 37 36 35 31 29 28 23 19 17 16 13 12 10 9 6 7 7 6 7 6 6 5 4 3 2 4 5 7 7 7 8 9
60 62 60 54 50 46 49 50 46 40 40 38 38 45 49 42 41 39 39 37 36 33 32 29 26 24 22 19 17 16 14 13 13 10 8 8 7 8 7 6 6 5 6 7 8 7 7 8 10
59 61 62 57 51 35 52 46 48 44 40 44 50 41 49 43 40 40 39 40 40 38 36 33 30 28 25 24 21 19 19 16 14 13 12 11 10 10 9 9 9 8 9 9 9 9 11 11 11
56 55 58 59 57 46 57 54 50 44 48 44 44 40 46 45 41 40 39 39 39 40 40 39 36 33 31 30 26 22 22 22 19 17 15 13 11 12 12 12 12 12 12 11 10 11 12 13 12
49 51 58 57 57 59 37 58 48 49 48 44 39 45 46 28 42 41 39 39 38 38 42 43 40 38 35 32 29 29 26 26 22 21 21 19 15 13 14 14 15 15 14 12 12 12 12 12 12
44 47 49 44 50 54 50 63 44 53 46 43 41 44 41 38 40 41 42 41 35 39 39 41 44 43 40 38 32 31 29 28 26 23 23 23 24 23 20 18 16 16 16 16 16 14 15 15 15
35 39 37 38 50 49 51 52 46 48 48 40 43 45 46 43 45 42 39 40 41 43 39 38 38 40 39 39 35 33 32 30 28 28 28 28 26 26 24 21 19 18 20 20 20 19 18 19 18
30 33 37 41 46 43 43 44 48 47 43 42 44 49 45 40 40 42 43 42 42 42 40 39 42 38 37 38 36 37 35 35 32 33 32 32 29 28 26 25 22 23 23 24 25 23 23 24 22
27 29 31 33 37 39 40 41 39 41 44 45 41 43 41 41 41 40 41 43 43 43 39 40 38 38 43 42 42 40 40 39 41 39 36 39 35 32 30 30 28 28 28 28 28 28 27 29 28
27 28 28 29 31 34 35 35 39 40 41 41 41 43 42 44 45 46 49 49 49 48 44 44 44 43 41 43 45 44 42 45 42 48 45 50 44 37 38 36 35 35 35 34 34 32 32 32 33
30 29 31 31 32 34 35 34 35 34 38 39 40 42 41 41 46 49 52 54 54 52 51 50 48 48 48 48 48 47 44 49 51 56 50 54 52 46 43 44 44 44 42 40 39 38 37 36 37
29 31 32 33 36 37 38 34 35 38 39 38 39 41 42 42 44 46 48 51 57 52 53 55 55 53 51 49 50 53 51 55 52 54 46 49 40 38 34 46 49 48 46 45 47 44 43 40 39
22 24 23 23 36 35 39 37 40 42 40 41 42 43 44 45 45 46 48 47 47 49 54 56 56 56 56 58 58 55 52 52 51 52 51 50 55 48 48 50 51 52 51 50 46 46 49 46 43
11 17 23 25 28 31 33 35 37 40 40 42 45 47 48 47 48 48 50 51 52 50 50 53 54 54 54 54 55 57 57 58 57 56 57 56 46 46 48 50 53 53 57 56 53 51 54 47 51
29 25 24 25 30 32 32 35 36 39 40 41 43 45 48 50 50 52 53 53 53 52 51 53 55 56 57 57 56 56 55 54 53 49 47 47 46 42 50 62 56 54 54 54 61 54 57 52 54
28 28 28 30 33 35 34 34 35 35 36 37 40 43 44 47 50 54 56 56 57 56 56 55 57 61 60 60 58 58 56 55 53 52 51 46 46 54 51 54 50 42 55 53 52 50 53 56 59
19 22 24 27 30 29 27 33 31 31 33 36 38 41 43 45 47 50 55 60 60 61 59 59 59 62 62 62 63 62 60 60 58 54 52 47 46 47 55 55 51 45 48 46 48 42 50 50 66
17 20 24 23 26 26 25 30 27 30 33 34 33 34 38 43 46 50 54 57 58 61 63 64 61 62 65 67 69 67 64 63 61 58 54 50 52 53 51 49 51 54 47 47 49 49 52 44 51
19 26 23 24 26 29 27 29 26 26 25 22 35 47 44 43 43 46 50 53 56 60 65 66 69 68 65 67 68 70 68 68 66 65 61 58 55 59 58 58 50 53 53 47 47 48 47 40 42
24 26 27 26 27 30 26 24 23 17 28 40 48 44 48 48 51 54 51 54 56 58 60 62 66 68 69 70 70 69 68 66 67 66 66 63 60 64 64 56 51 53 49 49 45 46 47 46 46
26 27 23 20 20 22 16 21 24 32 44 52 44 51 52 54 55 55 55 57 59 61 64 62 63 66 69 71 71 72 70 69 65 65 62 59 60 64 69 58 54 58 56 55 51 50 50 52 50
24 30 23 28 24 27 31 39 33 31 51 55 47 52 57 55 54 58 60 62 62 60 65 67 68 68 69 72 72 72 71 71 69 66 68 64 59 58 59 59 62 63 66 59 54 54 56 53 51
28 29 29 32 33 35 31 28 20 21 36 46 44 36 46 58 57 43 43 47 53 57 58 61 70 69 72 74 74 73 73 72 70 70 71 67 61 64 62 60 60 58 57 61 55 57 55 54 51
27 29 30 28 31 31 20 24 24 31 35 34 40 50 54 46 40 42 43 42 43 48 54 57 65 67 72 70 70 71 70 72 70 71 72 71 67 66 65 60 60 57 53 54 54 54 53 52 50
28 22 27 29 30 33 35 29 22 35 39 36 40 42 43 39 40 47 45 47 53 51 50 53 53 57 61 57 58 63 63 66 63 64 67 63 63 65 70 53 54 59 56 51 53 51 51 50 50
22 23 25 31 32 34 37 9 22 27 29 35 34 36 40 42 45 50 52 50 54 57 55 52 54 55 57 56 52 56 60 61 60 58 58 59 61 58 79 78 57 57 55 53 50 50 51 51 49

GFSSGP_500_spd_084.txt.gz
Wind_Speed
41 38 36 36 38 36 30 26 21 16 28 39 39 45 33 26 30 31 28 30 18 21 18 16 15 14 11 8 6 6 6 6 8 8 8 8 8 8 6 4 2 4 6 7 8 9 8 9 9
47 43 40 39 44 40 31 23 25 16 35 35 50 39 31 27 35 33 32 34 20 20 18 17 15 15 14 13 11 8 7 8 9 9 10 9 8 7 5 4 2 3 4 6 7 8 8 8 8
55 52 48 45 44 44 33 12 24 29 43 48 47 43 38 43 45 44 28 30 22 26 19 19 16 15 15 14 14 14 11 11 10 9 10 10 9 7 5 4 2 1 3 5 6 7 8 6 7
54 58 55 55 50 42 33 26 13 27 37 46 48 40 39 45 47 38 29 36 25 27 23 21 17 15 14 14 13 13 12 11 9 8 8 9 8 8 6 5 4 2 3 5 6 5 5 4 5
57 60 64 60 54 45 38 26 28 34 25 31 40 31 44 49 46 38 37 38 30 31 28 24 23 20 17 17 14 11 10 10 11 10 10 10 10 8 8 7 5 3 3 4 5 4 4 4 5
63 63 66 64 58 47 48 45 22 37 32 24 31 34 48 52 46 40 40 41 37 35 32 29 28 24 20 18 18 17 15 14 14 12 12 13 12 11 11 11 9 6 5 5 7 7 6 5 6
67 65 66 62 59 53 50 38 40 30 47 33 33 37 41 54 42 41 40 40 39 38 34 33 30 30 26 26 23 22 21 19 18 16 15 14 14 13 12 12 11 10 8 7 7 8 9 10 9
63 60 61 60 58 63 40 48 46 41 46 31 38 38 40 53 43 40 39 40 41 39 38 38 36 35 32 29 29 27 25 24 23 21 19 19 18 16 14 14 14 12 11 9 8 9 9 10 10
50 52 58 60 54 57 52 32 36 38 54 55 31 40 45 56 47 40 40 41 42 43 42 40 40 39 38 36 33 33 30 29 28 26 24 22 20 18 17 15 15 14 13 11 11 11 11 12 12
45 47 50 49 46 33 34 47 25 46 50 48 52 44 46 55 40 39 42 38 40 43 43 41 40 40 40 39 38 36 34 32 31 29 27 23 22 23 23 21 19 18 17 16 14 14 14 14 15
36 40 39 41 33 29 38 42 44 53 56 50 46 48 47 47 43 46 41 48 44 25 47 47 44 42 41 42 41 38 36 34 33 32 29 27 26 28 29 27 24 21 18 17 18 17 18 18 18
31 31 32 32 20 39 46 45 45 47 42 44 53 50 45 46 38 47 44 41 40 43 42 53 45 45 41 41 39 39 36 37 36 35 33 31 30 30 30 27 27 24 23 20 20 21 21 23 23
26 28 31 34 32 42 44 39 39 39 35 39 45 42 48 45 46 38 40 46 46 44 41 52 40 45 45 45 43 42 42 42 44 41 37 37 36 35 34 31 30 28 27 26 25 25 25 26 27
20 27 31 36 36 35 33 33 37 36 36 35 35 37 39 41 38 37 36 39 40 44 43 50 48 26 32 44 41 42 52 50 50 47 43 48 43 43 38 39 37 35 33 33 32 31 30 31 30
19 23 28 29 29 30 31 29 30 32 32 33 32 34 36 37 41 37 37 38 40 40 38 47 51 33 37 40 41 39 42 42 46 50 47 51 53 46 47 46 45 41 41 40 38 38 35 35 36
23 24 24 24 25 27 29 27 26 31 34 34 33 31 33 35 37 41 41 48 46 46 44 42 46 44 43 45 47 46 45 44 44 45 46 46 49 46 54 53 52 49 45 47 42 42 40 40 40
18 18 18 12 15 28 33 30 26 33 34 33 34 34 34 34 35 37 40 44 47 49 48 45 51 51 49 49 49 51 50 50 50 49 49 49 57 56 56 58 53 54 50 51 43 42 41 42 43
3 17 11 10 22 29 28 30 27 32 36 39 38 39 40 39 38 40 40 43 45 46 47 47 52 57 52 55 58 57 58 55 53 51 53 54 55 58 63 59 55 54 52 48 45 44 45 46 44
16 22 22 17 24 29 26 28 28 32 36 36 38 37 40 43 42 43 45 47 49 49 48 44 51 53 55 55 55 58 57 57 58 59 59 55 54 51 54 54 55 44 42 44 50 48 53 49 50
28 33 35 33 34 31 30 32 29 31 33 34 36 39 40 42 47 48 44 47 51 53 55 52 53 56 55 57 58 55 57 57 57 59 61 58 53 49 50 53 53 57 46 51 46 58 48 52 45
24 29 28 29 21 26 33 33 31 33 36 38 40 41 43 42 41 43 49 52 52 54 55 57 55 57 60 58 60 61 59 61 59 60 59 57 56 53 49 46 51 51 47 52 44 45 38 39 40
16 12 19 25 32 30 22 24 20 19 21 25 29 29 31 39 46 52 53 53 56 57 55 58 60 59 61 61 63 62 62 61 60 63 59 56 55 52 47 49 49 52 52 45 51 51 45 53 48
16 19 25 22 21 23 21 25 19 14 20 14 28 39 44 45 42 42 44 46 50 52 55 59 62 62 62 65 66 66 66 65 64 63 63 64 62 57 54 52 51 52 53 52 49 44 47 47 44
22 19 21 21 21 26 14 14 8 15 22 34 39 46 46 42 44 45 47 48 50 53 56 60 60 61 64 65 64 65 69 68 66 66 68 66 61 61 57 58 56 53 52 51 54 54 49 47 44
21 22 21 18 18 20 4 23 15 20 30 39 46 48 48 51 58 56 54 55 55 57 59 61 63 62 62 63 66 66 67 68 69 68 69 68 70 61 65 62 62 56 57 59 56 54 53 48 47
17 16 23 24 21 24 24 25 22 32 42 48 51 54 52 52 56 57 55 55 57 57 63 64 66 68 66 64 65 67 68 69 70 69 70 69 67 68 64 63 63 61 62 63 66 60 56 55 50
25 25 24 29 30 31 23 19 15 20 38 43 45 51 47 48 52 53 47 44 47 49 50 53 58 64 70 73 69 70 71 72 72 71 71 70 67 67 64 71 66 58 59 61 65 60 61 65 58
27 27 30 29 32 28 11 20 13 25 35 43 42 38 40 43 48 55 48 49 48 40 46 50 54 57 61 66 70 72 76 76 76 75 74 72 69 69 61 64 66 56 64 66 68 66 64 62 63
29 23 22 26 29 30 27 24 20 35 40 40 36 39 40 45 44 40 42 46 52 57 48 52 56 61 62 61 62 67 72 71 74 77 77 76 73 72 69 62 61 66 71 72 75 76 61 56 50
26 23 23 27 25 28 27 22 18 32 37 35 34 35 36 40 44 50 51 45 51 55 62 61 58 58 60 60 61 55 60 57 54 58 72 74 75 72 68 70 68 75 76 73 86 77 61 49 45

GFSSGP_500_spd_087.txt.gz
Wind_Speed
38 37 37 38 41 40 34 22 19 20 19 24 19 34 36 38 38 38 26 15 17 20 19 17 15 12 11 10 7 6 8 7 7 7 8 9 10 9 8 7 6 4 2 2 4 5 6 7 6
36 41 44 45 46 43 35 25 20 21 28 25 27 33 40 44 43 40 34 23 20 22 22 19 17 14 13 13 13 10 8 7 7 9 10 10 11 10 9 8 6 4 1 3 4 5 6 5 7
37 41 46 51 50 47 35 27 27 26 27 35 32 32 43 46 50 42 34 28 28 25 23 20 18 16 13 13 14 14 13 11 9 10 10 10 10 11 9 8 6 3 1 2 4 5 5 5 6
45 48 48 54 56 46 39 26 34 20 27 29 34 32 41 46 47 49 44 32 27 24 25 26 20 19 17 15 14 14 14 14 12 12 10 10 10 10 9 9 7 6 4 3 3 3 4 4 5
53 56 57 55 57 53 41 33 40 31 31 25 32 43 39 48 50 56 49 39 34 30 27 28 25 22 20 19 17 16 15 13 13 12 11 10 11 11 10 10 9 8 8 5 3 3 3 4 5
55 60 63 61 57 55 47 40 46 42 15 20 24 35 42 47 54 55 50 42 35 36 33 32 30 26 26 22 20 18 17 16 13 12 12 12 13 12 12 10 10 9 7 6 5 4 4 5 6
54 62 66 66 61 57 53 45 54 49 32 33 31 35 41 53 55 54 50 42 34 38 39 36 35 33 28 27 24 23 22 19 20 19 17 14 13 13 13 12 11 10 9 8 7 7 7 8 6
46 58 64 70 67 62 55 50 54 48 42 38 36 36 41 49 54 52 44 42 38 36 40 40 39 37 35 31 32 29 29 26 24 23 22 19 17 17 16 14 13 11 10 10 9 9 8 8 8
35 52 62 67 67 58 48 57 59 57 56 44 39 44 43 49 52 46 44 41 40 39 41 41 41 41 40 37 35 34 32 32 30 28 26 23 23 21 20 16 14 13 13 13 13 12 11 10 10
35 46 55 58 57 53 41 42 48 53 50 61 40 42 47 54 51 46 41 42 46 39 41 46 47 45 43 42 39 38 37 35 33 30 29 28 26 23 21 21 20 18 19 19 19 16 14 14 13
29 42 44 45 41 38 41 35 36 49 51 39 57 51 51 54 53 49 43 51 44 45 44 52 47 42 41 41 41 39 39 37 35 33 31 30 29 27 24 23 24 23 21 20 19 17 17 18 17
23 25 28 32 31 34 29 30 38 39 41 33 39 51 52 53 48 38 46 49 47 50 54 33 49 51 41 45 47 43 42 39 37 36 35 34 32 30 27 26 28 26 25 23 22 21 21 21 20
16 18 27 30 32 34 30 32 37 38 44 38 35 37 40 40 53 44 41 44 47 49 55 58 26 41 51 52 54 49 44 43 42 41 40 38 36 34 32 32 31 30 30 28 27 27 25 26 25
15 15 24 25 33 32 26 33 39 39 37 37 31 33 35 32 37 48 45 40 37 43 49 54 51 46 44 37 53 52 47 46 41 44 43 45 44 41 39 39 38 36 36 36 35 33 32 31 29
16 17 13 22 36 32 37 26 25 32 38 34 31 32 35 32 34 35 32 37 34 39 37 40 38 50 53 51 48 50 50 36 38 41 50 49 53 50 45 45 43 43 41 43 42 38 37 37 36
21 21 24 27 30 39 36 27 26 28 32 30 31 32 30 28 28 32 32 32 33 35 39 38 40 42 38 33 45 33 28 37 45 51 40 45 52 51 52 50 51 47 48 48 48 46 44 42 41
15 3 6 4 2 11 22 21 20 24 27 29 28 28 26 26 27 27 30 32 37 39 39 48 46 47 43 30 31 41 37 36 40 41 42 41 42 44 40 40 43 48 56 58 50 52 51 46 46
13 8 6 7 5 12 19 22 18 24 28 29 29 29 27 28 28 28 30 31 34 37 41 43 47 49 44 41 41 43 43 46 46 47 46 47 47 48 47 45 45 49 50 46 47 47 59 49 52
13 9 17 10 6 11 10 16 19 24 27 30 32 29 26 27 31 33 34 35 38 38 40 41 43 48 50 48 45 47 51 51 53 55 55 53 52 52 51 50 53 52 52 48 48 48 45 40 45
14 23 26 24 18 18 25 26 30 28 23 23 26 29 31 33 34 35 34 36 40 45 47 47 47 50 55 54 53 51 54 58 57 63 63 58 59 58 58 58 57 58 53 54 53 49 48 45 41
31 31 31 35 32 30 33 40 33 26 28 28 30 31 32 34 37 40 44 48 48 51 53 54 53 53 57 62 61 59 56 57 62 63 62 58 56 57 60 60 58 58 59 56 57 56 51 45 40
26 23 19 37 39 41 38 37 26 19 18 12 16 28 37 43 47 47 47 47 47 48 51 53 52 53 57 62 66 65 63 61 60 62 62 63 61 59 60 60 59 57 60 60 54 54 51 50 41
14 15 21 27 38 40 29 28 5 14 16 19 25 30 33 33 35 33 33 34 35 42 46 49 50 51 51 54 58 63 64 64 66 63 65 64 63 63 63 64 59 62 61 56 53 55 52 46 44
22 23 22 20 15 19 6 19 15 20 20 26 32 35 36 37 35 36 38 40 44 48 50 51 55 58 59 58 55 57 62 63 62 61 66 65 65 64 66 62 61 70 72 62 54 49 50 52 47
24 21 20 22 21 12 13 17 10 17 22 27 35 38 40 42 43 44 47 49 53 57 59 61 61 62 63 63 65 63 60 61 63 62 63 67 68 66 67 67 67 75 74 56 56 52 50 50 49
29 23 17 16 14 12 20 19 10 20 20 29 32 37 43 46 48 50 52 55 54 51 54 59 65 66 67 68 68 67 67 68 66 67 66 66 67 66 67 68 69 74 70 59 52 52 50 51 52
23 24 17 26 26 26 24 22 26 32 33 38 43 46 46 46 42 42 42 33 31 34 34 36 40 45 55 57 63 68 69 70 71 73 74 74 71 68 67 66 70 75 68 64 55 54 57 57 56
26 25 28 27 31 29 24 25 28 27 34 42 40 40 41 39 37 31 34 37 40 45 52 53 47 43 46 48 51 57 61 70 75 76 79 79 77 73 70 65 66 67 68 66 62 54 58 62 62
30 28 29 30 33 30 27 23 27 35 39 39 43 46 40 35 28 34 40 42 46 50 53 54 56 57 56 52 55 59 60 64 68 71 80 83 81 79 73 67 68 67 69 66 59 64 65 70 65
33 35 34 31 22 29 28 17 22 33 42 39 43 37 35 31 30 35 41 45 50 53 54 57 57 55 53 57 58 59 62 64 64 64 74 74 83 84 79 71 70 70 71 67 66 72 73 68 65

GFSSGP_500_spd_090.txt.gz
Wind_Speed
36 39 38 37 38 38 31 19 18 20 22 28 22 26 21 27 32 27 21 24 19 19 17 16 15 12 10 9 9 7 8 8 7 7 6 7 8 9 9 10 9 9 7 5 2 2 2 2 4
33 37 40 45 44 39 31 23 17 24 34 32 25 27 32 30 31 31 29 27 24 16 18 19 17 16 14 12 11 11 10 8 7 8 8 9 10 10 11 11 10 8 7 6 4 4 5 6 7
33 35 38 43 45 41 30 24 24 31 39 40 35 31 35 37 34 35 34 33 33 32 27 22 20 19 17 14 12 12 12 11 10 10 10 11 11 10 11 11 9 8 8 6 6 6 7 8 8
35 36 38 41 40 34 33 27 33 42 46 43 43 39 39 40 36 43 38 40 37 35 31 27 23 19 19 17 14 13 14 12 12 12 12 13 12 11 11 11 11 9 9 8 8 7 8 7 9
35 37 39 37 36 33 34 31 38 42 48 49 40 40 40 43 39 40 47 41 39 37 33 28 25 25 22 20 18 15 15 14 14 14 13 13 11 11 12 12 11 11 11 9 8 8 8 7 8
41 42 40 40 39 38 39 40 44 47 42 47 38 37 45 46 44 44 45 47 45 41 40 35 30 28 25 23 21 19 16 15 15 14 14 13 13 13 13 13 12 11 11 10 10 9 9 8 8
40 41 39 39 42 46 46 44 49 52 47 44 29 30 42 49 48 49 51 49 46 47 45 43 39 34 32 27 25 23 22 19 17 18 17 15 14 14 13 13 14 13 11 11 11 10 9 9 9
38 39 39 43 48 53 54 48 50 56 46 35 35 37 39 47 49 52 51 51 47 44 45 47 44 38 36 34 32 29 27 25 24 21 22 22 19 17 16 16 16 15 14 14 12 11 11 11 10
36 39 40 46 52 58 54 53 56 60 54 39 39 45 43 46 45 47 52 51 43 45 47 47 48 45 43 41 38 34 32 31 29 28 26 26 23 21 20 19 18 18 15 15 15 17 17 16 14
37 39 41 43 47 51 51 53 58 57 67 55 42 46 51 43 49 53 46 44 44 45 49 49 48 49 49 45 42 40 37 35 33 31 29 28 28 26 23 22 20 21 21 20 20 21 21 19 19
37 38 39 35 33 41 36 44 53 63 68 67 51 43 43 54 47 50 48 45 37 43 43 48 48 50 51 51 47 44 43 42 40 38 34 32 30 29 26 24 24 24 23 24 24 23 22 21 22
34 36 33 18 22 23 29 48 62 64 58 68 61 52 54 48 52 50 47 40 41 41 42 52 49 52 52 57 50 51 51 47 42 40 39 36 33 32 31 28 27 28 29 28 27 28 26 24 25
30 29 17 10 11 21 33 49 48 51 54 48 43 61 61 66 55 54 35 37 43 44 47 57 40 43 50 54 53 58 56 52 49 46 44 42 39 36 36 35 33 32 33 32 32 31 31 30 29
25 22 15 10 15 35 39 38 30 38 50 51 38 37 57 50 45 37 38 29 39 47 46 46 53 56 51 47 46 59 58 60 53 49 47 45 44 42 40 40 40 39 37 38 38 37 37 36 34
20 18 17 17 23 36 37 34 47 21 24 34 31 34 36 26 29 28 27 34 31 38 46 45 42 37 50 55 54 50 47 44 49 50 52 51 48 48 46 46 45 44 44 43 44 44 42 39 40
15 13 12 16 22 32 43 37 28 38 38 35 33 34 32 33 34 34 32 34 35 34 36 38 36 29 35 38 34 32 35 30 38 55 57 54 55 45 49 49 50 48 49 48 47 46 46 45 45
9 4 8 7 1 16 45 35 23 24 27 33 32 32 32 31 33 34 36 39 40 37 37 39 39 37 30 31 30 31 32 28 39 49 47 55 57 52 51 44 53 49 52 52 50 48 50 48 51
8 15 13 15 10 11 24 35 17 19 26 27 29 30 30 30 30 31 32 33 36 36 38 37 41 42 41 39 36 35 33 37 34 45 52 45 41 42 40 37 36 38 44 35 41 39 45 45 51
19 26 22 25 10 14 19 13 11 19 25 30 31 31 30 28 27 28 31 33 32 31 32 34 37 41 43 44 43 41 41 44 45 43 45 55 54 48 47 45 45 46 43 41 44 45 44 44 41
29 31 31 23 16 18 21 16 15 23 21 13 19 25 27 28 29 31 33 34 35 36 38 40 42 44 46 46 44 44 45 48 50 50 51 55 56 50 46 48 51 51 50 49 50 52 51 46 44
28 33 30 27 24 21 26 24 26 28 18 19 24 25 23 26 29 33 36 38 39 38 38 39 42 46 49 50 50 50 49 49 50 51 53 53 54 53 52 52 58 59 59 57 57 57 56 52 48
27 29 30 27 32 32 33 31 28 24 21 29 33 32 34 34 35 35 34 31 30 30 30 33 36 40 44 47 51 54 54 57 58 57 58 57 58 57 53 57 59 58 59 61 60 59 57 56 51
21 20 31 32 34 40 37 36 28 28 37 34 29 27 27 26 26 25 24 23 22 26 30 34 36 38 40 45 50 55 57 59 59 60 60 63 62 62 63 63 62 64 66 63 62 63 62 58 56
25 22 25 26 23 33 41 42 29 34 37 33 30 26 26 27 28 29 30 29 29 30 32 36 40 44 48 52 55 57 58 60 61 63 66 64 64 67 69 68 66 68 68 69 70 70 68 69 64
30 30 26 25 22 21 21 28 23 29 35 31 30 30 29 29 32 35 36 38 39 38 38 36 34 37 38 42 51 60 65 64 66 66 65 67 69 69 68 72 71 68 70 69 70 74 71 72 68
34 34 29 27 21 21 22 25 22 27 31 34 35 34 33 34 38 42 43 44 45 48 44 36 35 39 41 42 45 50 52 52 67 72 74 72 73 71 71 72 72 72 72 73 73 65 67 72 61
32 31 31 29 21 24 20 26 31 27 29 29 28 32 38 38 37 40 45 47 51 54 55 52 48 53 55 51 53 54 57 57 56 57 65 77 78 78 76 76 76 75 75 76 74 71 68 67 67
29 30 32 28 29 26 25 28 31 32 35 37 40 42 44 41 43 45 44 44 44 43 45 47 48 48 51 53 54 56 56 57 60 62 61 61 72 82 82 79 78 78 78 81 77 74 76 70 66
25 27 29 34 35 31 28 30 32 31 38 43 47 46 40 39 42 37 34 32 39 41 43 43 43 45 47 49 50 49 51 55 58 61 63 64 64 68 83 87 84 81 80 79 82 78 76 75 65
26 27 33 37 39 35 36 26 23 31 38 42 47 40 41 41 42 36 34 37 40 43 43 44 45 44 46 51 55 58 61 61 57 59 62 62 61 69 70 76 91 87 84 81 81 76 75 71 62

GFSSGP_500_spd_093.txt.gz
Wind_Speed
40 38 37 36 35 34 26 17 16 20 26 34 38 35 31 27 17 17 17 17 18 15 16 18 13 12 11 9 5 4 5 6 7 6 5 5 6 7 9 9 10 11 11 10 8 7 6 7 7
39 42 41 41 41 37 25 19 23 30 32 38 41 39 36 28 25 23 22 21 23 18 12 15 16 16 14 12 10 6 5 7 7 6 6 7 8 9 10 10 11 12 11 10 9 9 8 8 8
35 37 38 43 42 36 26 24 30 34 37 41 44 45 41 34 28 26 24 26 27 27 24 23 22 20 19 15 13 9 8 8 9 9 9 8 9 10 11 11 12 12 11 10 11 12 11 10 10
34 35 37 41 35 26 29 29 34 38 41 46 47 47 47 41 35 31 32 31 31 32 32 30 30 27 23 19 16 12 9 10 11 12 12 11 11 11 11 11 12 13 12 11 12 11 11 11 12
33 35 39 38 30 27 30 30 40 40 41 46 50 50 50 45 40 37 37 38 37 37 37 35 33 28 24 22 19 17 13 11 11 12 13 13 12 11 11 11 12 12 12 12 12 12 12 11 12
34 35 36 34 32 34 35 31 39 45 47 48 53 53 51 48 43 42 42 42 42 41 40 39 36 30 26 23 23 19 17 15 13 13 13 13 12 11 11 12 12 12 12 12 12 12 12 12 12
34 36 36 38 37 37 39 37 40 49 47 49 52 59 53 50 47 46 46 46 45 44 46 43 41 38 35 31 26 23 22 20 16 14 14 14 13 12 12 13 13 14 14 14 14 13 12 12 13
37 38 37 38 41 43 43 40 45 52 50 55 55 56 62 54 54 53 49 49 48 45 47 47 47 43 40 38 34 30 26 23 20 20 18 18 18 17 16 15 15 15 17 17 15 14 14 14 15
38 38 36 39 44 44 44 43 48 55 57 61 62 59 60 68 58 55 48 51 54 51 47 50 50 48 51 46 43 38 36 31 28 26 25 22 22 21 19 19 17 17 18 19 16 17 18 19 19
36 37 37 41 44 46 46 45 48 59 66 65 63 61 59 59 60 57 54 47 53 53 51 50 52 51 48 49 48 45 40 39 36 34 30 28 26 25 23 22 21 21 22 21 20 22 22 21 21
36 36 39 42 44 46 48 48 44 63 70 71 65 63 59 58 58 61 56 48 48 42 46 47 47 50 48 50 50 50 50 47 44 41 38 34 31 29 27 25 23 23 23 24 24 25 26 24 23
34 37 39 40 42 44 44 44 39 67 77 75 63 61 50 58 54 61 59 47 48 38 30 43 47 49 50 52 52 51 52 53 51 48 45 41 37 35 32 30 28 25 25 28 29 30 30 28 27
33 33 32 34 32 33 35 32 43 68 73 71 66 64 61 56 60 43 60 51 31 41 42 39 43 51 53 51 55 56 53 55 57 54 51 47 44 41 40 37 36 34 33 31 31 33 33 33 33
27 24 23 18 15 18 21 27 49 61 56 35 65 61 63 54 48 47 45 55 40 40 44 42 41 46 45 53 39 49 45 50 56 60 62 49 49 48 45 42 41 41 40 39 38 38 38 37 37
21 15 15 15 13 14 20 36 53 49 33 54 49 42 52 53 49 46 39 43 45 42 39 31 37 37 40 45 49 51 54 61 48 64 53 56 53 53 50 48 45 46 46 45 44 42 42 41 41
15 11 13 17 14 9 25 22 50 41 32 36 31 47 44 30 51 45 47 32 20 20 26 30 29 24 30 30 20 24 35 44 52 51 50 57 63 56 56 53 53 52 51 49 49 48 44 43 42
14 11 13 14 12 13 22 24 26 37 43 38 33 35 34 47 35 32 30 28 34 32 31 34 33 31 30 29 26 24 28 25 27 23 31 40 47 65 66 62 59 58 57 54 56 55 52 53 47
15 15 18 18 18 22 21 23 21 27 22 28 34 33 32 36 39 32 40 38 37 40 40 38 41 40 39 35 32 32 36 32 29 27 30 29 38 56 66 61 63 64 65 50 48 42 54 54 52
24 21 23 22 21 21 20 19 17 25 28 30 34 31 37 35 34 32 33 34 37 42 45 45 48 51 51 49 47 44 43 41 38 40 41 37 38 43 55 61 69 64 54 41 39 37 36 41 42
26 27 27 26 26 26 23 19 18 30 38 32 28 29 25 29 31 31 31 31 33 36 39 41 41 39 39 39 39 37 37 38 40 39 42 46 45 46 53 51 60 63 47 46 46 42 45 43 42
27 29 29 29 32 32 30 26 23 31 35 30 22 26 26 25 28 33 36 38 38 38 39 39 40 38 38 39 40 40 43 45 44 44 43 44 47 51 49 46 43 51 57 61 62 58 57 53 49
31 28 28 31 34 35 35 30 28 31 29 20 19 21 22 25 27 30 34 35 34 33 34 35 37 39 40 42 45 47 48 49 51 50 51 51 53 54 57 59 60 53 52 61 52 57 56 55 56
29 32 32 32 30 35 34 35 28 31 29 25 25 28 29 33 29 28 28 30 31 33 34 36 39 41 42 44 46 46 49 51 52 54 55 57 59 61 63 63 62 61 63 57 53 61 58 63 61
33 32 33 32 33 34 34 38 39 37 35 33 34 36 34 33 34 30 30 30 31 32 32 31 32 33 33 37 42 47 50 52 54 57 59 62 65 67 68 68 70 69 66 65 63 62 57 63 61
34 33 31 31 28 27 27 31 38 43 38 37 39 38 35 36 38 34 32 32 31 28 28 30 33 37 38 39 42 46 48 50 55 59 64 70 69 68 70 73 75 74 74 74 71 70 69 67 60
34 33 32 34 31 27 26 28 28 31 33 37 38 36 37 39 38 39 37 34 33 35 37 39 42 44 46 43 42 43 45 47 49 50 49 50 51 61 76 78 77 77 79 79 78 77 76 75 71
38 38 37 38 32 32 31 30 30 33 31 34 38 33 33 38 41 39 37 37 39 40 43 46 48 47 42 44 47 52 54 55 55 56 57 58 58 59 60 62 77 84 81 81 82 82 81 80 79
30 38 39 38 35 32 29 32 30 34 37 40 38 37 37 35 36 37 40 42 43 45 48 51 50 49 50 51 52 55 58 61 64 65 65 64 64 65 65 64 65 64 79 84 83 82 82 83 84
29 35 34 34 38 33 31 33 32 32 33 36 41 41 44 41 40 43 43 41 41 44 43 48 52 50 51 52 54 56 57 59 59 58 58 59 63 66 69 71 70 66 67 71 85 84 84 83 83
24 29 34 31 31 29 31 35 34 32 35 40 38 41 37 38 40 39 37 39 37 40 44 45 47 48 46 43 43 47 47 50 54 58 61 64 67 70 74 77 79 76 72 68 72 83 87 87 86

GFSSGP_500_spd_096.txt.gz
Wind_Speed
36 35 34 33 35 35 28 22 22 24 30 38 41 36 29 29 26 25 18 13 11 14 12 9 10 11 11 9 7 6 2 1 1 4 5 5 4 4 5 7 8 9 11 11 11 10 11 10 11
41 38 38 38 39 32 24 24 25 27 34 38 44 41 38 33 32 30 25 22 16 16 16 12 10 12 12 11 10 9 8 5 3 3 4 5 5 5 6 7 8 8 9 9 9 10 11 10 11
39 41 42 44 42 33 24 25 27 30 36 39 44 45 43 40 38 35 24 26 23 21 20 20 16 14 14 13 14 11 11 10 8 7 6 7 6 6 7 8 8 9 10 9 9 10 10 11 12
35 38 40 42 36 31 28 29 30 35 38 42 43 49 48 43 42 38 36 26 20 26 27 24 25 24 23 20 18 17 14 13 11 10 9 9 9 8 8 8 8 8 9 9 10 9 10 10 11
34 35 38 36 29 26 25 30 38 38 42 47 47 48 50 47 47 46 41 37 34 30 29 30 29 29 27 23 22 20 17 15 13 11 11 10 11 10 8 8 7 8 8 8 9 9 10 10 11
36 37 38 35 32 31 30 31 37 38 43 45 53 50 52 50 50 50 47 42 38 37 31 28 32 32 30 25 24 23 21 19 16 14 13 13 13 11 9 9 9 9 9 9 9 10 10 10 10
34 35 36 33 29 30 30 34 39 38 42 46 53 49 54 56 52 53 51 46 41 41 38 37 35 36 35 33 29 27 24 22 18 17 15 13 13 12 11 11 11 11 11 12 12 12 10 11 11
33 34 34 31 29 32 35 37 37 39 39 48 55 54 52 55 57 55 57 55 49 46 44 44 42 40 40 38 34 34 31 26 24 22 20 17 16 16 15 14 14 14 14 14 14 14 12 12 13
32 33 31 31 36 36 36 37 39 39 42 49 53 59 55 57 57 58 59 60 58 52 49 47 46 45 43 43 40 37 36 33 32 26 24 23 22 21 20 19 18 18 17 16 17 17 14 16 17
34 34 34 37 37 39 38 38 39 40 44 51 57 59 61 59 60 60 62 63 63 57 55 51 48 46 49 47 42 41 41 43 40 37 32 29 27 26 25 23 21 21 19 19 19 19 19 20 20
36 33 35 36 38 39 40 39 39 40 44 50 59 63 66 67 62 62 63 66 63 58 52 56 54 50 50 52 50 44 42 43 42 41 39 36 34 32 30 28 27 24 24 23 23 22 23 24 23
33 34 34 36 39 41 42 40 41 42 42 49 59 68 68 69 68 64 63 66 69 64 52 46 51 56 50 49 51 50 48 47 44 42 44 42 39 37 35 35 34 31 29 27 26 27 29 28 27
30 34 33 37 40 42 42 42 43 44 45 46 57 70 64 72 72 63 56 61 59 61 65 51 41 40 50 50 42 43 53 51 50 48 44 43 43 41 40 39 39 36 37 34 34 34 33 34 33
35 33 33 36 39 40 41 40 40 33 32 44 65 75 67 70 64 68 52 58 59 53 59 59 47 41 40 44 50 53 45 51 52 55 51 48 48 48 46 43 43 44 44 42 43 42 40 40 40
34 30 31 35 36 35 37 27 23 23 24 48 70 72 51 64 61 53 50 50 56 59 60 55 52 50 45 43 37 37 43 52 51 56 53 53 57 53 53 55 48 49 52 49 49 48 47 45 44
31 28 32 38 32 34 30 12 18 16 21 49 66 49 46 48 51 42 54 51 43 47 51 51 53 57 53 41 31 27 35 38 43 51 56 51 61 54 58 59 60 54 55 55 55 53 52 49 49
27 29 35 35 30 27 20 9 13 20 20 40 40 33 39 33 59 48 46 53 41 42 45 46 51 47 44 40 29 25 25 28 29 31 37 31 38 46 63 68 60 62 60 61 62 62 58 56 54
32 32 34 33 26 25 18 11 9 16 28 28 42 36 32 31 30 35 46 51 47 35 28 18 25 26 31 29 31 32 31 29 33 34 28 28 30 31 42 44 52 66 67 68 70 69 65 65 58
34 33 33 30 27 24 18 14 14 17 20 30 37 29 30 31 32 33 35 51 21 28 24 21 32 41 39 43 48 45 40 39 38 37 39 37 32 33 34 36 47 57 77 72 73 75 73 71 65
34 32 29 31 27 28 22 16 17 18 16 28 36 31 26 29 33 34 31 30 27 28 31 33 34 39 38 41 39 39 44 48 43 38 39 43 45 45 48 42 42 52 67 50 67 71 73 74 74
31 31 26 29 32 32 25 21 20 23 20 29 35 34 27 26 26 24 27 31 32 31 32 35 36 37 39 38 38 38 40 42 43 42 42 45 46 47 48 51 58 63 56 56 72 73 75 72 77
31 27 28 32 32 32 31 27 25 27 27 30 30 30 30 21 23 26 23 25 29 31 33 34 35 36 38 41 40 41 44 45 46 46 46 49 50 53 51 54 58 64 60 54 56 47 50 60 62
28 29 31 32 31 30 34 34 30 32 30 30 30 30 27 27 25 25 27 28 31 33 35 34 35 36 38 41 43 45 45 45 47 48 49 53 55 56 58 60 62 66 68 63 61 59 55 54 60
31 29 31 31 31 32 29 35 38 34 30 32 30 33 32 32 29 29 29 32 31 32 32 33 35 37 38 41 43 44 46 51 52 52 55 56 59 62 63 65 66 69 71 70 70 69 65 61 59
31 29 30 32 34 31 29 30 29 33 35 37 38 34 33 32 34 33 31 31 30 31 33 35 35 35 37 39 39 41 44 49 53 56 56 56 57 59 61 64 65 67 69 70 70 71 73 72 67
32 33 33 34 35 32 32 34 27 27 30 29 30 32 36 36 34 33 33 32 34 33 34 33 32 31 36 39 42 46 51 56 58 58 57 56 56 56 59 60 60 60 63 66 71 75 73 70 72
29 32 32 35 35 35 35 33 33 32 28 30 28 30 29 32 31 29 31 33 34 37 38 36 36 39 42 45 46 49 50 53 52 50 52 54 56 58 60 61 63 65 67 66 63 62 62 65 69
29 33 38 40 39 40 33 29 31 33 33 30 32 32 33 34 32 34 37 36 35 36 37 39 43 45 47 49 47 45 48 48 50 54 55 57 57 57 58 59 59 61 62 64 67 67 66 64 65
29 32 32 32 36 40 35 35 33 32 31 30 31 30 32 33 35 36 39 40 40 42 44 45 45 48 50 47 47 45 47 51 53 53 54 53 53 56 58 60 63 64 64 65 65 65 64 66 67
26 28 27 30 34 35 35 33 31 31 29 30 31 33 32 34 32 36 39 42 44 44 45 43 47 50 49 47 47 49 49 47 47 49 51 54 57 59 60 61 63 64 66 67 71 73 72 71 70

GFSSGP_500_spd_102.txt.gz
Wind_Speed
36 36 36 35 35 36 32 31 29 31 31 31 32 31 30 27 24 28 18 20 21 20 16 17 14 11 9 7 7 7 7 8 8 8 8 7 7 6 4 2 2 1 3 3 3 4 5 5 7
35 35 37 40 40 38 34 32 29 30 32 32 33 33 33 37 31 27 26 26 23 23 22 18 17 14 10 4 4 7 9 9 8 8 7 7 8 7 6 4 3 2 2 1 1 3 3 5 8
38 37 38 41 40 39 33 37 34 32 33 34 36 35 37 37 36 34 30 28 30 26 22 22 21 16 15 12 9 6 8 10 11 10 8 7 8 8 7 5 4 3 2 1 2 3 2 4 7
41 41 42 42 39 33 38 38 36 37 38 37 38 41 38 39 40 40 39 35 32 32 31 26 25 23 18 18 15 12 10 10 12 11 10 10 9 8 7 6 6 5 4 3 1 1 2 6 6
40 41 46 44 39 37 36 41 40 41 39 40 43 43 43 39 39 41 43 42 37 33 33 32 31 29 25 23 22 19 15 13 14 14 12 11 11 10 9 9 8 7 5 5 3 3 3 5 6
39 39 42 40 39 40 41 47 46 45 43 43 43 44 47 42 40 39 42 43 42 40 37 34 32 32 31 29 27 24 21 16 15 16 15 14 12 12 12 11 10 8 7 6 6 6 6 7 7
36 37 38 37 34 33 36 44 47 51 51 47 47 44 47 44 43 42 41 43 45 44 43 41 38 35 33 32 30 28 25 22 18 16 16 16 16 15 14 14 13 11 9 9 9 8 9 9 10
35 36 36 33 32 31 37 43 45 42 45 49 44 48 53 48 45 44 44 43 43 44 46 45 42 39 38 35 34 31 26 26 25 23 21 18 18 17 17 16 16 15 12 12 12 11 11 13 14
39 40 37 35 37 34 40 42 39 40 41 43 46 44 45 47 48 48 46 46 46 46 45 45 46 44 44 40 38 38 34 31 30 29 27 23 21 22 21 19 19 18 17 16 16 16 16 17 18
40 40 38 38 38 37 38 39 40 39 39 41 43 45 44 42 42 43 43 44 47 48 50 49 48 48 48 46 42 40 39 38 35 33 34 33 29 26 26 26 24 22 21 21 20 20 20 21 22
40 38 39 38 37 34 33 36 40 38 39 37 38 43 46 39 39 40 42 43 45 46 47 51 52 51 51 50 49 47 46 43 41 38 36 36 36 33 32 32 30 28 27 26 26 26 25 25 26
42 40 38 37 36 34 35 35 38 38 38 35 36 40 43 43 43 43 45 47 49 50 51 52 53 54 54 52 52 54 54 51 50 47 43 39 40 40 39 38 37 36 33 33 33 33 32 31 31
42 40 39 37 36 34 36 36 37 36 37 35 37 37 41 43 44 44 45 47 51 53 56 57 58 58 60 61 60 57 56 56 56 58 57 50 47 45 45 44 44 43 42 41 40 40 40 38 37
40 39 36 35 37 36 38 38 36 36 37 36 37 38 40 43 46 48 49 50 52 56 58 61 61 63 63 64 63 61 58 57 58 61 61 59 57 54 53 51 51 50 49 48 47 47 46 45 44
37 36 35 35 38 39 39 36 36 35 36 35 35 36 40 43 44 48 51 54 56 58 60 62 64 69 66 65 61 60 59 60 59 60 59 63 69 58 60 58 58 55 54 54 52 52 51 50 49
34 35 36 38 40 40 37 35 32 33 34 35 35 33 36 41 44 48 52 56 57 55 52 52 51 56 55 58 60 64 61 56 54 59 57 59 55 62 63 68 66 63 59 58 59 57 56 56 55
33 33 35 40 40 42 36 33 32 31 33 32 31 31 37 41 45 45 50 49 45 48 45 51 56 56 63 60 59 63 66 70 64 60 54 61 65 60 60 69 70 68 63 59 61 61 64 61 60
33 34 35 37 41 39 35 28 31 34 30 28 28 30 34 34 34 35 38 43 46 54 59 53 51 58 66 65 62 67 67 68 65 60 59 56 54 53 57 56 69 66 67 62 64 65 61 64 65
34 35 38 38 42 38 32 29 28 33 26 26 26 21 17 20 23 24 25 21 24 34 40 48 55 66 65 55 56 67 72 72 69 62 60 59 41 48 63 46 47 57 44 63 65 68 60 70 68
34 36 35 36 38 38 32 27 29 29 26 26 23 22 14 17 17 15 17 18 18 22 24 30 36 48 50 53 59 37 26 28 41 44 44 45 45 43 44 36 48 45 59 49 61 66 71 70 62
37 35 34 31 37 37 31 24 26 27 28 26 22 23 17 17 16 16 16 19 21 23 26 26 33 42 36 38 33 29 27 32 31 24 27 35 35 37 35 35 45 39 42 45 45 46 50 50 54
33 34 28 28 32 29 30 22 27 30 31 28 26 24 23 19 15 18 19 21 21 23 25 26 31 33 35 28 25 23 31 35 35 33 35 38 38 38 41 50 53 49 48 50 51 52 52 55 56
31 30 31 32 30 30 32 27 19 29 32 28 25 25 23 21 19 21 23 23 24 25 26 27 30 34 32 29 31 31 34 39 40 38 40 41 43 46 49 50 52 54 52 54 55 54 54 57 59
28 29 30 30 31 35 28 27 19 23 26 25 25 26 26 25 25 24 25 27 27 31 30 28 30 32 33 28 29 32 34 37 39 40 43 44 46 47 53 51 54 55 55 58 59 58 58 60 63
30 27 22 24 28 27 22 31 22 33 29 24 27 30 32 32 31 31 30 29 30 31 33 33 35 35 34 34 35 36 37 40 43 44 46 46 50 50 55 56 57 58 61 62 61 61 62 64 66
29 28 20 20 18 19 32 33 24 36 27 25 23 23 27 31 34 34 34 35 35 35 36 39 35 33 34 35 35 35 37 39 42 43 46 49 50 51 54 55 59 60 61 64 64 64 63 64 65
21 26 24 27 27 26 17 21 30 32 26 25 25 26 25 25 26 28 33 36 37 35 33 31 30 33 34 35 36 38 40 41 42 44 44 46 49 52 57 60 63 62 63 66 67 67 65 63 62
27 21 26 27 24 25 20 23 24 23 22 24 25 26 27 28 25 24 24 26 28 28 27 29 32 33 36 39 41 41 40 39 39 42 46 48 50 54 59 63 65 67 66 64 62 59 61 63 63
25 28 30 30 26 28 24 20 25 28 27 26 28 26 25 25 27 27 27 28 29 29 29 33 36 37 39 41 42 43 43 44 46 46 44 45 43 44 46 48 49 50 54 58 61 62 61 61 61
25 22 22 24 23 24 26 25 30 30 31 24 25 29 28 26 27 29 30 31 29 29 31 34 38 39 39 39 41 41 41 42 41 42 39 40 44 47 50 50 48 49 50 53 56 58 61 63 64

GFSSGP_500_spd_105.txt.gz
Wind_Speed
34 34 35 34 36 36 32 26 18 34 30 35 31 29 30 25 30 26 26 24 21 18 17 17 18 18 14 12 9 7 6 6 8 10 10 9 10 10 9 7 4 4 4 4 3 3 3 3 4
36 34 36 38 42 38 31 27 25 33 39 32 32 31 29 33 35 28 28 24 22 18 20 21 17 18 17 16 14 10 9 8 7 7 9 10 10 10 9 7 5 4 4 3 2 0 0 1 3
37 36 37 40 44 42 33 17 22 34 41 35 34 32 36 40 35 29 28 28 27 24 21 21 21 18 17 17 19 13 12 10 10 10 8 8 9 9 10 8 7 6 5 4 3 2 2 2 5
41 40 40 43 41 37 36 31 35 41 36 37 41 33 41 36 37 36 33 33 30 27 27 25 23 20 20 18 17 16 15 13 13 12 12 12 12 11 11 10 8 8 7 5 5 4 4 4 6
41 41 45 45 42 35 36 45 48 43 37 41 43 40 43 40 36 35 37 39 36 34 29 28 29 29 28 25 23 20 18 16 14 13 13 13 13 14 14 13 12 11 10 9 8 7 7 6 7
42 42 45 46 42 39 38 51 47 47 43 42 46 40 43 51 40 38 35 36 37 36 34 32 31 29 29 28 28 27 25 23 18 16 14 14 14 14 15 15 16 16 14 12 11 10 9 8 8
39 40 41 39 38 34 34 53 52 47 49 45 43 45 40 55 44 40 36 36 37 37 36 36 35 34 33 31 31 31 30 31 26 21 16 15 16 15 16 17 18 18 17 15 14 14 13 13 12
35 38 40 39 36 35 40 53 50 50 54 52 47 41 42 61 42 39 39 39 40 40 40 39 39 38 38 37 34 33 32 31 30 29 26 21 19 18 18 18 19 19 19 18 17 16 16 16 16
37 39 37 32 33 34 40 48 47 45 47 49 46 45 56 59 43 46 43 43 42 40 40 40 40 39 39 37 36 38 37 36 35 33 32 28 26 24 22 21 21 22 21 22 22 21 20 20 20
40 41 37 36 40 43 42 46 44 42 40 43 43 42 46 50 48 49 45 44 45 45 44 45 41 40 41 39 39 41 41 39 39 38 36 33 32 30 30 28 27 26 26 25 24 24 25 25 26
42 41 41 41 44 42 42 43 44 43 40 43 43 43 43 43 44 45 45 44 44 45 47 45 40 41 42 43 42 45 45 43 43 41 42 41 40 39 38 37 34 32 33 33 32 31 30 30 31
44 44 42 44 43 40 40 41 42 43 43 42 42 41 43 43 40 40 40 42 38 41 56 41 38 42 44 45 45 46 46 47 48 49 48 46 44 45 44 43 42 40 40 40 41 40 38 36 37
47 45 43 45 43 40 41 41 42 43 40 40 40 40 40 44 38 39 39 43 33 46 42 43 40 45 48 49 51 51 51 51 50 52 51 53 52 50 49 50 49 46 46 46 45 46 45 43 43
45 42 45 44 44 42 41 41 43 41 40 39 40 37 39 40 41 41 39 43 40 49 46 44 45 48 50 52 54 56 52 56 56 53 52 53 55 51 56 58 52 50 50 51 51 51 50 49 49
43 43 39 42 43 42 42 42 42 39 42 39 37 35 35 37 40 41 42 43 44 46 44 49 49 51 52 54 51 54 49 50 48 51 53 56 53 55 55 56 59 62 60 57 60 58 57 56 55
38 39 38 38 41 43 44 40 41 41 40 37 35 35 35 34 36 40 41 43 45 46 47 48 48 47 46 46 45 47 52 49 59 56 61 55 58 53 48 56 56 60 56 64 66 66 64 63 62
34 35 35 33 37 45 44 36 41 39 36 35 33 33 33 34 36 39 40 42 44 44 47 44 44 44 43 47 46 46 47 51 54 55 60 58 56 54 55 56 58 61 57 62 68 72 74 76 69
33 32 30 24 30 40 44 35 39 35 36 32 31 30 32 32 38 39 37 40 42 44 43 44 41 43 41 44 47 52 54 62 58 56 50 32 63 65 65 62 61 65 63 68 63 63 74 77 76
31 26 34 25 24 31 32 32 32 31 37 31 30 29 28 30 30 42 37 34 35 45 39 41 42 51 53 54 58 62 51 54 60 68 64 53 62 67 58 61 63 53 58 54 47 60 64 75 76
34 36 27 30 42 34 30 28 34 33 37 31 31 27 27 29 35 32 34 29 31 25 22 19 18 18 21 29 38 45 44 45 45 53 64 74 68 66 49 33 47 44 50 56 56 62 58 62 60
33 37 34 31 23 33 38 35 33 32 35 32 30 28 28 30 31 28 28 23 23 23 20 15 15 20 25 27 28 33 40 44 45 39 51 37 49 54 45 39 41 50 52 48 62 48 30 43 31
33 33 37 35 33 26 28 29 31 31 36 33 33 30 30 33 29 26 25 23 22 23 22 17 18 22 25 29 31 31 32 32 29 32 32 39 29 31 29 36 39 46 50 69 58 49 40 39 41
32 31 34 38 37 25 23 26 20 25 28 36 36 34 34 33 31 27 24 23 24 24 24 21 21 23 26 28 30 30 29 30 32 33 32 38 32 38 40 35 39 39 49 60 58 52 50 43 48
33 33 32 27 28 35 30 24 21 24 24 25 33 35 35 35 34 29 26 25 26 27 27 28 26 27 29 31 34 36 33 32 35 38 41 40 42 48 47 46 46 47 50 54 57 56 53 49 51
32 29 24 23 26 29 22 30 25 32 24 35 40 32 32 33 32 32 30 29 29 30 31 32 31 32 33 35 36 39 39 38 37 39 41 41 43 47 49 48 48 52 55 58 59 59 57 57 55
32 28 23 21 16 19 20 26 30 36 38 16 34 29 31 33 34 36 35 34 33 34 34 35 35 36 39 39 40 40 38 39 39 40 41 42 43 46 46 47 48 51 54 57 58 60 59 59 60
23 31 26 26 30 22 25 26 32 32 37 47 40 33 31 30 31 34 36 37 37 37 38 38 39 39 41 40 38 40 38 41 42 42 43 46 47 48 46 46 47 49 50 56 57 58 60 60 60
29 24 26 35 26 28 22 28 27 24 30 27 31 34 33 32 32 30 31 32 35 37 39 39 38 38 38 40 38 37 37 40 43 45 45 45 44 44 46 48 52 56 56 60 61 63 64 63 62
31 32 33 28 33 27 28 27 25 24 28 20 25 30 33 33 34 35 34 34 35 34 33 33 34 36 38 39 40 40 41 44 46 46 47 48 49 51 51 50 51 51 53 53 54 55 55 58 57
21 22 30 32 28 31 28 24 28 23 30 35 29 26 32 36 33 34 36 38 38 36 36 35 35 37 38 37 39 41 41 42 43 44 43 43 42 42 41 41 43 45 47 48 47 48 50 53 55

GFSSGP_500_spd_108.txt.gz
Wind_Speed
37 36 35 36 37 36 31 27 24 11 25 35 45 32 25 22 32 28 27 29 17 19 17 15 14 13 15 16 13 11 10 7 6 6 7 9 10 11 11 11 10 8 6 5 4 2 3 4 6
35 37 36 38 43 39 32 26 28 11 38 41 37 37 25 32 36 33 24 25 14 20 19 17 16 16 15 15 15 16 13 11 8 8 8 10 11 12 11 11 11 10 8 7 6 4 5 5 5
37 38 40 42 45 45 35 23 5 17 42 43 47 36 29 42 37 30 25 33 24 24 21 18 17 16 17 18 18 17 17 13 11 10 10 10 11 12 11 11 12 12 9 8 7 7 7 7 7
40 41 42 46 44 41 35 29 27 25 40 46 47 34 39 42 38 35 32 32 27 27 25 23 22 19 17 16 16 16 18 18 16 14 13 13 13 14 14 13 13 13 11 10 10 10 10 9 9
41 43 46 45 44 40 36 32 32 29 32 48 44 35 45 46 36 36 33 33 32 30 29 26 25 25 26 25 22 20 19 20 19 17 15 14 13 14 14 15 15 16 15 14 14 14 13 12 11
42 42 45 47 45 40 36 34 38 41 46 46 46 41 40 49 39 35 34 33 32 30 33 31 30 29 28 27 27 25 23 23 21 23 22 19 16 16 16 15 15 16 17 18 19 17 17 15 15
39 40 42 42 41 40 37 35 41 48 52 49 47 44 42 43 49 37 36 37 36 35 33 33 31 31 31 30 29 28 27 27 26 26 24 23 22 19 18 18 18 18 18 19 21 21 20 19 19
35 38 41 41 39 38 21 29 47 59 56 46 48 48 37 50 57 41 33 42 41 41 38 38 36 35 34 33 32 32 30 30 29 27 26 26 24 24 23 21 21 21 21 21 21 22 22 22 23
39 39 39 35 33 32 26 38 50 56 53 48 52 45 45 52 57 39 40 42 45 41 38 40 40 41 40 38 35 34 33 32 31 29 27 28 29 28 28 27 27 26 25 25 25 26 26 26 26
44 43 37 32 30 23 27 37 53 59 44 44 47 44 46 56 51 45 46 46 48 46 41 44 46 46 43 39 37 36 37 35 32 34 32 31 30 31 32 33 32 32 34 35 33 33 32 33 33
47 43 41 38 35 40 43 47 55 42 41 38 41 41 41 47 45 39 43 44 51 47 49 53 47 53 48 40 39 38 37 36 35 35 35 35 36 35 36 37 40 38 38 39 37 37 37 37 39
48 47 46 42 43 48 46 42 46 40 41 39 40 43 41 42 42 41 35 39 45 43 39 43 55 56 45 33 35 34 34 34 33 34 37 39 39 39 40 41 43 44 44 45 44 44 44 42 41
44 47 50 46 45 48 43 41 45 43 45 41 41 43 41 43 42 40 35 40 40 43 51 38 47 14 23 29 31 34 35 36 36 37 38 39 41 44 45 45 46 47 48 47 47 49 49 46 45
39 44 48 49 48 51 44 42 45 41 44 42 41 41 41 40 42 37 34 37 44 42 49 43 60 27 32 32 33 35 36 38 38 38 40 42 42 44 46 48 50 50 50 49 53 54 52 48 50
38 41 45 50 51 50 47 44 43 42 45 40 41 39 39 39 40 37 35 36 45 37 48 50 52 39 35 25 37 36 37 39 41 44 46 36 42 41 46 52 54 55 54 52 51 49 51 60 53
38 41 41 44 47 46 46 43 44 42 45 42 43 38 37 37 36 36 36 39 40 40 47 52 49 39 44 29 37 44 42 45 45 45 41 37 39 47 59 59 60 57 53 53 44 45 56 76 55
40 37 36 37 40 42 44 44 37 40 45 43 41 38 36 35 36 36 37 39 38 39 44 48 47 44 43 43 45 44 46 45 44 37 45 32 40 51 57 59 65 59 51 47 43 41 53 32 51
33 31 33 33 34 25 33 46 34 29 45 43 36 36 36 36 35 37 37 38 38 41 46 48 48 44 45 41 42 44 45 38 43 44 43 49 47 53 38 44 52 37 35 40 51 53 56 66 62
30 27 29 30 22 24 40 36 29 31 39 38 38 34 34 35 36 35 37 39 43 42 42 46 44 43 41 43 41 41 41 41 44 52 49 54 55 54 52 46 43 40 48 54 64 65 63 60 55
32 31 23 23 29 24 27 28 32 33 23 29 38 33 33 31 34 38 39 39 39 42 43 31 37 39 35 35 30 31 31 33 32 34 37 46 49 58 61 58 56 57 63 66 61 63 55 58 54
33 33 27 22 26 29 27 33 32 39 29 25 32 35 33 30 33 36 36 32 41 37 35 33 29 27 30 28 25 25 28 29 28 26 27 31 37 46 53 58 56 56 53 64 40 54 56 54 51
35 32 32 28 30 25 28 43 40 35 29 29 39 30 28 27 34 44 28 34 33 29 30 30 30 29 28 28 26 27 27 28 30 31 32 32 32 31 34 43 48 50 57 64 52 50 48 45 40
32 26 28 29 29 38 36 28 21 19 30 42 40 38 26 37 41 34 30 31 30 29 29 29 28 29 29 29 28 28 28 26 29 27 30 33 35 36 37 36 33 38 35 49 59 74 46 43 39
27 29 23 22 26 39 35 37 26 23 24 24 28 29 34 45 41 32 33 32 32 33 31 31 29 30 29 31 31 30 29 29 31 31 31 30 32 34 35 36 39 44 45 48 53 51 48 46 44
32 31 28 27 32 34 20 25 25 22 24 31 35 32 34 29 39 38 37 38 39 36 33 32 32 33 32 32 32 31 31 32 32 34 34 35 36 36 37 37 40 43 50 53 54 56 54 51 47
36 35 34 33 24 21 21 28 19 30 27 36 46 43 37 33 32 40 41 40 40 38 37 36 37 37 36 34 33 33 33 35 34 33 35 36 35 36 36 38 41 42 45 51 52 51 54 54 54
32 35 27 25 31 24 26 25 19 34 42 35 41 32 31 36 28 31 36 38 38 37 39 39 39 40 39 38 36 35 34 32 35 36 39 40 39 39 39 40 41 42 42 43 46 48 49 50 53
37 23 25 35 36 36 26 27 26 33 35 41 38 38 34 38 40 38 35 37 38 39 41 43 43 41 40 39 38 35 34 35 36 39 41 41 43 44 44 44 45 46 47 49 53 55 55 54 53
34 38 40 35 38 29 30 35 33 31 37 35 36 37 45 44 42 40 40 37 38 38 38 39 39 39 38 38 35 35 37 39 40 42 44 45 46 47 48 49 48 49 49 49 50 49 48 49 52
35 35 39 32 37 40 24 38 31 36 35 35 34 34 32 28 33 37 40 38 40 40 40 38 39 39 37 35 38 38 39 40 41 42 44 45 46 45 43 40 41 39 40 43 43 44 46 48 50

GFSSGP_500_spd_111.txt.gz
Wind_Speed
37 37 40 39 39 37 30 23 27 22 11 18 26 30 37 41 36 35 23 14 17 17 17 17 15 12 11 12 12 11 11 11 8 6 7 8 10 12 11 11 12 11 11 11 9 8 8 8 7
36 38 41 45 44 40 31 25 27 17 20 22 25 28 36 43 33 35 29 19 20 17 21 21 17 14 13 14 14 14 12 11 12 12 10 9 10 13 14 13 13 13 13 14 12 10 10 10 11
39 40 40 44 47 45 32 26 25 32 21 30 37 36 36 41 37 34 31 26 26 21 19 19 20 18 15 14 13 12 13 15 15 13 13 13 13 14 14 14 15 15 15 16 15 13 13 13 13
40 43 43 46 44 39 34 29 23 39 29 23 29 38 45 40 39 38 30 26 28 31 27 24 22 20 18 18 16 14 12 12 13 14 13 14 15 16 15 15 15 15 15 17 17 17 18 18 16
39 42 45 47 43 38 38 30 30 31 22 29 37 38 52 47 42 35 35 28 25 26 28 26 24 24 23 22 22 21 19 18 17 15 14 15 15 16 16 17 17 16 16 16 17 18 20 20 21
38 42 44 44 43 40 35 34 32 40 29 29 42 46 50 45 39 37 37 32 26 28 28 28 27 28 28 28 26 26 25 24 22 20 19 18 19 19 18 17 17 18 18 18 19 20 21 21 20
35 37 41 43 43 43 41 34 29 39 42 34 40 49 53 49 40 35 33 35 28 29 31 30 30 30 30 30 29 28 27 26 25 24 24 23 21 19 19 20 20 19 19 20 22 24 23 23 23
39 39 40 40 41 42 32 35 40 34 47 53 47 49 51 48 49 48 31 38 34 32 36 35 35 35 35 34 32 31 30 29 27 25 24 24 22 22 21 21 22 23 22 22 23 23 24 26 26
43 44 40 35 35 32 30 32 40 37 41 49 55 55 51 42 49 49 32 42 45 35 35 37 38 39 39 39 38 35 33 30 28 27 24 22 21 21 23 23 23 25 24 25 26 26 29 31 32
41 43 41 37 34 31 34 38 45 51 48 44 46 50 49 48 52 47 38 43 49 42 33 38 42 44 42 40 39 36 33 31 30 28 26 25 25 25 25 26 26 27 29 30 30 30 31 32 33
38 36 40 42 37 33 35 45 50 52 59 57 49 43 41 48 50 44 36 38 48 49 44 45 52 56 42 46 43 39 36 31 31 30 28 26 29 29 28 29 31 30 31 33 34 34 33 35 35
36 38 42 43 42 43 44 46 51 55 56 46 31 36 36 42 43 36 32 32 44 50 44 43 49 40 45 52 50 48 39 33 32 31 29 28 31 34 35 34 35 35 36 37 39 39 38 37 38
36 37 41 42 44 44 48 48 48 47 45 42 37 35 36 36 38 36 34 38 39 44 47 46 44 42 39 48 46 47 37 29 30 29 31 30 31 33 36 36 39 40 41 42 41 43 42 41 44
32 35 41 43 43 46 49 52 48 45 47 44 39 36 38 37 36 38 38 37 41 44 44 41 38 46 39 36 25 30 25 28 28 28 29 31 33 37 36 39 37 39 41 44 45 46 48 48 46
33 37 40 45 43 43 48 54 48 46 46 44 41 36 37 37 35 38 39 36 41 45 43 46 46 49 35 32 34 19 20 30 32 29 36 36 38 39 42 45 41 42 43 47 50 51 52 53 51
39 40 40 41 39 38 47 50 49 49 47 45 45 41 36 36 35 37 38 34 39 43 42 46 45 49 38 35 30 26 21 26 34 34 34 34 34 36 36 37 36 36 41 51 61 67 57 56 48
42 42 37 32 34 38 41 43 45 47 46 45 46 42 37 35 34 34 37 36 37 40 40 44 47 45 38 33 31 36 41 38 35 39 40 39 33 35 39 41 30 33 43 32 41 46 50 53 41
35 38 36 34 30 35 36 38 39 39 43 43 43 44 38 36 35 35 37 37 38 39 41 43 44 43 37 35 33 34 40 40 40 37 43 41 43 44 48 53 53 46 48 44 40 53 35 40 38
34 37 39 34 27 31 31 33 35 23 36 40 42 43 38 35 33 35 36 38 39 40 42 42 41 40 36 35 37 37 38 39 36 37 40 40 39 42 44 49 50 52 59 57 42 38 42 36 45
36 38 41 35 16 25 25 26 30 28 29 28 29 41 35 32 33 32 36 40 41 41 40 39 37 32 33 34 32 34 34 32 32 32 32 35 35 32 30 30 34 35 39 42 50 54 54 47 52
38 38 36 31 19 28 26 28 36 38 36 25 22 28 31 32 28 35 39 40 40 39 38 32 29 31 31 31 31 29 29 28 27 26 26 28 31 29 28 29 29 31 35 39 41 46 54 49 52
39 34 31 32 29 33 36 38 41 37 42 35 29 34 27 30 35 39 42 42 39 30 30 28 30 32 35 31 28 28 30 29 29 28 24 28 29 30 33 32 32 35 38 42 43 42 47 49 43
36 31 33 37 39 36 42 45 46 34 37 47 38 36 33 26 36 38 40 38 25 27 26 27 28 29 30 31 31 31 33 32 28 29 28 27 29 30 31 33 35 36 38 41 43 41 48 48 49
25 30 29 32 42 46 43 43 36 32 25 26 37 42 45 37 42 39 31 25 25 29 30 30 30 29 31 32 34 35 35 34 33 31 27 28 31 33 33 35 38 40 42 43 44 44 43 44 50
23 32 31 36 39 44 36 39 38 32 32 25 31 33 38 34 44 44 33 30 30 33 34 33 33 32 33 33 35 37 36 34 33 32 31 32 33 35 36 34 36 39 42 45 46 45 47 44 40
39 34 43 43 39 32 24 30 15 21 38 33 36 36 34 23 20 22 29 32 33 39 38 36 36 37 38 38 38 39 38 37 35 34 34 31 30 31 33 34 35 35 37 40 42 43 43 47 49
32 41 36 33 36 32 28 25 17 20 28 31 37 40 34 28 33 24 23 25 31 34 38 41 43 44 44 42 41 40 40 38 37 33 31 30 31 32 35 36 37 38 39 42 44 46 48 48 48
35 35 37 39 37 36 28 27 25 33 32 32 33 37 36 37 33 31 34 28 27 33 40 43 44 44 44 45 44 43 41 40 37 33 32 33 34 35 38 40 42 43 44 46 46 46 48 47 47
37 40 36 31 40 40 31 27 31 37 37 34 36 38 40 39 41 34 27 34 42 39 40 38 40 41 42 44 45 44 42 40 39 36 36 36 37 39 41 43 44 46 47 46 43 40 39 41 43
35 33 38 37 38 41 37 32 31 33 39 44 37 37 39 41 39 44 41 38 38 33 33 37 39 40 41 41 41 40 40 39 39 38 39 39 39 42 44 45 45 45 45 43 41 40 42 40 43

GFSSGP_500_spd_114.txt.gz
Wind_Speed
36 38 41 40 38 35 27 18 25 25 29 22 21 22 27 32 33 34 27 24 22 15 17 16 13 11 9 6 6 8 9 10 8 6 6 7 9 9 10 11 12 11 10 10 12 12 11 9 9
41 41 39 45 44 38 29 24 26 30 33 24 22 27 33 37 35 33 29 30 32 21 17 18 16 14 15 10 8 7 7 8 10 10 7 6 7 8 8 9 9 10 11 12 13 13 13 13 13
41 43 42 47 48 41 30 28 28 38 40 36 28 30 34 35 32 31 30 31 33 29 22 15 15 16 17 15 12 9 8 7 7 9 10 11 11 11 11 12 12 11 11 11 12 13 13 14 16
37 41 45 47 47 37 31 33 33 42 43 44 40 38 40 40 37 32 28 30 38 37 30 26 23 21 19 17 16 13 11 10 9 8 9 10 12 14 14 15 15 14 13 12 13 13 13 15 16
39 39 43 46 44 37 34 31 38 42 44 46 50 49 50 46 42 36 29 25 26 25 28 27 27 26 24 21 20 19 18 18 17 15 13 11 11 12 13 15 15 15 14 14 15 15 16 16 16
34 38 41 41 38 38 39 30 39 45 45 48 51 53 55 54 50 40 25 26 27 26 28 28 24 24 26 26 24 22 22 22 21 20 18 17 16 16 16 16 16 15 15 16 16 17 18 19 20
34 34 35 38 39 40 35 34 38 41 45 50 49 52 56 57 54 45 32 20 24 28 29 29 27 25 25 27 27 27 24 23 24 23 21 20 18 18 16 16 16 17 17 16 17 18 18 18 19
35 36 36 36 33 33 32 38 42 44 45 50 50 51 56 53 54 46 31 28 25 29 32 31 31 33 32 32 31 28 27 25 25 25 24 21 21 19 17 18 18 18 19 21 21 20 20 20 22
35 33 31 33 34 23 29 38 42 49 44 54 55 51 43 48 48 48 39 33 32 33 35 36 38 38 37 35 34 33 32 31 29 26 24 22 20 19 19 19 19 20 21 21 24 23 24 24 26
33 31 29 29 33 31 30 36 41 47 51 53 55 51 49 50 50 48 44 39 40 39 39 40 41 41 41 39 37 36 35 34 32 31 27 23 22 22 23 23 22 23 24 25 26 27 28 29 29
31 29 31 33 36 38 32 36 43 47 52 54 49 48 45 46 48 52 49 38 49 42 38 39 44 44 41 39 39 41 41 40 38 35 31 28 26 25 26 27 28 29 28 30 29 31 32 34 36
32 33 35 33 37 41 40 41 43 46 49 55 57 52 54 54 48 48 43 41 47 46 42 45 37 34 38 46 42 42 42 44 46 39 31 29 28 30 29 31 33 34 35 34 33 34 36 38 40
34 33 35 37 39 41 41 43 45 46 46 48 52 57 52 48 41 41 33 38 39 44 43 41 40 34 47 44 23 27 23 35 46 40 33 29 31 33 34 35 37 40 40 40 39 40 42 45 45
35 36 37 40 40 41 44 46 50 49 49 49 45 38 37 40 39 39 34 39 40 39 42 43 37 39 38 52 36 12 13 22 33 31 33 36 35 35 36 37 39 37 41 40 40 42 44 47 50
38 40 41 43 44 41 41 48 52 50 52 51 47 41 37 39 42 40 38 37 41 40 43 42 39 40 38 32 42 28 12 2 9 27 31 33 34 38 39 38 37 40 43 44 46 45 48 48 52
42 42 45 40 40 38 39 41 45 49 51 49 48 46 41 42 42 40 38 38 38 41 42 41 40 42 40 36 27 24 19 17 26 32 35 38 38 40 40 43 44 44 41 38 47 45 44 48 45
45 46 39 35 37 38 38 39 40 44 48 48 48 48 46 44 41 40 37 37 37 37 39 39 41 41 39 34 26 28 24 26 32 28 35 36 37 39 40 41 43 41 38 40 42 39 45 49 41
43 34 33 36 32 37 37 40 36 36 46 47 49 47 45 44 45 43 38 36 35 37 39 39 40 38 38 35 30 27 26 27 31 40 41 40 44 42 39 43 43 46 47 48 49 57 59 60 54
38 39 41 39 31 37 38 37 33 32 37 43 45 45 44 45 42 42 38 37 36 36 38 40 40 37 36 34 30 30 27 29 30 43 42 46 45 45 45 41 38 33 31 31 34 38 41 40 45
42 42 45 38 37 39 38 39 34 35 34 39 36 37 40 40 41 41 38 36 36 37 39 39 36 34 33 32 32 31 31 33 34 36 39 43 42 40 33 30 31 33 32 33 31 28 31 34 36
44 43 42 40 29 36 37 43 34 34 33 29 31 26 25 32 42 40 36 35 37 39 39 37 32 26 32 33 31 30 31 36 36 38 38 36 33 30 29 30 33 36 33 33 33 33 35 37 38
47 41 38 37 32 37 34 40 35 29 27 31 31 25 29 31 37 39 37 33 36 38 34 31 30 28 32 32 30 31 31 34 34 32 31 30 30 32 34 35 35 35 34 35 37 38 38 39 40
44 37 36 32 32 34 39 41 34 33 34 39 31 34 31 33 29 31 32 33 33 32 28 30 29 30 30 31 29 29 28 28 29 29 31 31 33 32 32 33 35 35 36 37 38 38 39 40 40
41 35 35 34 37 46 41 44 39 39 40 41 42 40 39 38 28 29 28 31 27 21 25 27 27 30 28 28 28 27 28 29 31 32 32 33 34 36 36 36 36 35 37 39 40 42 43 44 44
45 39 39 43 50 53 44 46 43 37 39 34 47 49 45 43 32 29 30 27 22 23 23 25 26 27 28 30 31 30 31 33 33 34 34 36 39 40 41 41 40 36 35 36 38 39 41 43 43
44 42 44 48 51 51 46 45 41 25 31 34 40 37 41 46 45 43 37 35 31 31 26 26 30 29 31 34 35 35 37 37 38 38 39 40 42 42 43 42 39 39 38 38 39 40 43 44 45
43 43 37 38 41 45 45 41 30 34 39 44 40 36 36 37 33 33 38 42 37 37 36 34 33 35 38 39 39 41 42 42 42 43 43 44 44 43 43 41 41 40 40 41 42 43 45 46 48
43 39 39 44 44 42 37 31 29 35 36 36 41 44 46 40 38 30 28 32 31 29 29 32 35 39 40 42 44 46 47 47 47 47 46 46 45 44 42 42 42 42 43 44 44 45 45 45 44
48 41 43 38 36 39 34 34 29 30 34 28 26 30 37 34 38 31 36 37 33 27 25 26 30 35 40 43 44 46 47 48 49 48 47 46 46 45 44 44 44 45 46 47 47 47 46 44 43
47 45 41 39 41 39 36 35 33 32 31 34 30 31 33 32 37 35 39 31 25 19 24 29 34 34 40 40 40 42 43 44 45 44 43 44 44 42 45 45 45 46 47 47 47 46 44 43 43

GFSSGP_500_spd_117.txt.gz
Wind_Speed
40 39 39 37 37 33 26 18 21 28 37 37 30 24 18 13 15 19 23 24 23 23 23 19 16 13 9 8 8 6 4 4 5 7 7 7 6 5 6 7 7 7 7 7 7 9 9 10 11
44 41 41 41 42 36 25 22 21 31 40 39 36 31 25 20 22 25 23 24 26 27 26 24 19 18 14 11 10 8 6 6 4 5 7 7 7 6 6 6 6 7 7 8 8 8 9 10 11
42 44 45 47 47 39 29 25 29 38 40 40 42 39 36 31 29 30 29 28 28 29 28 27 26 15 15 13 12 10 8 7 6 4 6 8 9 8 8 8 8 9 9 8 8 9 9 9 10
38 41 45 50 47 37 31 31 35 42 44 43 44 45 39 39 39 37 36 32 30 29 29 30 30 28 20 18 16 14 12 10 8 7 7 8 10 10 11 11 10 10 10 11 10 10 11 12 13
39 40 43 44 42 34 30 34 42 41 46 47 49 50 48 46 42 39 34 29 26 25 23 26 30 26 25 23 20 18 17 16 16 15 13 12 11 11 12 13 13 12 11 12 12 12 13 13 14
37 38 43 40 36 32 35 33 39 45 48 48 53 52 53 51 52 48 39 28 25 26 27 26 26 25 25 24 23 21 20 20 19 21 19 18 18 16 14 14 14 14 14 14 14 14 14 15 14
37 37 38 37 33 34 31 33 40 46 50 51 53 57 57 56 55 53 50 39 33 28 27 28 27 27 25 23 23 22 23 23 24 23 23 22 20 20 19 18 17 16 16 15 15 15 16 16 17
35 38 38 35 29 25 27 32 38 49 49 50 55 59 59 56 56 55 53 46 38 29 26 28 29 30 30 29 28 26 25 23 24 23 24 25 24 22 21 19 18 19 18 18 18 20 20 19 19
35 33 29 30 29 23 27 32 38 47 50 49 53 56 56 58 59 56 53 47 35 32 34 33 34 33 34 35 33 31 29 28 28 27 28 28 28 26 23 21 19 18 18 19 20 21 23 24 24
34 30 27 28 30 27 33 34 36 40 47 52 52 55 58 61 61 57 50 45 39 36 34 35 37 39 39 38 37 36 33 32 31 30 31 30 29 27 26 25 25 24 23 25 26 27 28 30 30
33 31 31 30 33 34 37 40 40 39 43 47 54 55 61 62 61 58 52 42 40 39 38 40 40 41 39 38 41 40 37 34 33 33 33 32 31 31 30 29 27 28 29 29 30 30 31 31 33
35 34 36 31 32 36 38 40 42 43 40 44 48 54 59 64 61 59 58 49 44 40 42 39 41 41 41 42 42 47 45 43 39 39 38 37 36 35 32 31 31 31 32 34 33 33 35 37 37
35 36 35 35 38 39 39 43 44 43 43 43 47 51 56 59 60 57 57 53 44 41 41 38 37 40 39 39 45 37 43 40 44 43 43 43 43 40 36 34 34 35 39 41 41 41 41 42 43
41 40 39 41 43 44 45 42 44 45 47 48 47 48 52 56 54 52 51 48 41 38 39 39 39 38 35 37 36 31 32 28 24 18 16 38 38 42 33 38 37 41 41 42 42 41 42 44 46
43 43 42 42 44 45 45 42 42 43 49 51 51 49 53 55 54 44 46 47 42 40 39 39 39 36 36 34 36 30 22 21 20 25 26 35 47 45 44 43 46 47 38 42 42 44 45 47 49
45 44 44 45 47 43 41 35 37 42 47 51 51 50 48 47 49 47 43 41 41 42 41 40 38 38 38 38 35 26 25 23 25 26 35 45 38 40 43 46 45 45 45 43 44 42 48 43 47
48 47 44 44 43 39 41 35 32 37 41 47 50 51 48 47 48 46 43 40 41 41 41 43 40 38 38 37 34 26 26 28 28 31 32 34 36 38 36 41 43 44 45 44 46 47 48 44 45
47 42 42 40 39 41 41 41 33 33 39 43 46 47 48 49 50 48 45 41 40 40 40 40 41 38 38 35 29 28 28 27 29 30 32 35 34 34 36 42 42 42 45 45 46 46 49 53 54
49 45 42 42 38 41 41 42 37 31 38 42 44 45 46 49 46 48 48 45 42 40 38 40 40 40 38 31 32 27 27 25 29 27 32 33 38 42 43 46 47 52 52 47 49 45 39 37 37
51 48 47 46 42 41 44 47 44 39 40 45 43 44 44 43 46 48 46 44 41 41 40 42 41 40 36 36 33 28 28 29 32 34 37 39 42 45 46 50 54 52 44 43 39 36 34 34 35
53 50 50 48 36 42 45 46 43 41 40 44 42 39 41 43 44 42 44 42 41 40 38 41 42 37 36 34 33 31 30 31 32 33 38 43 46 48 50 51 46 38 36 36 35 35 37 37 40
55 50 49 44 38 45 43 44 41 43 40 37 40 38 37 41 41 40 41 37 36 36 36 37 35 30 24 29 33 30 29 31 32 35 36 40 40 41 41 39 37 38 39 39 38 40 40 39 40
52 47 43 38 40 40 41 46 39 41 40 36 38 38 34 37 35 34 33 26 31 31 32 30 29 29 23 29 29 28 26 26 29 31 34 35 35 36 35 36 38 38 38 39 41 41 42 42 43
50 43 39 40 41 47 44 47 44 41 32 33 32 33 30 30 30 30 28 27 27 29 24 25 22 23 23 23 24 28 29 29 32 33 32 34 34 34 35 37 38 40 40 40 41 42 44 42 42
49 47 48 47 50 54 46 49 48 36 33 29 28 33 32 34 34 35 29 33 29 28 24 23 23 23 21 21 24 26 28 30 29 30 30 30 31 32 34 37 39 39 40 41 42 42 42 43 44
54 52 56 55 54 53 46 50 49 35 32 32 37 40 36 37 41 34 36 26 30 27 24 25 25 25 25 24 25 25 27 29 31 31 33 35 37 38 41 42 41 41 42 42 41 42 43 45 46
49 50 49 50 48 46 46 46 47 40 37 39 39 40 36 36 37 41 40 40 28 34 27 27 25 28 27 27 28 28 30 33 36 39 40 42 43 43 43 43 44 44 43 43 43 45 48 48 48
48 45 49 51 50 50 47 44 48 43 37 36 34 39 37 35 33 31 36 41 41 30 34 32 38 37 34 32 29 31 35 39 42 44 45 47 47 47 47 47 47 46 45 45 45 48 49 48 48
52 53 51 47 50 50 48 44 46 40 36 40 40 42 42 39 37 34 31 30 32 32 33 34 26 28 28 29 31 34 39 42 44 46 47 48 47 45 45 45 44 44 45 45 48 50 50 50 48
51 53 52 51 47 45 42 40 36 36 34 39 39 38 38 43 41 37 37 36 38 37 30 37 36 28 26 27 34 37 41 44 45 45 46 46 47 48 49 47 46 47 48 49 50 50 50 48 46

GFSSGP_500_spd_120.txt.gz
Wind_Speed
38 38 38 37 36 33 27 18 19 24 36 37 35 34 28 28 24 17 17 15 15 17 17 15 10 8 11 10 8 8 6 5 3 2 4 5 5 4 4 5 6 6 6 5 4 5 5 5 5
39 39 39 40 41 37 25 22 23 29 32 38 40 39 38 33 28 25 20 20 20 18 20 19 19 15 12 14 11 10 8 7 6 5 2 4 5 5 4 4 5 6 7 6 5 4 6 8 8
41 43 43 45 44 36 30 25 26 33 34 37 40 39 40 38 37 33 27 26 25 24 23 23 23 20 17 12 12 13 12 11 9 7 6 4 5 6 5 5 5 6 6 7 7 7 7 8 9
38 41 42 44 41 35 34 31 34 36 38 39 41 41 40 41 40 39 37 31 29 29 27 25 24 21 21 25 21 16 13 12 10 9 8 7 7 7 6 5 6 7 7 7 8 8 8 8 9
39 41 43 41 38 31 34 33 40 39 41 42 45 44 42 41 40 41 38 31 28 29 26 23 24 25 21 20 20 18 17 15 13 13 12 12 12 12 12 12 11 11 11 11 11 12 11 10 10
38 39 40 36 35 29 32 35 44 47 45 45 46 47 46 44 42 45 44 39 30 28 26 25 23 23 20 21 21 19 18 18 17 16 16 16 17 17 17 17 16 15 15 15 14 13 13 11 11
35 36 36 34 31 32 30 34 43 47 50 50 53 51 51 50 48 47 46 46 43 35 31 27 28 27 24 24 23 21 20 19 19 20 20 20 19 20 19 19 19 19 20 19 17 16 15 16 16
36 35 31 32 32 25 26 34 39 47 51 53 54 54 53 53 53 51 49 49 48 45 44 42 36 33 31 29 27 26 23 22 22 22 21 21 21 22 23 21 20 20 21 22 21 20 18 18 19
37 35 28 26 29 25 27 30 37 46 54 53 54 55 53 53 54 54 51 50 51 48 46 44 44 39 33 30 29 28 29 29 28 28 27 27 26 25 24 23 22 21 20 21 21 21 21 21 21
38 36 30 28 26 27 32 34 34 40 47 51 52 51 53 54 55 55 54 51 48 45 43 38 37 40 39 35 32 31 31 33 34 34 34 33 31 30 28 26 25 26 27 27 27 26 27 27 28
34 35 33 29 28 30 33 37 37 37 41 44 48 52 53 52 55 56 57 55 51 41 40 37 40 39 39 38 34 33 34 35 36 39 39 38 35 33 32 30 30 30 30 31 33 33 32 32 30
35 35 35 32 33 34 33 38 38 38 41 44 44 47 50 52 54 57 56 54 52 42 41 39 43 43 39 39 37 36 37 37 39 43 45 43 40 39 38 38 37 36 34 34 33 32 37 36 34
39 37 37 37 39 37 36 37 39 37 42 44 46 47 47 49 51 53 53 54 53 49 43 49 49 44 46 44 33 36 37 38 41 37 48 47 49 45 45 44 43 39 38 36 32 36 41 40 42
42 41 40 40 40 40 39 39 38 38 44 45 46 46 46 47 47 49 50 49 49 49 47 46 45 38 35 34 37 37 38 37 38 38 33 38 38 36 51 47 42 44 40 35 41 40 40 45 45
48 46 44 43 44 44 44 40 39 38 41 41 44 46 47 47 48 46 44 43 36 34 36 35 36 36 34 33 31 33 31 31 30 29 32 26 30 32 35 42 49 43 41 35 38 34 40 42 44
50 51 49 46 47 47 47 37 36 36 36 39 43 45 46 46 47 47 42 39 37 36 34 35 38 37 37 35 33 33 33 31 30 34 33 32 33 35 32 36 38 32 29 41 45 41 45 49 48
54 54 51 49 49 48 47 40 35 38 38 38 41 44 45 45 46 46 44 44 42 41 41 39 39 37 37 36 35 33 31 31 30 33 35 35 36 31 48 33 35 42 38 43 42 43 48 49 49
55 52 48 48 49 49 44 41 40 35 39 40 42 43 42 43 44 47 49 50 47 46 45 42 38 36 37 36 36 32 31 32 33 36 37 38 38 39 38 38 43 46 38 40 41 45 48 48 51
58 55 53 52 53 49 48 45 44 37 41 43 42 43 42 41 40 46 49 49 49 46 45 41 39 38 38 36 32 35 33 33 34 35 36 35 32 33 36 43 39 37 40 44 43 47 50 54 56
62 59 57 57 55 52 50 48 46 41 42 45 44 42 43 44 41 46 46 47 48 48 45 42 41 41 39 38 32 33 33 32 33 33 33 40 33 28 39 31 31 35 42 46 48 51 51 46 43
64 61 61 59 58 55 49 50 49 47 45 42 39 40 41 42 38 40 43 46 46 45 45 43 42 40 39 38 34 34 32 31 32 37 46 33 33 35 35 38 40 44 46 51 50 44 38 39 40
65 62 63 60 59 55 47 51 46 46 44 42 40 40 40 38 35 35 35 38 40 42 45 43 42 40 37 39 36 37 34 31 32 36 37 37 39 40 40 41 44 47 47 43 41 40 39 38 39
63 62 58 54 51 47 45 52 47 46 45 42 40 40 39 35 32 33 31 33 36 40 42 41 39 38 37 38 34 33 32 31 30 33 35 37 40 40 38 37 41 41 40 40 40 42 42 43 43
56 56 51 50 48 48 50 54 50 45 44 43 40 37 33 30 32 30 31 34 34 33 36 42 37 35 36 33 32 33 34 33 30 30 31 32 32 33 33 33 35 37 39 40 41 42 44 44 45
57 52 50 50 52 55 59 57 53 45 43 42 35 28 28 31 32 29 28 29 27 29 32 35 33 31 29 25 29 26 25 30 25 25 27 28 28 29 29 30 32 35 37 38 40 41 44 46 45
59 60 57 60 60 59 61 56 53 45 41 42 36 29 33 34 28 27 29 27 26 27 35 43 34 32 28 31 31 22 24 24 23 22 25 27 28 30 33 34 35 36 37 38 40 41 42 43 44
55 54 52 50 52 53 54 51 52 48 43 39 31 32 35 28 29 27 26 26 30 33 39 28 21 21 24 25 26 23 22 19 23 28 30 32 34 37 38 38 39 39 39 40 42 44 44 44 43
52 49 50 50 50 51 53 49 49 49 42 37 32 36 34 27 32 32 31 32 32 31 36 36 25 26 24 22 21 25 26 21 24 26 29 32 36 39 40 41 41 41 42 43 43 44 44 44 43
49 48 45 46 51 51 51 51 46 44 37 33 37 35 30 31 33 33 34 33 28 23 24 23 24 21 22 25 26 27 25 24 27 32 36 38 39 41 42 42 42 44 45 47 47 47 47 46 46
43 47 49 50 50 50 49 47 43 40 38 35 39 36 37 36 34 34 35 32 29 27 26 22 26 24 26 30 27 27 29 29 31 31 33 36 38 40 42 44 45 46 47 47 48 48 47 46 46

GFSSGP_500_spd_123.txt.gz
Wind_Speed
34 36 36 35 36 33 27 19 20 27 30 33 34 35 31 27 26 21 20 19 17 19 16 11 8 6 5 6 7 5 6 7 6 3 1 2 3 3 3 3 3 3 3 3 2 2 3 4 5
36 36 38 40 40 35 24 23 22 29 32 31 33 36 35 33 29 29 27 26 23 21 18 18 16 13 8 6 7 7 6 8 8 7 5 4 3 4 3 3 2 2 2 3 2 3 4 4 5
37 38 40 41 40 34 28 26 29 34 36 34 31 35 36 36 33 32 32 30 29 25 22 24 23 21 16 12 10 11 10 8 8 8 7 6 4 5 6 5 5 4 4 4 4 4 5 5 5
35 37 39 41 36 33 33 32 35 37 40 38 34 35 35 36 34 34 33 30 30 28 25 21 20 22 19 17 18 16 14 13 10 10 9 8 8 7 8 8 7 7 7 6 7 7 8 8 7
41 39 40 38 33 33 36 38 36 39 44 43 42 38 37 37 37 37 36 34 31 26 24 23 19 19 18 19 18 16 14 16 15 14 14 13 11 11 13 13 13 12 11 12 12 11 11 12 11
41 42 43 41 36 36 36 42 45 42 46 46 48 45 40 39 38 38 37 37 34 32 30 27 24 22 22 22 22 21 19 18 16 16 15 14 14 15 17 18 18 18 17 16 17 16 14 13 13
37 39 38 37 33 35 32 39 48 46 48 52 54 50 45 43 42 41 41 40 38 37 35 33 30 28 27 27 27 27 24 21 20 19 19 18 18 18 18 19 20 21 21 20 20 19 18 18 18
34 36 34 31 31 28 31 37 42 48 49 53 56 52 48 48 45 46 46 44 42 42 38 38 36 38 39 37 35 31 28 23 22 23 23 23 22 22 22 23 24 24 24 24 24 23 23 23 22
36 37 31 28 29 24 32 35 40 46 48 54 56 53 50 49 49 49 48 47 44 45 44 42 41 40 40 41 39 36 31 27 26 26 28 27 27 28 29 28 27 26 27 26 26 25 25 25 24
38 36 32 29 27 26 34 39 38 39 47 51 52 52 52 51 52 49 47 45 45 45 44 42 41 38 35 38 38 35 33 31 29 29 30 30 31 33 34 34 32 31 31 31 31 29 29 29 29
37 31 31 30 29 30 34 36 39 39 41 46 47 49 52 52 49 48 47 47 47 48 46 39 42 39 40 39 38 36 34 34 34 33 34 34 34 36 38 39 37 36 36 36 35 36 35 35 34
38 35 34 31 31 36 35 36 37 38 41 42 41 42 45 49 51 50 49 49 51 51 48 37 39 42 39 40 42 40 36 36 35 35 36 36 38 39 41 44 43 43 43 40 40 41 39 36 37
42 40 39 35 34 36 37 36 37 37 41 40 40 38 40 41 44 49 51 50 47 46 46 44 39 43 44 45 43 43 43 39 41 38 38 39 42 42 39 45 47 51 47 44 44 43 48 39 39
45 44 42 40 39 38 38 37 37 38 42 40 38 36 37 38 40 42 43 44 44 41 41 40 36 40 45 49 43 38 32 35 43 43 38 39 41 43 40 41 47 46 50 48 49 46 36 38 42
52 50 48 44 43 42 41 38 34 38 40 40 38 35 34 35 37 38 41 40 39 38 36 31 29 29 34 36 32 30 32 31 32 32 34 36 35 39 38 40 40 36 46 47 53 55 47 44 35
58 56 52 49 47 46 45 37 37 37 35 35 34 33 34 34 34 38 39 40 39 37 32 32 31 32 33 37 37 34 33 33 33 34 34 35 36 38 37 36 39 39 44 46 47 48 46 40 34
64 59 57 56 51 50 48 43 38 38 36 35 33 33 35 37 37 39 40 40 37 36 37 35 33 34 35 37 35 37 34 34 34 34 36 38 39 41 43 43 45 39 39 43 42 44 35 31 29
63 63 60 56 53 53 50 47 44 39 38 36 37 38 39 40 41 40 40 41 40 38 37 37 37 36 36 38 37 37 37 35 36 34 37 39 41 41 44 49 49 43 36 41 33 31 33 31 33
64 63 62 59 57 56 51 50 49 42 42 43 42 42 41 40 40 39 39 40 41 40 39 39 40 40 40 41 39 37 35 36 36 34 39 40 41 42 45 34 36 48 33 39 26 34 34 36 39
63 61 62 64 62 60 56 54 52 49 42 40 40 41 41 42 41 39 39 40 41 41 41 42 42 41 42 42 40 37 35 36 35 36 38 40 40 38 25 51 35 29 36 30 22 32 32 38 44
67 61 60 64 66 64 61 58 54 50 45 44 43 42 42 41 40 39 39 41 42 42 41 45 43 41 43 42 38 35 34 35 36 39 40 40 42 45 46 31 33 29 23 29 30 34 38 41 42
71 64 64 66 67 66 64 61 55 51 48 48 47 45 42 40 38 35 35 37 39 42 44 44 43 43 43 40 37 35 34 35 38 39 38 41 45 50 48 39 29 30 29 29 33 34 35 36 39
66 69 66 64 64 64 63 58 55 54 51 48 48 45 42 40 40 32 32 33 35 37 38 39 41 40 40 37 38 36 38 34 34 35 37 39 40 42 42 34 29 27 30 30 35 36 37 38 40
62 66 62 60 56 60 61 59 58 54 52 49 47 46 43 41 37 32 31 31 32 33 36 37 37 38 39 40 39 39 32 34 35 34 35 37 37 34 31 27 25 25 28 31 33 34 37 40 43
66 61 59 57 59 61 60 61 56 57 54 51 48 47 44 37 34 33 33 31 30 30 32 35 35 36 35 38 42 38 34 38 42 36 35 33 31 27 27 28 28 28 30 32 34 38 41 43 45
67 70 72 66 67 64 66 62 60 62 52 54 49 46 42 36 33 33 32 30 30 30 32 29 27 31 33 34 41 37 31 38 35 34 29 25 25 25 26 30 32 35 37 38 40 42 42 42 42
46 53 51 53 56 62 64 61 59 60 55 47 44 45 40 34 31 32 32 31 32 30 26 25 23 31 30 39 27 22 22 28 19 23 22 24 25 27 32 37 42 44 44 44 42 42 40 40 41
48 48 49 45 48 55 56 56 59 57 49 46 45 41 33 28 30 31 33 30 26 25 24 28 29 33 33 29 29 15 16 17 18 20 19 18 23 30 33 35 36 38 40 41 40 40 40 42 42
42 41 46 47 49 48 54 57 54 52 44 41 42 37 30 30 31 31 33 30 26 27 28 31 28 29 24 20 17 16 17 19 19 15 19 23 26 29 30 32 33 34 34 36 38 39 41 41 43
39 37 38 45 45 48 47 49 47 45 41 42 37 35 33 32 30 30 32 30 30 30 32 27 21 16 19 13 15 21 19 21 19 24 26 25 26 27 27 29 31 32 34 36 38 40 41 41 42

GFSSGP_500_spd_126.txt.gz
Wind_Speed
33 35 34 33 33 32 26 21 25 26 29 32 30 30 29 25 22 21 19 20 18 17 15 16 11 10 9 8 5 7 9 8 7 6 5 4 3 2 2 1 0 1 1 2 2 2 3 2 1
34 36 37 39 38 35 25 25 26 31 33 30 28 28 30 32 28 28 25 23 22 21 19 18 15 15 12 10 8 8 5 7 9 9 8 7 6 4 4 3 3 3 4 5 4 4 5 4 4
39 40 40 41 37 31 30 32 30 35 36 35 31 29 29 30 30 28 27 25 24 22 23 21 20 16 15 15 13 10 9 8 9 9 10 10 9 9 7 7 7 7 6 6 6 6 6 7 7
38 39 41 41 33 32 34 36 34 38 39 38 36 33 31 30 30 29 29 24 23 22 21 22 18 18 15 12 13 14 15 15 13 12 13 13 13 11 10 9 9 9 9 9 9 10 10 11 11
40 40 42 41 35 33 34 38 38 40 43 41 41 39 36 34 33 33 31 28 26 24 23 22 21 19 17 13 13 13 14 14 15 15 15 16 17 16 15 14 14 14 14 15 15 15 16 16 15
43 44 46 44 37 39 40 43 44 44 46 46 45 43 40 37 37 37 35 32 30 28 26 26 24 22 21 21 21 20 19 18 17 16 16 17 18 18 18 18 18 19 19 20 19 20 20 21 19
40 42 42 44 41 40 38 45 48 48 49 49 52 48 45 41 41 40 39 37 34 32 30 30 28 26 26 26 25 25 26 26 24 21 20 18 19 20 21 21 21 22 22 22 23 23 24 23 23
35 37 37 35 33 31 36 39 45 48 49 56 52 50 45 53 45 43 41 41 37 36 34 34 31 30 31 31 31 33 32 32 31 27 23 22 21 21 23 24 24 25 25 26 26 27 27 27 27
36 34 30 29 30 28 35 37 44 49 51 52 54 52 52 45 46 45 43 43 40 39 38 36 37 35 35 34 36 34 33 32 33 32 29 26 25 25 26 27 28 29 29 29 29 30 30 29 29
40 39 33 32 29 27 37 39 45 44 48 51 51 50 47 46 46 45 45 44 44 42 41 40 38 35 36 38 38 33 33 33 33 33 31 31 30 29 29 30 31 33 34 35 34 33 34 34 33
40 38 36 35 31 32 38 39 42 42 46 45 49 49 46 47 45 45 45 45 43 44 43 42 40 36 37 40 39 37 37 36 36 34 33 33 34 33 33 34 35 35 36 38 39 39 37 38 39
44 43 41 40 32 36 39 40 43 40 42 47 47 44 45 45 45 44 44 42 43 43 42 42 41 37 37 39 38 38 39 40 39 37 35 35 36 38 37 37 38 38 40 41 42 43 41 42 45
49 47 46 42 37 39 41 43 44 42 42 42 42 42 40 39 40 42 44 44 45 44 43 42 40 35 34 38 39 38 43 40 42 40 42 37 38 42 41 41 41 43 43 43 47 46 48 46 48
54 51 51 45 44 43 43 42 43 44 42 40 38 36 37 37 36 37 39 40 41 42 42 41 39 37 33 32 33 34 36 37 38 38 36 37 39 41 46 45 43 44 46 47 50 51 54 52 56
59 58 54 51 47 46 45 43 39 42 42 39 38 36 35 36 37 35 36 35 36 37 39 38 35 31 27 28 29 30 34 34 34 34 32 34 37 39 43 44 45 42 45 48 52 52 54 53 52
61 63 58 54 53 51 48 42 41 42 39 38 36 35 35 33 34 35 36 38 37 37 35 35 32 28 27 30 32 34 34 38 35 34 35 35 37 38 38 41 43 42 44 47 45 50 49 50 52
63 60 60 61 60 55 52 46 42 42 38 37 36 35 34 33 32 33 33 35 35 35 35 34 33 30 30 31 33 35 37 37 35 34 34 38 38 39 40 42 44 46 48 48 50 51 47 45 49
57 61 65 65 65 61 53 51 48 43 39 36 36 35 35 35 36 36 37 37 35 34 34 35 36 36 35 34 36 38 40 39 36 35 35 36 38 41 45 47 48 49 50 46 42 56 50 54 51
67 65 62 63 65 65 56 52 50 43 41 38 38 37 37 37 37 37 38 37 36 34 34 35 37 38 38 38 39 40 40 39 38 36 36 37 41 43 43 46 46 49 49 44 43 36 47 38 26
69 68 62 62 62 61 61 60 55 50 44 41 40 41 40 39 39 38 38 38 35 34 35 35 35 36 38 38 39 39 39 41 39 39 38 40 44 44 44 45 49 48 43 35 37 34 34 28 20
73 70 64 64 65 62 61 61 59 55 50 47 43 41 41 41 41 39 39 38 36 34 34 36 37 37 39 40 39 40 39 40 40 42 42 42 46 45 43 42 48 48 51 46 33 28 23 20 24
77 65 71 73 68 64 64 62 63 59 54 48 44 44 43 42 41 40 39 37 33 34 33 34 37 38 40 41 39 38 41 42 41 42 41 43 44 44 41 41 44 47 45 38 33 23 26 24 30
75 71 72 76 73 71 67 65 59 64 59 53 50 48 46 43 42 42 40 35 36 35 32 34 38 39 40 40 38 38 42 41 41 42 43 43 43 44 41 40 39 38 37 28 30 30 31 31 33
61 70 71 73 74 62 68 63 63 63 58 55 52 50 48 47 44 42 41 38 34 35 34 36 39 40 40 39 35 35 37 41 44 43 42 41 41 39 39 35 35 34 28 26 27 29 30 33 35
47 49 53 67 62 61 66 69 61 57 62 58 55 52 48 47 45 43 37 36 37 35 34 36 38 40 39 36 33 31 31 41 47 38 40 39 39 38 36 34 37 36 27 24 27 30 34 37 40
61 55 55 65 67 72 66 70 64 58 60 59 58 55 54 48 44 40 37 36 35 33 34 36 40 38 35 31 29 26 32 39 24 34 37 41 42 37 37 37 35 31 30 31 33 35 40 41 44
52 58 49 36 41 59 51 67 61 61 59 57 60 57 51 47 43 38 36 36 33 33 35 38 38 34 29 28 26 29 31 39 42 28 36 39 43 38 32 33 32 32 34 38 41 43 43 45 46
44 48 54 35 32 47 42 64 67 62 59 61 55 51 53 46 41 36 35 32 31 35 35 35 32 33 27 27 28 29 30 28 25 29 34 31 29 23 18 19 25 30 34 36 39 39 40 40 41
44 48 44 41 28 37 43 58 50 63 59 55 54 45 38 46 39 35 31 31 34 33 33 34 34 30 24 26 29 25 24 24 25 23 19 18 17 18 20 27 28 28 28 29 32 34 35 37 38
47 38 39 43 38 38 31 38 51 60 55 53 48 43 43 38 33 31 32 32 32 32 35 33 31 27 21 23 22 19 22 24 24 17 16 21 23 21 22 22 24 26 29 31 33 35 37 38 39